GFSNGP_925_thetae_000.txt.gz
Theta_e
317 316 316 316 316 315 316 318 320 319 317 316 315 315 315 315 315 314 313 312 311 310 307 305 304 304 304 302 300 299 299 297 296 295 294 294 293 292 291 290 289 288 288 288
317 315 315 316 316 316 316 317 317 317 317 314 313 314 315 314 313 313 312 310 308 304 303 303 303 304 303 300 299 299 298 295 294 294 293 292 291 290 289 288 288 288 287 287
323 315 316 321 317 316 315 316 316 317 315 314 315 315 315 314 312 311 309 307 304 303 302 302 303 304 301 299 299 298 296 294 294 293 291 290 289 288 288 288 287 287 287 287
322 319 324 316 314 314 315 315 314 314 314 314 315 314 314 311 309 306 305 303 302 302 301 302 303 302 299 298 298 296 295 294 294 292 290 289 288 288 287 287 287 287 286 286
319 317 316 315 314 314 314 315 314 315 315 315 314 313 312 306 303 306 303 302 301 300 300 301 302 300 299 298 297 295 294 294 293 291 290 288 288 288 287 287 286 286 285 285
317 319 320 316 312 311 313 317 314 314 314 313 313 315 310 307 304 302 302 301 300 298 299 301 301 299 299 298 297 295 294 294 292 291 289 288 288 288 287 287 286 285 285 284
317 318 317 314 312 311 318 319 314 311 310 311 310 308 306 304 302 300 300 299 298 297 297 299 299 299 298 297 294 293 293 292 292 290 289 288 288 288 287 287 286 285 284 283
315 317 318 311 312 316 316 312 310 310 310 308 307 306 303 301 300 299 299 298 297 296 296 296 297 298 297 294 293 293 293 292 291 290 288 288 288 288 287 286 285 284 283 283
316 318 314 313 312 312 310 311 311 309 307 306 304 301 299 299 299 299 298 297 296 296 295 296 296 297 295 293 293 293 291 291 290 289 288 288 288 287 286 285 284 283 282 282
315 315 315 315 313 312 310 308 306 305 305 302 301 299 299 299 298 297 296 295 295 294 294 295 295 296 294 293 292 291 291 290 290 289 288 288 287 287 285 284 283 282 281 280
315 315 314 312 312 310 308 306 305 304 301 300 298 298 298 297 296 295 295 294 294 294 293 293 293 295 293 291 290 290 289 289 289 288 288 287 287 285 284 283 280 279 279 279
316 314 313 312 308 308 308 307 303 300 299 298 297 298 296 295 294 294 294 294 293 293 293 292 292 291 291 288 288 288 288 288 288 288 288 287 285 285 283 281 278 277 277 276
313 311 310 308 306 306 305 301 299 298 298 299 298 296 295 295 294 294 294 294 294 293 292 292 291 290 288 287 286 286 287 287 288 287 286 285 284 284 283 282 280 278 276 276
307 306 307 306 306 302 300 298 298 298 298 297 295 295 295 294 294 294 294 294 294 293 292 290 289 289 288 287 286 285 286 286 286 286 286 285 284 282 282 281 281 280 278 275
306 306 306 302 301 300 299 299 299 298 296 296 295 295 295 294 294 293 293 293 292 291 291 290 289 288 287 286 285 285 285 286 285 285 284 283 282 282 281 281 280 279 278 277
303 302 301 300 300 299 298 296 296 296 295 294 294 293 293 293 293 292 291 290 289 289 288 287 287 287 285 286 286 285 284 284 283 284 284 283 282 282 281 280 280 279 278 276
302 301 300 299 296 295 295 295 294 294 293 293 293 292 291 290 289 290 290 289 288 286 286 286 286 287 284 285 285 285 285 284 283 284 283 282 282 281 280 280 279 279 277 275
298 296 295 295 295 295 295 294 293 293 293 292 290 289 288 289 290 291 290 289 287 286 286 286 286 285 284 285 284 283 284 284 284 283 282 282 281 281 280 280 279 278 277 276
294 294 294 294 294 294 293 293 292 291 290 290 289 289 288 288 288 290 290 288 287 287 289 286 285 284 284 284 283 283 283 283 283 283 282 281 281 281 280 280 279 278 278 276
293 294 294 294 293 292 291 291 290 290 290 290 289 288 288 288 289 289 290 290 288 289 288 286 285 284 283 283 283 283 283 283 283 283 282 281 281 281 280 279 278 278 278 277
293 293 293 292 291 291 290 290 289 289 289 288 287 288 288 288 289 289 290 290 290 288 287 286 285 285 284 284 283 283 283 283 283 283 282 282 281 281 280 280 279 279 278 277
293 293 292 291 290 290 290 290 290 289 288 288 288 287 288 289 290 290 290 289 289 288 287 287 286 285 284 283 283 283 283 283 283 283 283 282 281 281 280 280 279 279 278 277
292 292 291 291 290 291 290 289 289 289 288 288 288 288 288 289 289 289 291 290 288 287 287 287 286 283 283 283 283 283 283 283 283 283 282 282 281 281 280 280 279 279 278 278
292 292 292 291 290 289 290 291 290 289 288 288 288 288 288 289 290 290 289 287 288 287 287 286 284 283 283 283 283 283 283 283 283 283 283 281 281 281 280 280 279 279 278 277
291 291 290 290 290 292 291 290 289 289 289 289 289 288 289 289 290 288 287 288 288 287 287 285 284 284 283 283 283 283 283 282 282 282 282 282 282 281 281 280 280 279 279 278
292 292 292 292 291 291 290 290 288 288 289 289 288 288 288 289 289 288 287 288 287 287 286 285 284 284 284 283 282 282 282 282 281 281 281 281 281 281 281 280 280 280 279 278
292 291 290 291 292 291 290 290 288 288 288 288 288 287 288 288 288 287 287 288 287 286 285 285 285 284 284 283 282 281 281 280 280 280 280 280 279 280 280 280 280 280 279 278

GFSNGP_925_thetae_003.txt.gz
Theta_e
318 316 315 316 316 316 316 317 320 320 319 318 317 317 316 316 315 315 314 314 312 311 308 306 305 305 304 305 304 303 301 300 298 296 295 295 294 293 292 291 290 289 289 289
318 316 315 316 315 315 316 317 317 317 317 317 316 316 316 315 315 314 313 312 310 307 305 305 304 303 303 304 302 301 301 299 297 295 295 294 292 291 290 290 289 289 289 289
322 319 318 323 319 316 316 316 317 319 317 315 316 316 314 313 314 313 311 308 308 306 304 303 302 301 302 302 301 300 299 298 296 295 294 293 292 290 290 289 289 289 288 288
323 320 327 319 316 315 315 315 315 315 316 316 315 315 313 312 311 309 308 307 305 304 302 300 299 300 301 301 300 299 298 297 296 295 294 293 291 290 289 289 289 288 288 288
323 320 318 317 315 315 315 316 315 317 317 316 315 314 313 311 309 307 306 304 303 301 299 298 298 299 300 299 299 299 298 297 296 295 294 292 291 290 289 289 289 288 288 287
321 321 322 319 316 314 315 318 317 316 316 314 313 315 312 308 306 305 303 301 300 300 299 298 297 297 297 298 298 298 296 295 294 294 293 292 291 290 289 289 289 288 287 286
319 321 318 315 314 314 318 320 317 314 313 312 312 310 308 306 304 301 300 300 299 298 297 297 296 296 296 296 297 296 294 294 294 293 293 291 290 289 289 289 288 288 286 285
319 320 319 314 314 318 317 315 314 312 312 311 309 307 305 303 301 300 300 299 298 297 296 295 295 295 295 295 296 295 294 293 293 292 291 290 289 289 289 288 288 286 285 284
318 318 315 315 315 316 314 314 312 311 309 308 307 304 302 301 300 300 298 297 296 295 295 294 294 294 294 295 296 294 293 293 292 291 290 289 289 288 288 287 287 285 284 283
318 315 314 314 315 314 313 312 310 309 309 306 304 302 301 300 300 298 297 296 295 295 294 294 294 294 293 294 294 293 292 291 290 290 290 289 288 288 287 286 285 283 282 281
318 316 315 314 313 313 312 310 309 308 306 303 301 301 301 300 298 297 296 295 295 295 294 294 294 293 293 292 291 291 290 290 289 289 289 289 288 287 286 285 282 280 279 279
320 315 315 314 312 312 311 310 308 305 303 301 301 301 299 298 296 296 295 295 295 294 294 294 294 293 292 291 290 289 289 289 289 289 288 288 287 286 285 283 281 280 277 277
316 313 312 310 309 308 308 306 303 301 301 301 299 298 297 297 296 295 295 294 294 294 294 294 293 291 290 290 289 288 288 288 288 288 287 287 286 285 285 284 282 280 278 277
311 310 310 309 310 306 304 302 301 301 299 298 297 296 295 295 294 294 294 294 294 294 293 293 292 291 291 290 288 287 287 287 287 287 287 286 285 284 284 283 283 282 281 278
308 308 310 307 305 303 301 301 299 298 297 296 295 294 294 294 294 294 294 294 293 291 292 292 291 291 290 289 287 287 286 285 285 285 285 284 284 284 283 283 282 282 281 280
308 306 305 303 302 300 299 298 297 297 295 294 294 294 294 293 293 293 293 293 292 290 290 289 287 288 289 288 288 287 287 285 284 285 285 284 284 283 283 282 282 282 281 280
306 305 303 301 299 297 297 296 296 295 294 294 294 293 291 291 290 292 291 291 291 290 289 287 287 288 288 287 287 287 287 286 284 284 285 284 283 283 282 282 282 281 281 279
303 300 297 297 296 296 296 295 294 294 294 293 292 290 290 290 290 290 289 289 291 290 289 288 287 287 287 287 286 285 284 285 285 285 284 284 283 282 282 282 281 281 280 280
297 296 295 295 295 295 295 294 294 293 292 292 291 291 290 290 290 290 290 290 290 290 290 289 287 286 286 285 284 284 284 284 284 285 284 283 283 283 283 282 281 281 280 280
295 295 294 294 294 294 294 293 292 292 293 292 291 290 290 290 290 290 289 290 290 290 290 289 287 286 286 285 284 284 284 284 284 285 284 283 283 283 282 282 281 281 281 280
293 294 294 294 294 293 292 292 291 291 292 291 290 290 289 289 288 288 290 291 291 291 289 288 287 287 287 286 284 284 284 284 284 284 284 284 283 282 282 282 282 281 281 280
293 293 293 293 293 293 293 292 293 292 291 290 290 289 288 289 289 289 290 290 291 291 289 288 288 287 287 285 284 284 284 284 284 284 284 284 284 282 282 282 282 281 281 280
292 292 293 293 293 293 293 292 291 291 291 290 289 289 289 289 289 290 291 291 290 289 289 288 288 287 285 283 283 284 283 283 283 284 284 283 283 282 282 281 281 281 280 280
293 293 293 293 293 292 292 293 293 292 291 290 290 289 289 289 289 290 290 289 288 288 288 288 287 286 283 283 284 283 283 283 283 283 283 283 283 282 282 281 281 281 280 280
293 293 293 293 293 294 293 293 293 292 292 291 291 290 289 288 288 288 289 288 288 288 287 287 286 285 283 283 284 283 283 283 283 283 283 283 283 283 282 281 281 281 280 280
293 294 293 293 294 294 293 293 293 293 291 290 290 289 289 288 288 288 288 288 288 288 287 287 286 285 284 284 284 283 283 283 282 281 281 281 281 281 281 281 281 280 280 280
293 293 294 294 294 293 293 293 292 291 289 288 289 289 289 288 288 287 288 288 288 287 287 287 286 286 285 285 284 284 283 282 282 281 281 280 280 280 280 280 280 280 280 279

GFSNGP_925_thetae_006.txt.gz
Theta_e
318 316 316 316 316 316 316 317 319 319 317 318 318 317 316 315 315 315 314 313 311 310 309 307 305 305 303 303 304 304 303 302 301 300 297 296 295 293 292 291 290 290 289 289
320 317 316 316 315 315 315 315 316 317 317 317 317 316 316 315 314 314 313 310 308 308 306 305 304 302 301 301 302 303 302 301 300 299 297 296 295 293 292 291 290 289 290 289
325 319 319 325 321 317 316 316 316 319 317 317 317 316 315 314 314 311 309 308 307 305 304 302 300 299 299 299 299 301 301 300 299 297 296 295 295 293 292 290 290 290 289 289
323 321 327 319 316 316 316 316 315 315 316 317 316 314 313 312 310 308 307 306 305 303 301 301 300 299 298 297 297 298 298 299 298 297 296 296 295 293 292 290 290 290 289 288
325 321 318 317 317 316 316 317 315 318 317 316 314 313 312 309 307 306 305 303 302 301 300 299 298 297 297 296 296 297 297 297 296 295 295 294 294 293 291 290 290 289 289 288
319 320 320 319 316 315 315 319 318 317 316 314 313 314 312 309 306 304 302 301 300 299 299 297 297 296 296 295 295 295 296 296 294 294 294 294 293 292 290 290 289 288 288 286
320 319 319 315 315 314 318 320 317 316 314 313 313 311 309 307 304 301 301 300 299 298 297 296 295 295 295 295 294 296 295 295 294 293 293 292 292 290 290 289 289 288 286 285
319 319 319 315 314 317 319 317 315 314 312 312 310 309 307 304 302 301 300 299 298 297 296 295 295 295 295 294 294 295 295 294 294 293 292 291 290 289 289 288 287 286 285 284
320 320 318 316 316 316 315 316 313 312 310 309 309 307 304 302 301 300 299 298 297 296 295 295 295 295 295 294 294 293 293 292 292 291 291 290 289 289 288 287 286 285 284 282
321 317 315 316 315 315 314 313 311 310 309 309 306 304 302 301 301 299 298 297 296 295 295 295 295 295 294 294 293 293 292 291 291 290 289 289 289 288 287 286 285 284 282 281
319 317 316 315 314 314 312 311 310 309 308 305 303 302 301 300 299 298 297 296 295 295 295 295 294 294 294 292 292 291 291 290 289 289 289 289 288 287 286 285 284 282 281 279
320 317 317 316 312 310 310 310 309 307 304 302 302 301 299 298 297 296 295 295 295 294 294 294 294 294 293 292 291 290 289 289 289 288 288 288 288 287 286 285 284 283 281 279
316 315 314 313 311 309 309 306 304 303 302 301 299 298 297 296 295 294 294 294 294 294 294 294 293 293 293 291 290 289 288 287 287 287 288 288 287 286 285 284 284 283 282 280
313 313 312 311 310 309 305 303 302 301 299 297 297 296 295 295 294 294 294 294 294 294 294 293 292 293 292 291 290 289 288 287 287 287 287 286 285 284 284 284 284 283 282 281
310 310 310 309 308 305 303 301 299 298 297 296 295 294 294 294 293 293 293 293 293 293 292 291 291 290 289 290 289 288 288 287 285 285 285 285 284 284 284 284 283 283 282 281
310 309 307 305 303 302 300 298 297 297 296 295 294 294 294 293 292 292 292 292 290 290 290 290 290 289 287 289 288 288 288 287 285 284 285 285 285 284 283 283 283 283 282 281
309 307 305 303 301 298 297 297 297 296 295 294 294 294 292 291 290 291 291 290 289 289 289 290 290 288 287 289 287 288 287 286 286 285 284 285 284 283 284 283 283 282 282 281
306 304 300 298 297 297 298 297 295 295 294 294 293 292 292 291 290 290 290 290 290 289 290 290 290 288 287 287 287 286 285 284 285 285 285 284 284 283 282 283 283 282 282 281
300 298 297 296 296 296 296 296 295 294 293 292 293 292 292 291 290 290 289 288 288 289 290 290 290 288 287 286 286 284 284 284 284 284 285 285 283 283 283 283 283 282 281 281
297 296 295 295 294 293 294 293 293 293 292 293 292 292 291 290 290 289 288 288 288 289 291 290 290 288 286 286 285 284 284 284 284 284 284 285 284 283 283 282 282 282 282 281
294 294 294 294 294 293 293 292 292 292 292 292 292 291 290 289 288 288 289 289 289 290 291 291 289 288 287 287 286 285 284 284 284 284 284 284 285 284 283 282 282 282 282 281
295 294 293 292 293 293 293 293 293 293 293 292 291 290 289 289 289 289 288 289 290 290 289 289 288 288 287 287 286 285 285 284 283 284 284 284 284 284 283 282 282 282 282 281
294 293 293 293 293 293 294 294 293 292 292 291 290 290 290 290 289 289 289 290 289 289 288 288 289 288 288 287 286 284 284 284 283 283 283 283 283 283 282 282 281 281 281 280
294 294 293 293 294 294 293 293 294 294 294 293 292 291 291 290 290 289 288 288 287 289 288 287 288 288 287 287 284 283 283 284 284 284 283 283 283 283 283 282 282 281 281 280
293 293 293 293 293 294 294 294 294 294 293 293 292 290 290 290 289 288 287 287 288 288 288 287 287 288 287 286 284 283 284 284 284 283 283 283 283 283 283 283 282 281 281 280
294 294 294 294 294 294 294 294 294 294 293 292 290 289 289 289 289 289 288 288 287 288 288 287 287 287 287 286 285 284 284 284 284 283 282 282 282 282 281 281 281 281 281 280
294 294 294 294 295 294 294 294 293 293 291 290 289 288 288 288 288 288 288 288 288 287 288 288 287 287 287 286 286 285 285 285 284 283 282 282 281 281 281 281 280 280 280 279

GFSNGP_925_thetae_012.txt.gz
Theta_e
315 314 314 314 314 313 314 315 314 313 315 317 315 313 312 311 308 307 306 305 304 303 303 302 299 298 296 296 295 295 295 295 296 296 296 297 297 297 295 294 294 291 289 289
316 315 315 314 313 313 313 313 313 314 317 314 312 310 310 309 307 307 306 305 303 303 302 299 297 296 295 295 295 294 294 295 295 296 296 295 296 295 295 294 290 292 290 289
312 312 313 310 314 316 315 314 313 313 314 312 312 311 308 306 305 305 305 303 302 301 299 297 296 295 295 294 294 294 295 295 295 295 294 294 294 294 294 292 292 290 289 288
305 303 305 313 313 313 314 314 314 314 312 311 310 308 305 304 304 304 303 302 300 298 297 296 295 295 294 294 294 293 295 294 294 294 294 294 294 293 293 291 291 288 288 286
303 309 306 312 314 314 313 314 314 314 312 310 308 306 306 304 303 303 302 299 298 296 296 295 295 294 294 294 294 294 294 294 294 294 293 293 292 292 292 290 288 288 286 284
308 302 302 307 314 312 312 312 314 312 311 310 307 305 306 306 305 301 299 298 296 295 295 295 294 294 294 293 293 294 294 293 293 293 293 292 292 291 289 288 288 286 284 282
299 300 306 307 312 312 312 310 313 311 309 309 307 304 305 306 302 299 298 296 295 295 294 294 294 294 294 294 293 293 293 292 292 291 290 290 289 288 289 287 286 284 283 281
303 301 309 309 312 311 308 311 311 309 308 308 307 306 307 305 299 297 295 295 294 294 294 294 294 294 294 293 293 293 292 292 290 290 289 289 288 288 287 286 285 283 282 281
310 310 308 309 310 309 310 311 309 307 307 308 307 307 306 299 296 294 294 294 293 293 293 293 293 293 293 293 293 292 291 290 289 289 289 288 288 287 286 285 284 283 282 281
311 312 311 311 312 311 310 309 308 307 306 307 307 304 298 295 294 293 293 293 293 293 293 293 293 293 293 292 292 292 291 290 289 288 287 288 287 285 285 284 284 283 282 282
309 311 313 313 312 309 308 307 307 307 308 307 300 295 294 293 293 293 293 293 292 292 292 292 292 292 292 292 291 291 290 289 288 287 287 287 286 285 284 284 283 283 282 282
312 310 310 311 309 308 308 309 310 307 299 296 295 293 293 292 293 293 292 291 292 292 291 292 291 289 290 291 290 290 289 289 288 286 286 286 286 285 284 283 283 283 283 282
311 311 312 310 308 308 308 306 303 300 296 294 294 293 293 293 292 292 291 291 291 291 291 291 289 289 289 289 289 289 289 288 288 286 286 286 285 284 283 283 283 282 282 282
311 310 310 308 308 307 302 301 297 295 294 293 293 293 293 292 292 292 291 291 290 290 291 290 289 289 288 289 289 288 288 288 287 287 286 285 284 284 283 283 283 283 282 282
310 309 308 307 306 302 300 296 295 294 293 293 293 292 292 292 292 291 291 290 290 289 289 288 287 288 289 289 288 288 288 288 287 287 285 284 284 284 284 283 282 282 282 282
308 307 307 306 302 297 296 296 294 293 293 292 292 292 292 293 292 291 290 290 289 287 287 287 287 288 289 289 289 288 288 288 287 285 284 284 284 284 284 283 282 282 282 282
307 305 300 299 297 297 296 295 294 293 293 293 292 292 292 291 291 291 290 289 288 287 287 287 287 288 289 289 289 288 287 287 286 285 285 285 284 284 283 283 282 282 282 282
302 300 298 297 297 296 294 293 293 293 292 293 292 292 291 291 289 290 289 288 288 287 287 288 288 288 289 289 288 288 287 286 285 284 283 283 284 284 284 282 282 282 282 282
297 297 296 296 295 293 292 291 292 293 293 292 292 291 291 291 290 289 289 288 288 287 288 288 288 288 289 288 287 288 287 286 285 284 284 283 283 283 284 283 282 282 282 282
296 296 294 292 291 291 291 291 292 291 292 291 291 292 291 291 291 290 289 288 288 289 288 288 288 286 288 287 287 288 287 286 285 283 284 283 283 283 284 284 283 282 282 281
292 292 292 292 292 292 292 292 292 292 292 292 292 292 291 291 291 290 289 287 289 289 288 287 287 286 287 287 287 287 286 286 285 284 283 283 283 283 284 284 284 283 282 281
292 292 292 292 292 292 292 292 292 293 293 293 292 291 290 290 291 290 290 289 289 289 288 287 287 286 287 287 288 288 287 287 286 286 284 284 283 283 283 284 284 283 282 281
293 293 292 292 292 292 292 292 292 292 292 292 292 292 292 290 290 288 287 288 289 289 288 288 287 287 287 287 287 288 287 286 286 285 285 285 284 283 282 283 283 282 282 281
293 293 292 292 292 292 291 292 293 293 293 293 293 293 292 289 289 288 287 287 287 287 287 287 287 287 286 286 286 286 286 287 287 286 286 285 283 283 283 283 283 283 283 282
292 292 292 292 292 292 292 293 293 293 293 292 292 293 291 290 288 288 287 286 286 286 286 286 287 287 287 286 287 286 286 286 286 285 285 284 284 284 284 283 283 283 283 282
293 293 293 293 293 293 293 293 292 292 291 291 290 290 291 289 288 288 287 287 287 286 285 285 285 286 286 286 285 286 286 286 285 285 285 284 284 284 284 284 283 282 282 282
293 293 293 294 293 292 292 292 292 290 291 290 290 290 289 289 288 287 287 286 285 285 284 283 283 283 284 284 285 285 285 285 285 285 285 285 284 284 284 284 283 282 281 281

GFSNGP_925_thetae_018.txt.gz
Theta_e
313 312 312 312 312 313 312 311 312 311 308 309 313 312 310 308 305 304 304 302 301 300 300 300 298 297 296 295 295 294 294 294 294 294 294 294 293 292 292 293 294 293 293 291
315 312 311 313 310 309 311 311 311 311 311 307 310 308 308 307 306 304 303 302 301 301 301 300 297 296 295 294 294 294 294 293 293 294 294 293 292 292 292 293 293 292 291 290
306 308 306 306 308 309 309 309 309 311 309 310 310 310 309 306 305 304 303 301 301 300 300 297 297 295 294 294 294 293 293 293 293 294 293 292 292 292 292 292 291 291 289 286
303 302 304 308 309 309 310 310 308 311 311 310 310 308 306 304 304 303 302 301 300 300 297 296 295 294 294 293 293 293 293 293 294 293 292 292 292 291 290 291 291 290 286 285
303 304 305 307 308 311 311 311 310 311 310 309 306 306 307 303 302 302 302 301 300 298 295 295 294 293 293 293 293 293 293 293 293 292 292 292 290 290 289 290 288 287 286 284
298 301 301 305 308 309 310 311 309 309 308 307 306 308 310 303 301 300 301 299 296 294 294 294 293 293 293 293 292 292 292 292 292 292 291 290 289 289 288 287 288 286 285 283
293 298 303 304 309 309 311 309 309 308 307 305 307 308 305 302 301 303 298 295 294 293 293 293 293 293 292 292 292 292 292 291 291 291 290 289 289 288 287 287 286 284 283 282
300 298 308 305 311 311 309 306 309 307 306 307 305 303 303 303 299 293 293 293 293 293 292 292 292 291 291 292 292 291 291 290 290 290 289 289 288 287 287 286 284 284 283 282
306 308 305 305 309 307 306 307 309 308 307 307 304 304 304 298 293 292 292 292 292 292 292 291 291 291 291 291 289 289 290 289 289 289 289 288 287 286 285 284 284 283 282 282
308 308 306 305 305 306 307 307 308 307 306 305 305 305 299 294 293 291 291 292 292 291 290 291 290 291 290 289 289 289 289 288 288 288 288 288 286 286 285 284 284 283 282 282
306 307 307 307 307 306 306 307 307 306 306 306 305 301 296 294 291 291 291 291 291 290 290 290 290 290 290 289 288 288 289 288 288 288 288 286 285 285 284 284 284 283 282 282
308 307 307 307 308 308 308 308 307 306 304 298 299 295 294 292 291 291 291 290 290 290 289 289 289 289 288 288 288 288 288 288 288 287 287 286 285 285 285 284 283 283 283 282
308 307 305 306 307 308 308 306 304 299 296 294 294 294 293 291 291 291 290 290 290 289 289 289 288 287 286 287 287 288 288 288 288 287 287 286 286 285 285 284 282 282 282 282
307 308 310 308 309 306 305 298 295 294 294 294 294 295 292 291 291 290 290 290 290 289 289 288 287 286 286 287 287 287 288 288 288 287 287 287 286 285 285 284 283 282 282 282
308 307 308 306 302 297 296 295 294 296 296 295 295 292 291 291 290 291 290 290 290 289 288 287 286 286 287 287 287 287 288 288 288 287 287 287 286 285 284 284 283 282 282 281
307 307 305 300 295 295 296 297 298 296 294 292 291 291 291 291 291 290 290 290 289 288 288 287 287 287 287 287 287 288 287 288 287 287 287 286 285 284 284 283 283 283 282 281
307 301 296 297 298 298 297 297 296 295 292 291 291 291 291 290 290 290 290 290 289 289 288 288 288 287 287 287 287 286 286 287 287 286 286 286 285 284 284 284 283 283 282 281
297 297 297 297 297 296 295 294 293 292 291 291 291 291 290 290 290 290 290 290 289 289 289 289 288 287 287 286 286 286 286 286 286 285 286 286 284 284 283 283 283 283 283 282
296 296 296 296 296 295 294 292 291 291 291 291 291 290 290 290 290 291 290 290 290 287 290 289 288 287 287 286 286 286 286 286 286 285 285 286 285 284 283 283 282 282 283 283
294 294 294 293 292 290 289 289 290 290 290 290 290 290 290 291 291 291 290 288 289 290 289 288 288 288 288 288 287 286 286 286 286 286 285 284 285 284 283 283 283 282 282 283
291 291 290 290 290 291 291 291 291 291 291 291 291 291 291 291 291 289 286 285 291 290 288 287 287 287 286 286 287 286 286 286 286 285 286 285 285 285 284 284 284 283 283 282
291 291 290 290 290 291 291 291 291 291 292 292 292 291 289 288 289 289 289 289 291 289 287 286 286 286 286 286 286 286 286 286 286 286 285 285 285 284 284 284 284 284 284 283
292 292 291 291 290 290 291 291 291 291 291 291 291 291 290 291 290 287 288 290 290 288 287 286 286 286 285 284 285 285 285 285 285 285 285 285 284 284 283 283 283 283 282 282
290 290 290 290 290 290 289 290 290 291 290 290 290 291 290 290 290 289 289 289 289 288 287 287 286 285 283 283 283 284 284 284 284 284 284 284 284 284 283 283 283 283 282 282
290 289 289 289 287 287 286 286 286 286 287 287 288 289 289 289 287 288 288 289 289 288 287 286 285 284 282 281 281 280 279 279 279 278 278 278 280 281 283 283 283 283 283 282
286 285 285 285 284 284 283 283 283 284 285 285 285 285 285 285 285 286 286 286 286 287 286 284 283 282 280 278 277 277 276 276 276 275 275 275 274 275 276 278 282 283 283 283
283 282 281 281 280 280 279 279 281 281 282 283 284 285 286 285 285 285 285 285 285 284 282 281 280 279 277 276 276 275 275 274 274 273 272 272 273 272 272 273 276 280 283 284

GFSNGP_925_thetae_021.txt.gz
Theta_e
313 313 312 311 314 314 313 313 318 314 312 312 314 316 315 312 310 309 308 307 306 304 303 302 301 299 299 296 295 294 294 294 293 293 294 294 293 292 292 292 293 292 292 291
315 313 312 314 312 312 314 313 312 312 314 311 311 312 312 311 310 309 308 306 305 303 302 301 301 299 296 295 294 294 293 293 293 292 294 293 293 292 292 292 292 291 290 289
313 309 308 312 312 312 311 311 314 315 315 313 313 312 313 312 310 309 308 306 304 303 302 302 300 298 295 294 294 293 293 293 293 293 293 293 292 292 292 291 290 291 290 287
312 306 313 311 310 310 311 311 310 310 310 312 312 311 310 309 309 308 306 305 303 302 301 298 296 295 293 293 293 293 293 292 292 293 293 292 292 291 290 290 290 290 287 286
315 311 308 309 306 311 313 313 311 311 311 311 309 310 312 308 308 308 307 304 302 301 298 295 294 293 293 293 293 292 292 292 292 292 292 291 291 290 289 289 289 287 286 285
306 311 312 309 305 310 311 317 311 311 311 311 311 317 316 308 306 305 304 302 298 295 294 293 293 293 293 292 292 292 292 292 291 291 290 290 289 289 288 287 287 286 284 284
303 313 310 306 308 309 315 315 308 311 311 310 313 315 310 307 305 304 300 296 294 293 293 293 293 293 292 291 291 292 291 291 290 289 289 289 289 289 288 287 286 285 284 283
304 309 315 306 311 315 314 308 309 310 310 311 311 307 306 304 301 297 293 292 293 293 292 292 292 291 290 291 291 290 289 289 289 288 289 288 288 288 287 286 285 284 283 283
311 314 308 306 312 310 308 309 310 311 310 310 308 307 306 302 296 293 293 293 292 292 292 291 291 290 291 291 289 288 289 289 289 288 288 288 287 288 286 285 284 284 283 284
310 310 307 307 307 307 307 309 309 309 310 308 309 306 303 296 294 293 292 291 291 291 291 291 290 289 290 290 289 288 288 289 289 288 288 288 288 286 285 285 284 284 284 284
309 309 308 308 308 310 310 307 307 308 309 309 308 306 297 294 293 292 292 291 291 290 290 290 289 289 290 289 288 288 288 288 288 288 287 287 287 286 285 284 284 285 284 283
315 311 310 310 307 308 310 310 309 309 306 305 304 298 295 294 293 292 291 290 290 290 289 289 289 289 288 287 287 287 287 288 288 288 288 287 287 286 285 285 285 283 282 283
310 307 307 308 307 308 309 309 306 305 300 298 296 295 294 293 292 291 290 290 290 290 289 289 289 287 287 286 287 287 287 287 288 288 288 287 286 286 286 285 284 283 282 282
308 308 311 309 311 306 301 296 295 295 296 296 296 295 293 291 291 291 290 290 290 289 289 289 287 287 287 287 287 287 287 287 287 288 287 287 287 286 286 285 285 284 283 282
306 307 307 301 298 296 296 298 298 298 296 294 293 292 291 291 291 290 290 290 290 289 289 288 287 287 287 287 287 287 287 287 286 287 287 286 286 285 285 284 284 283 283 282
302 297 297 298 298 299 298 297 296 294 293 292 291 291 293 291 290 290 290 290 289 289 288 288 288 288 288 287 287 287 287 287 286 286 286 286 285 285 285 284 284 284 283 283
302 298 298 299 297 297 296 295 294 293 292 292 292 291 290 291 290 290 290 290 289 289 289 289 289 289 288 287 286 286 286 286 286 286 285 286 285 285 284 284 284 283 283 283
298 297 297 296 296 295 294 294 294 293 292 291 291 290 290 289 289 290 290 289 289 289 290 290 290 289 288 287 286 286 286 285 285 285 285 285 285 285 285 284 283 283 283 283
296 295 295 295 295 295 294 293 291 291 291 291 290 290 290 289 289 289 289 289 289 288 290 291 290 288 288 288 287 287 287 286 286 285 285 285 284 284 284 283 283 282 282 282
294 294 292 292 291 291 290 290 290 290 290 290 289 289 289 290 290 289 288 288 290 290 290 290 289 288 287 287 286 286 286 286 286 285 285 284 284 283 283 284 283 282 282 282
291 291 290 290 290 290 290 290 290 290 290 290 290 289 289 290 290 289 288 288 291 291 290 289 288 286 286 286 286 285 285 286 286 286 285 285 284 283 283 283 283 282 283 282
291 291 290 289 289 289 289 289 289 290 290 289 289 289 288 289 290 290 290 288 290 289 288 288 287 286 286 286 284 284 284 285 285 285 285 285 284 284 284 284 284 283 283 283
290 290 290 289 289 288 289 288 287 287 287 287 287 287 286 286 286 286 288 289 288 288 288 288 287 286 285 285 284 283 283 284 285 284 284 284 284 284 283 283 283 283 283 283
289 288 287 287 286 285 285 285 283 284 283 284 284 284 284 284 284 285 285 285 285 286 287 287 287 286 285 284 283 282 282 281 280 279 279 279 278 277 278 279 281 282 282 282
286 285 284 284 283 283 282 281 281 282 282 282 282 282 283 283 284 285 284 284 284 285 285 285 285 285 283 282 281 279 278 276 276 275 274 274 273 273 273 273 274 275 277 280
283 282 282 281 280 280 278 277 278 278 277 278 278 278 279 280 281 282 283 283 284 284 285 284 282 281 280 278 277 276 275 274 274 273 272 271 271 271 270 271 271 272 272 274
280 278 278 278 277 276 274 274 274 274 275 275 275 275 276 276 277 279 280 280 282 283 282 279 277 276 275 274 273 272 272 271 271 270 270 270 270 269 270 271 272 271 272 274

GFSNGP_925_thetae_027.txt.gz
Theta_e
322 321 320 320 319 320 320 319 320 319 316 315 315 316 317 317 319 319 322 323 322 322 320 317 314 312 308 305 304 302 301 301 300 299 299 298 297 297 297 296 295 295 294 294
324 322 320 320 319 318 318 318 317 317 317 317 317 317 317 317 318 318 319 321 321 321 319 317 314 311 306 305 303 302 301 300 299 299 298 296 296 296 296 295 294 294 294 294
319 318 318 322 321 319 318 318 318 320 318 317 317 317 316 316 317 318 318 319 319 319 318 316 314 310 305 304 303 301 300 299 298 298 296 295 295 295 294 294 294 294 293 293
322 318 326 315 315 315 316 317 317 316 316 316 315 317 317 317 317 317 317 317 318 317 316 315 312 308 305 304 302 300 299 298 297 296 295 295 294 294 294 294 294 293 293 293
329 319 316 315 313 314 315 315 315 315 314 315 316 317 317 317 316 315 315 316 316 316 315 313 310 306 304 302 299 299 298 297 295 294 294 294 293 293 293 294 293 293 292 292
319 329 329 319 314 314 315 316 314 314 314 315 315 316 316 316 315 315 315 315 315 315 313 310 306 304 301 300 299 298 297 295 294 294 293 293 293 293 293 293 293 292 291 291
323 327 323 316 314 315 317 319 316 315 315 316 316 315 318 316 315 315 315 315 314 314 311 307 303 300 299 299 298 296 294 293 293 292 292 293 292 292 293 293 292 292 291 290
326 325 325 314 315 317 319 315 315 316 316 316 317 317 317 316 315 315 315 313 310 307 305 300 298 299 298 297 295 294 293 292 292 292 293 292 292 292 292 292 292 291 290 289
321 321 317 314 314 314 315 315 315 315 315 316 315 316 316 315 314 314 312 308 304 301 297 296 295 296 295 294 293 292 292 292 292 292 292 292 292 291 291 291 291 291 290 290
318 315 314 314 314 314 314 315 315 315 316 316 316 316 316 316 312 309 306 302 299 298 296 295 294 293 293 293 292 292 292 292 292 292 292 291 291 291 290 289 290 290 289 289
318 316 315 315 315 315 315 316 316 316 316 316 316 316 316 314 308 303 299 297 297 295 295 294 294 292 292 292 292 291 291 291 292 291 291 291 291 291 290 289 289 289 289 289
320 317 317 317 317 315 316 315 313 313 313 310 311 312 310 304 300 298 295 294 293 293 294 293 292 292 292 291 291 290 291 291 291 291 290 291 290 289 289 289 289 288 287 286
317 315 316 316 312 310 309 308 307 306 306 304 302 301 299 295 293 292 293 294 294 293 293 293 292 292 291 290 290 289 289 290 290 290 291 290 289 290 289 290 289 288 287 286
311 313 317 310 310 308 306 303 300 298 297 297 296 294 294 294 294 294 293 293 293 293 293 292 292 291 290 290 290 290 290 290 290 291 290 289 289 289 289 289 289 289 289 287
308 309 308 308 306 304 301 299 298 297 295 295 295 295 295 295 295 295 295 294 293 292 292 292 292 291 291 291 291 291 291 291 290 290 289 288 288 289 288 288 288 288 289 288
307 307 304 303 300 299 299 298 298 298 298 297 296 296 296 296 296 295 294 293 292 293 292 292 291 291 291 291 292 292 292 291 290 289 288 288 288 288 289 288 288 288 288 288
302 301 300 299 299 299 300 298 298 298 298 297 296 294 293 293 293 293 293 293 292 291 290 291 290 291 291 291 292 292 292 291 291 290 289 289 289 288 288 288 288 288 288 288
301 299 300 300 299 299 298 297 296 294 294 293 291 291 291 291 292 292 292 291 291 290 290 291 291 292 291 292 292 292 292 291 290 289 289 289 289 288 288 287 287 287 288 288
299 299 298 298 297 296 294 294 293 293 292 291 290 290 291 291 291 291 290 290 290 291 293 292 292 291 291 291 291 291 290 290 289 288 288 288 288 288 287 287 287 287 287 288
297 295 294 294 293 293 293 292 293 293 292 289 289 290 289 290 289 289 289 289 290 292 291 291 290 290 290 290 290 290 289 289 289 287 286 287 287 287 287 287 287 287 286 286
295 294 293 293 293 291 290 290 289 290 289 286 287 287 286 286 287 285 287 287 287 288 286 286 286 286 286 287 287 289 290 289 287 287 287 287 287 287 287 286 286 286 285 285
295 292 292 293 293 292 289 288 286 286 285 285 285 285 285 286 285 286 285 285 286 285 284 284 284 284 284 284 285 286 286 287 287 287 287 286 285 285 285 285 284 284 283 283
294 293 291 290 291 290 287 285 284 284 283 283 283 283 282 282 283 283 284 282 281 281 281 282 282 282 283 283 285 285 286 286 287 286 285 283 283 282 282 282 281 281 281 281
293 292 290 288 286 286 286 284 284 283 282 281 282 280 280 280 280 280 280 279 279 279 279 280 279 278 280 282 283 284 284 284 283 282 281 279 280 279 279 279 278 278 278 277
289 288 287 287 287 286 284 282 282 282 281 280 280 280 279 278 278 278 277 277 277 277 277 277 275 274 276 276 277 277 277 276 276 276 276 276 276 276 276 276 275 275 274 275
288 287 285 283 283 282 281 280 280 280 279 279 278 277 278 277 277 276 275 275 275 274 274 274 273 272 272 272 272 272 272 272 271 271 271 272 272 272 272 272 271 272 272 272
283 283 284 283 281 279 278 277 278 278 278 277 276 277 277 276 275 274 274 274 273 273 273 272 272 271 269 270 270 269 269 269 268 268 268 268 269 269 268 268 268 269 270 270

GFSNGP_925_thetae_030.txt.gz
Theta_e
320 321 322 322 321 320 319 321 323 323 318 318 318 318 318 318 319 319 319 323 323 323 322 321 319 318 316 313 308 305 304 303 302 302 300 300 299 297 297 297 297 296 295 295
325 323 322 322 321 320 319 318 318 318 318 318 318 318 318 317 316 317 318 318 321 322 322 321 319 317 315 311 307 305 303 302 301 301 300 299 297 296 296 296 296 295 295 294
326 320 319 321 320 319 318 318 319 320 320 319 317 317 318 318 317 317 318 317 318 320 320 321 320 317 313 309 306 304 303 302 301 299 299 297 296 295 295 295 294 294 295 294
331 319 324 317 317 315 316 316 316 316 316 315 317 317 316 316 316 317 316 317 317 317 318 318 318 314 312 307 305 304 303 301 300 298 297 295 295 294 294 294 294 294 294 293
331 324 319 317 315 315 316 315 315 315 314 314 315 316 317 317 317 316 315 314 314 315 316 317 316 311 309 306 305 302 300 299 298 296 295 294 294 294 293 293 293 294 294 293
325 331 329 321 315 315 315 319 315 315 316 315 315 320 319 318 317 315 315 314 314 315 315 315 310 307 306 302 299 299 298 296 295 294 294 293 293 293 293 293 293 293 293 292
326 328 326 318 315 315 320 324 317 316 316 316 318 318 318 317 317 315 315 315 315 314 311 308 306 303 300 299 298 297 295 294 293 293 293 293 293 292 292 293 293 292 292 291
330 325 326 315 315 317 321 318 317 316 317 318 318 317 317 316 316 315 314 312 309 301 300 298 299 299 297 296 295 294 292 293 293 292 292 293 293 292 292 291 292 292 292 291
326 326 320 316 315 315 316 316 316 317 317 317 317 317 317 316 316 314 311 307 300 298 297 296 296 295 294 294 293 293 293 292 292 292 292 292 293 292 291 291 290 290 291 290
322 316 316 316 315 315 316 317 316 317 317 318 318 317 317 316 312 308 301 300 299 297 296 295 293 293 293 293 293 293 292 292 292 292 292 292 291 291 291 291 290 290 290 290
319 318 317 317 318 318 317 317 315 315 314 311 312 314 311 304 302 300 298 297 296 295 295 294 293 293 293 293 292 292 292 291 291 291 291 291 292 291 291 290 290 290 290 289
326 319 319 319 314 314 312 311 310 310 307 305 304 303 301 299 297 296 295 294 294 294 294 293 293 294 293 292 292 291 291 291 291 291 290 291 291 291 290 289 289 289 289 288
318 315 316 314 311 309 306 305 304 304 302 301 299 298 296 295 294 294 294 294 294 294 294 294 293 293 292 292 291 290 289 289 290 290 291 291 290 290 289 290 290 289 289 289
312 313 313 312 310 306 303 301 300 299 298 297 297 296 295 295 295 295 295 295 294 294 294 293 293 293 292 291 291 290 290 290 291 290 291 290 289 289 288 288 289 289 289 289
310 310 309 306 304 303 301 300 299 298 298 297 297 297 297 296 296 296 296 295 294 293 293 293 293 293 292 292 292 292 291 291 292 291 291 290 289 288 288 288 289 289 289 288
307 306 304 303 302 301 300 300 299 299 298 297 296 295 295 295 294 294 294 293 293 293 292 290 290 290 291 291 292 292 292 292 292 292 291 290 289 289 289 288 288 288 288 288
304 303 302 301 300 300 299 299 297 297 296 294 293 291 292 292 293 293 293 292 291 291 290 291 291 292 292 292 292 292 292 292 292 292 291 290 290 289 289 289 288 288 288 287
302 301 301 300 299 299 298 296 294 294 293 291 290 290 290 289 290 292 290 290 289 290 292 292 290 290 291 291 291 291 291 291 291 291 291 290 289 289 289 288 288 288 287 287
300 299 299 298 297 296 295 294 294 292 290 289 289 288 288 288 287 288 287 287 288 291 289 287 286 286 287 287 287 287 287 289 290 290 290 290 288 288 288 287 287 287 287 287
298 297 295 294 294 294 292 292 293 292 288 287 287 286 286 286 287 286 286 287 287 285 284 284 283 284 284 285 284 284 284 285 286 287 288 289 287 287 287 287 287 287 287 286
295 294 294 293 291 290 290 289 287 287 286 285 285 285 284 285 284 285 285 285 284 281 281 280 281 282 282 281 281 282 283 284 285 286 287 287 287 287 286 286 286 286 285 284
294 293 293 292 292 290 287 286 285 284 283 283 283 282 282 282 282 282 282 281 280 279 278 279 280 277 277 278 280 281 282 284 285 285 286 286 287 285 284 283 283 283 282 282
293 292 291 291 291 288 285 284 284 283 282 282 281 280 281 281 281 281 281 279 278 276 277 277 275 274 274 276 276 277 278 279 278 278 280 281 281 281 281 280 279 279 279 278
293 292 290 288 287 286 286 284 284 283 282 282 281 280 279 280 279 279 277 277 276 275 275 275 274 272 272 273 273 273 274 273 272 273 274 275 276 276 276 276 275 275 274 274
290 288 288 288 288 286 284 282 283 282 281 281 280 279 279 278 278 277 276 276 275 274 274 273 273 271 271 271 271 270 270 270 269 269 270 271 271 272 271 271 271 271 271 271
289 288 285 284 283 282 281 280 281 281 279 280 279 277 278 277 276 275 275 274 274 273 272 272 271 271 270 269 269 269 268 268 268 267 267 267 268 268 268 268 268 268 268 269
284 285 285 284 281 280 279 279 279 278 278 277 276 275 277 276 276 274 273 273 272 272 271 271 270 270 269 268 268 267 267 266 266 266 265 265 265 265 265 265 266 267 267 268

GFSNGP_925_thetae_033.txt.gz
Theta_e
318 320 322 322 321 320 318 319 318 318 319 317 316 314 313 314 316 317 316 319 319 318 317 318 318 317 316 314 309 307 304 303 303 302 303 302 299 298 298 297 297 297 296 296
322 322 319 319 319 318 318 318 317 317 317 315 314 313 313 313 313 314 314 313 313 318 318 318 317 317 315 311 308 306 304 303 303 301 301 300 300 298 295 295 296 296 295 295
321 315 315 313 315 316 318 318 316 316 315 313 313 313 313 313 313 313 313 313 313 313 317 319 318 318 313 308 306 305 304 303 302 302 301 297 297 296 295 295 294 294 294 294
315 313 310 315 314 313 313 313 312 312 311 312 312 311 312 310 311 311 311 311 310 311 314 317 318 315 311 307 305 304 303 301 300 298 296 296 296 294 294 294 293 293 293 294
314 315 316 316 315 316 314 314 313 313 312 311 311 310 314 313 312 311 311 311 312 313 314 314 313 308 306 305 304 301 299 297 296 296 295 294 294 293 293 293 293 293 293 294
315 315 311 316 314 314 313 315 314 314 313 313 312 311 314 314 314 312 311 305 302 304 305 305 303 304 301 298 297 296 296 295 294 294 293 294 293 292 293 292 292 292 293 292
309 311 315 319 314 314 312 313 314 313 314 314 313 313 313 313 313 310 303 300 298 298 298 298 298 298 296 295 294 293 293 293 293 294 294 292 292 293 292 292 292 292 292 292
315 317 319 315 314 312 316 314 313 313 314 314 314 314 314 313 311 305 299 298 297 296 296 295 295 295 294 293 293 295 295 294 294 293 292 292 292 293 293 292 291 291 291 291
317 316 316 313 312 313 312 313 314 314 314 315 315 314 313 305 301 299 297 296 295 295 294 294 295 296 295 295 298 297 293 293 292 292 292 292 292 292 291 291 291 291 290 289
316 317 315 313 316 315 315 314 313 308 308 310 310 303 301 300 299 297 296 296 296 295 294 294 294 294 294 293 293 293 292 292 292 292 292 292 291 291 291 291 291 290 290 289
316 316 317 315 314 312 310 310 306 304 303 303 302 301 299 298 297 297 296 296 295 295 294 294 293 293 293 293 293 292 292 292 291 291 291 291 290 291 290 290 290 289 289 289
313 317 314 312 309 308 307 305 305 303 300 300 299 298 297 296 295 295 294 294 294 294 293 293 294 293 293 293 292 292 291 291 290 290 290 290 290 290 291 290 289 289 289 289
315 312 310 307 304 303 303 302 301 300 299 297 296 295 294 294 294 294 294 294 294 294 294 294 293 293 292 292 292 291 291 290 289 289 290 290 290 290 290 289 288 287 287 288
311 311 309 307 303 301 300 299 297 297 296 295 295 295 295 295 295 295 295 294 294 293 293 293 293 292 292 292 292 291 291 291 290 291 291 291 290 291 290 289 288 287 288 287
306 307 304 302 301 300 299 298 297 297 296 295 296 296 295 295 295 294 294 293 292 292 291 290 290 291 291 291 291 291 291 291 291 291 291 291 291 291 290 289 288 288 288 288
304 303 302 301 300 299 298 297 297 296 296 294 291 292 292 293 292 292 292 291 290 289 288 289 289 289 290 291 292 292 291 291 291 291 291 291 291 290 289 289 288 287 287 288
301 300 299 299 299 299 298 296 295 294 292 290 288 288 289 290 290 289 288 287 287 288 289 287 285 285 286 286 287 287 287 287 287 288 289 289 289 289 289 288 289 288 288 288
301 300 300 299 298 296 295 293 291 290 288 288 288 288 288 287 287 286 286 286 287 287 284 284 282 281 282 283 283 283 282 282 283 283 284 285 286 288 289 288 289 288 287 287
300 299 298 297 295 294 293 292 290 288 287 287 286 286 286 286 286 285 286 286 282 281 281 280 279 281 281 280 279 279 280 281 281 282 283 284 284 284 286 287 287 287 287 287
296 294 294 293 292 292 291 290 287 285 285 285 283 283 284 284 283 284 283 281 280 279 278 278 279 277 276 276 277 279 280 279 279 279 281 283 284 285 286 287 286 286 286 286
293 292 290 290 289 288 287 287 286 285 284 282 281 281 282 282 282 281 281 280 279 276 276 277 275 273 273 274 275 275 275 275 276 276 277 277 278 282 285 286 285 284 283 282
293 292 290 289 287 286 285 284 283 282 283 281 280 280 280 281 280 280 278 277 276 275 275 275 273 272 272 272 272 272 272 272 271 271 272 274 274 276 276 277 278 278 277 276
292 291 290 288 286 285 284 283 282 281 282 280 279 279 279 279 279 277 277 276 275 274 274 273 273 272 271 270 270 269 270 270 269 269 269 270 270 272 271 271 271 271 272 272
291 289 288 287 285 284 283 284 282 281 281 281 279 279 279 278 277 276 275 275 274 273 273 272 272 271 270 269 269 268 268 268 267 267 267 267 268 268 268 268 268 268 268 269
289 288 287 286 285 283 281 282 281 280 280 280 278 277 278 277 276 275 274 273 273 272 272 271 270 270 269 268 268 267 267 266 266 266 265 265 265 265 265 266 266 266 267 267
286 284 283 282 281 280 280 280 279 278 279 278 277 276 276 276 275 274 273 272 271 272 270 270 269 269 268 268 267 266 266 265 265 265 264 263 263 263 263 264 264 265 265 266
284 283 281 279 279 278 278 278 277 276 277 276 275 275 276 275 274 273 271 270 270 270 269 269 268 267 267 267 266 265 265 264 264 263 263 262 261 261 261 262 262 263 263 263

GFSNGP_925_thetae_036.txt.gz
Theta_e
316 318 321 320 320 320 318 316 316 316 316 315 314 313 313 311 314 315 320 320 318 316 314 317 318 317 316 314 313 310 306 304 303 302 301 302 302 298 298 297 296 296 296 296
320 317 317 318 317 316 317 317 317 317 316 311 311 311 311 311 311 311 311 311 312 316 315 315 316 317 316 313 308 306 303 303 303 302 302 300 298 299 296 296 295 295 295 294
319 313 313 313 314 316 316 317 317 315 313 311 310 310 310 310 310 310 309 309 310 310 316 316 317 317 315 311 306 304 303 303 302 302 300 300 298 296 295 294 294 293 293 293
313 310 312 315 313 314 312 311 311 311 311 311 312 311 310 309 309 309 310 309 308 310 312 315 316 314 308 305 304 304 303 302 302 300 297 296 295 294 294 293 294 293 293 293
313 313 314 315 313 311 312 314 312 311 311 310 311 312 313 312 310 309 307 305 304 304 305 307 308 307 305 304 302 299 296 295 295 295 294 295 295 294 294 293 293 292 292 292
312 312 311 313 313 312 311 314 313 312 312 313 311 312 313 312 307 301 300 299 299 299 299 300 299 300 298 296 295 294 294 294 294 295 296 297 295 294 292 293 292 292 292 292
305 308 309 312 313 312 310 309 312 312 311 312 312 310 311 303 300 299 298 298 297 296 296 296 296 295 294 294 294 295 296 297 298 298 297 294 293 292 292 292 292 292 292 291
313 311 315 314 312 313 310 312 311 312 312 312 312 310 306 301 299 298 297 296 296 295 295 296 296 297 295 296 296 297 298 298 296 293 293 292 292 292 292 292 291 291 291 291
314 313 312 311 313 311 311 313 313 313 313 312 309 302 300 298 297 296 295 295 295 295 295 295 295 296 295 294 294 294 293 293 293 292 291 291 292 292 291 291 291 291 290 290
316 316 316 314 312 311 311 308 305 306 306 304 301 300 299 297 297 296 297 296 295 294 294 293 293 294 294 293 293 293 293 292 291 291 291 291 291 291 290 290 291 290 289 289
315 316 314 311 309 307 305 303 302 301 301 301 299 299 298 297 297 296 295 295 294 293 293 292 293 293 293 293 293 292 291 291 291 291 290 290 290 290 290 290 290 290 289 289
311 314 312 310 306 305 305 303 301 299 298 297 297 296 294 294 294 294 294 294 293 293 293 293 293 293 293 292 292 291 291 291 290 290 289 289 289 290 290 290 290 290 289 288
314 310 307 304 302 301 300 299 298 297 296 295 294 294 294 293 294 294 294 294 293 293 293 292 292 291 291 291 291 291 291 291 290 290 290 290 290 290 289 291 290 290 290 289
306 305 304 304 301 299 297 297 296 295 295 294 294 294 294 294 294 294 293 292 292 291 290 290 290 290 290 291 291 291 291 291 290 290 289 289 288 288 288 288 288 289 290 290
305 305 302 300 298 297 296 296 295 295 294 292 293 293 293 291 291 290 290 290 289 289 288 287 287 286 286 286 286 287 287 287 287 287 287 287 288 288 289 289 288 288 288 288
302 301 300 298 297 297 296 295 295 293 291 290 290 290 291 290 289 287 286 287 287 287 287 284 283 282 282 283 283 283 283 282 281 281 282 282 283 284 285 287 287 288 287 287
300 299 298 297 297 297 296 294 293 291 289 288 288 288 288 287 285 286 286 286 286 284 282 280 279 281 281 281 280 279 278 279 280 280 281 281 281 282 283 284 285 286 288 287
301 298 298 298 296 295 293 291 289 288 288 288 288 286 285 285 285 285 284 283 282 281 279 278 279 279 278 277 276 277 278 278 278 279 278 279 279 280 281 282 283 284 285 286
299 298 297 295 294 292 290 288 288 288 287 286 286 285 285 284 284 283 282 281 279 278 277 277 276 275 274 274 275 275 275 275 275 275 275 275 276 277 276 278 282 284 286 286
296 295 294 293 291 289 287 286 286 285 283 283 284 283 282 282 282 282 280 278 276 276 277 275 274 272 272 273 273 272 272 272 271 271 271 272 272 273 274 274 274 276 279 280
292 291 290 289 288 288 286 285 284 283 281 281 281 281 281 280 280 280 278 278 276 274 275 274 272 271 270 271 270 269 270 269 268 268 268 269 269 270 270 270 271 271 272 273
290 289 288 287 286 285 285 284 283 281 280 280 280 280 280 279 278 277 276 276 275 273 273 272 272 271 270 269 269 268 268 267 267 267 266 266 267 268 267 268 268 269 269 269
290 288 287 286 285 284 282 282 282 281 280 279 279 279 279 278 277 276 276 275 274 273 272 271 271 270 269 268 268 267 267 266 266 265 265 265 265 265 265 265 266 266 267 267
290 288 286 285 284 283 282 281 281 281 280 278 278 278 278 277 276 275 274 273 273 272 271 270 270 269 268 268 267 266 266 265 265 264 264 263 263 263 263 263 264 264 265 265
288 287 285 284 283 282 283 281 280 280 279 277 276 276 277 276 276 274 273 272 271 271 270 270 269 268 267 267 266 266 265 264 264 263 263 262 262 261 262 261 262 262 263 263
285 283 282 281 280 280 280 279 278 278 278 277 275 275 276 275 274 273 272 271 270 270 269 269 268 267 266 266 266 265 264 264 263 263 262 261 261 261 261 260 261 261 261 261
281 280 279 279 278 278 278 276 276 276 276 275 274 275 274 274 273 271 270 269 269 268 268 267 267 266 265 265 265 264 264 263 262 262 261 261 261 260 260 260 260 260 260 260

GFSNGP_925_thetae_039.txt.gz
Theta_e
316 315 318 318 319 317 316 315 316 316 315 315 313 312 310 309 311 317 320 317 316 315 314 318 320 320 318 316 314 311 308 305 304 302 301 301 301 301 299 298 297 296 296 296
318 316 315 318 317 316 316 316 315 315 315 312 310 310 309 309 309 310 309 310 312 315 314 314 317 318 318 315 313 310 307 304 302 301 301 301 299 297 297 295 295 296 297 296
316 312 313 313 313 315 315 315 315 315 312 310 310 309 309 308 308 308 308 309 309 309 313 314 314 315 315 312 310 307 304 303 303 301 300 298 297 296 296 297 298 297 295 293
312 310 314 314 313 312 313 311 310 310 310 311 310 309 308 308 308 308 308 308 307 307 309 311 312 313 311 307 305 304 303 303 301 299 297 296 295 297 297 297 296 293 293 292
313 313 314 315 311 311 311 313 311 310 310 311 311 311 311 310 307 305 303 300 299 300 303 305 306 305 304 302 300 299 297 296 295 295 295 296 297 298 297 295 293 292 292 291
309 313 314 314 312 310 310 312 311 310 310 311 310 310 311 308 301 299 298 297 297 297 297 298 297 299 297 294 294 294 294 295 296 296 296 297 297 294 294 292 293 292 292 292
305 309 311 310 312 309 311 310 310 310 310 309 309 307 304 299 298 297 296 296 296 295 294 294 295 296 294 294 295 296 296 297 298 298 299 297 294 292 292 292 292 292 292 291
307 306 315 311 311 310 308 310 310 309 310 310 307 302 300 298 297 296 295 295 295 295 295 295 295 296 295 296 296 297 298 298 298 297 294 292 292 291 291 291 291 291 290 290
313 313 311 311 310 310 309 310 311 311 310 307 302 300 298 297 296 295 294 294 295 294 295 295 295 296 295 295 296 296 294 293 292 292 291 291 291 291 291 291 290 290 290 290
314 315 315 312 309 308 309 309 307 308 306 301 299 298 297 296 296 295 295 294 294 293 293 293 293 293 293 293 293 292 292 291 291 291 290 290 290 290 290 290 289 289 290 290
314 314 312 309 306 304 303 302 301 300 300 299 298 298 297 296 294 294 294 294 293 293 292 292 293 292 292 292 292 291 291 291 290 290 290 290 289 289 289 289 289 289 289 290
313 313 311 310 305 303 302 301 300 299 298 297 297 296 295 293 293 293 293 293 293 293 292 291 291 290 290 290 291 290 290 290 290 290 290 290 289 289 290 290 290 290 290 290
312 311 307 304 301 300 299 298 297 296 295 294 294 294 294 293 293 293 293 292 291 290 289 289 288 288 288 289 289 289 289 288 287 287 287 287 287 287 286 287 287 288 288 289
304 304 303 302 300 298 297 296 295 294 294 294 293 293 292 291 291 291 290 289 289 288 287 286 285 283 284 284 285 284 284 283 283 282 283 283 282 283 284 285 285 286 287 287
303 304 302 298 297 296 295 295 294 293 292 291 292 291 291 289 289 287 288 288 287 287 284 283 282 281 282 282 281 280 280 279 279 279 280 280 280 280 280 281 281 282 283 284
300 298 298 297 296 295 295 294 292 291 290 290 290 290 289 288 286 286 286 286 286 282 280 280 280 280 280 278 277 277 277 278 278 278 279 278 278 278 278 279 280 281 281 282
299 299 297 297 296 295 294 293 291 289 289 289 289 288 286 286 285 285 285 284 282 279 279 279 278 277 276 275 276 276 276 276 275 276 276 275 276 276 276 276 275 276 278 281
301 299 299 297 296 295 292 290 289 288 288 287 286 285 285 285 284 282 282 281 279 278 278 276 276 275 274 274 274 274 273 273 272 272 272 272 271 273 273 273 273 273 273 273
299 299 297 296 294 292 290 289 288 288 286 285 284 284 284 284 283 280 279 278 277 277 277 275 274 273 272 272 272 271 271 271 270 270 269 269 269 269 270 269 270 271 271 272
296 295 293 291 290 289 288 287 286 285 285 284 282 281 280 281 281 280 279 276 275 276 275 274 273 271 271 270 270 270 270 268 268 268 267 267 267 267 267 267 267 268 269 269
293 291 290 288 287 286 286 285 283 283 283 283 282 280 280 280 279 278 278 277 275 274 274 273 272 271 270 269 269 268 268 267 266 266 265 265 265 265 265 265 265 265 266 267
290 289 288 286 286 285 284 283 281 281 281 281 280 280 279 278 277 276 276 275 274 273 272 272 271 270 269 268 267 267 266 265 265 265 264 264 264 263 263 263 263 263 264 264
289 288 287 286 285 284 283 281 280 280 279 280 280 279 279 278 277 276 276 274 273 273 272 271 270 269 268 268 267 266 266 265 264 264 263 263 263 262 262 262 262 262 262 262
288 287 286 284 282 282 282 281 280 279 279 279 279 278 278 277 275 275 274 273 272 272 271 270 269 268 268 267 266 266 265 264 264 263 263 262 262 262 261 261 261 261 261 261
287 285 284 283 283 282 282 281 279 279 278 277 276 277 277 276 276 274 273 272 271 271 270 269 268 267 267 266 266 265 264 264 263 263 262 261 261 261 261 261 260 260 260 260
285 284 282 281 281 281 280 280 279 278 276 275 275 276 276 275 274 273 271 270 269 269 268 268 267 266 266 265 265 265 264 263 263 262 261 261 260 260 260 260 260 260 260 260
280 280 279 278 278 277 277 277 277 276 275 275 274 275 274 273 272 271 270 269 268 268 267 267 266 265 265 264 264 264 263 263 262 261 261 260 260 260 260 260 260 259 260 260

GFSNGP_925_thetae_042.txt.gz
Theta_e
314 315 316 316 317 315 315 315 317 316 314 313 312 311 309 308 312 314 319 319 317 317 316 319 321 321 321 320 317 315 312 308 306 304 303 302 301 300 299 299 298 296 296 296
317 315 315 319 316 315 315 315 314 314 313 310 310 309 308 309 309 309 309 309 310 312 313 313 315 319 320 319 317 315 311 306 304 302 301 300 299 298 297 296 296 298 297 297
317 312 314 314 313 315 314 313 314 315 313 308 309 309 309 308 307 307 307 308 308 307 308 310 311 313 314 313 310 308 306 303 302 301 300 298 297 296 296 297 298 298 297 296
311 310 313 314 312 313 313 312 311 311 309 308 308 307 307 307 306 306 306 303 301 301 303 305 306 306 307 306 305 304 303 301 300 298 297 296 296 297 298 298 297 296 295 293
313 313 312 315 311 311 311 310 308 308 309 308 308 309 309 303 301 300 299 297 297 297 298 300 300 301 302 300 300 299 297 297 296 296 296 296 297 297 298 296 295 294 293 292
308 313 314 313 312 308 309 311 308 309 309 310 308 310 310 301 299 297 295 296 295 296 297 298 297 299 298 295 296 295 295 296 296 297 297 297 298 298 295 294 292 292 292 292
303 309 312 311 310 308 311 311 308 309 309 308 309 305 301 298 296 295 295 295 294 295 294 294 295 296 295 295 296 296 296 297 297 298 298 298 296 293 292 292 292 292 291 291
306 308 318 308 310 310 309 308 308 307 307 308 302 300 298 297 296 295 294 294 294 294 294 295 296 296 296 296 297 298 298 297 296 294 293 292 292 291 291 291 291 290 290 290
315 315 311 309 309 308 306 308 308 308 308 305 301 299 298 296 294 294 293 294 294 294 294 295 295 295 294 294 294 293 292 292 291 291 291 290 290 290 290 290 290 289 289 288
313 313 312 312 310 309 310 310 308 308 305 302 299 298 296 295 294 293 293 292 293 293 292 292 292 292 292 292 292 291 291 290 290 290 289 289 289 289 288 288 288 288 288 287
312 313 312 310 307 305 303 302 302 300 299 299 298 297 296 295 293 293 292 292 292 292 291 290 290 290 290 291 291 290 290 290 289 289 289 289 288 288 288 288 287 287 287 287
314 312 311 310 304 302 302 301 300 299 298 297 297 296 294 293 292 292 292 292 291 290 289 288 288 288 287 288 289 288 287 286 285 285 284 284 284 283 282 283 284 284 284 285
313 310 305 303 300 300 299 298 297 297 296 295 294 294 293 291 292 292 291 290 289 288 287 285 285 284 284 284 284 283 282 281 279 279 279 280 280 280 280 279 280 280 280 280
304 304 304 303 301 297 296 296 295 294 294 294 293 292 292 290 290 289 288 287 286 285 284 283 283 282 281 281 280 279 278 278 278 278 278 278 278 278 278 278 278 277 277 279
302 301 303 298 297 295 294 294 294 293 292 291 291 290 290 288 287 286 286 286 284 282 282 282 281 279 278 278 277 277 277 277 277 276 277 277 276 276 277 276 276 275 275 275
299 298 298 297 295 295 294 293 293 293 292 291 290 289 288 286 286 286 286 285 282 280 279 279 277 276 276 276 276 276 275 275 274 274 274 274 273 273 274 274 274 274 273 272
299 297 296 296 295 294 294 293 293 292 291 290 289 286 286 285 285 284 282 281 280 279 277 277 275 275 275 274 275 274 273 273 272 272 271 271 271 271 270 271 270 270 271 270
300 298 297 296 295 293 292 291 290 290 290 288 286 285 285 285 284 282 279 279 278 277 276 275 274 274 273 273 272 272 271 271 270 270 269 269 268 268 268 267 267 267 268 268
298 297 296 295 293 291 290 289 289 287 286 285 284 284 284 282 281 279 278 277 277 277 275 274 273 272 271 271 271 270 270 269 269 268 267 267 266 266 266 265 265 265 265 265
296 294 293 291 290 290 289 288 286 285 284 284 283 283 281 280 280 278 277 276 276 276 274 273 272 271 270 270 269 268 268 267 267 266 265 265 265 264 264 264 264 263 264 264
292 291 290 289 288 287 287 286 285 284 282 282 281 281 280 279 279 278 277 276 274 274 273 272 272 271 270 269 268 267 267 266 265 265 264 264 263 263 263 262 262 262 262 262
289 288 287 287 286 284 283 283 283 282 281 281 280 280 279 277 277 276 276 275 274 273 273 272 271 270 269 268 268 267 266 265 265 264 264 263 262 262 262 262 261 261 261 261
288 287 286 285 285 282 281 281 281 281 280 279 279 278 278 277 277 276 275 274 273 273 272 271 270 269 269 268 267 266 266 265 264 263 263 262 262 261 261 261 261 261 261 261
287 287 285 284 282 281 281 280 279 279 279 279 279 278 278 276 275 275 274 273 273 272 271 270 269 268 268 267 266 266 265 264 263 263 262 262 261 261 261 261 261 261 260 260
286 284 283 283 283 282 281 279 278 278 278 277 277 277 277 276 276 274 273 272 271 270 270 269 268 267 266 266 265 265 264 264 263 263 262 261 261 260 260 260 260 260 260 260
284 283 282 282 281 280 280 279 278 277 276 275 275 276 276 275 274 273 272 271 270 269 268 268 267 266 265 265 264 264 264 263 263 262 261 261 260 260 260 260 260 260 260 260
280 279 279 277 277 278 278 278 277 275 275 275 274 274 274 273 272 271 270 269 268 267 267 267 266 265 265 264 264 263 263 263 262 261 261 260 260 259 259 259 259 260 260 260

GFSNGP_925_thetae_045.txt.gz
Theta_e
315 313 316 318 319 318 319 320 323 322 317 318 317 316 314 311 314 317 320 320 320 321 323 324 324 324 323 322 322 321 319 314 311 310 306 304 302 300 299 299 298 298 298 298
316 315 316 319 317 317 316 316 316 316 317 315 313 311 312 312 314 313 313 313 314 314 313 313 316 318 318 316 314 312 310 308 306 303 301 301 300 299 298 298 296 296 298 300
320 313 315 319 317 317 317 316 318 319 319 313 312 312 312 312 311 312 311 309 309 309 308 307 308 311 310 309 309 307 305 303 301 300 299 298 297 297 297 297 299 299 299 297
319 313 322 319 312 314 317 316 314 313 313 312 312 310 309 309 311 309 307 306 305 305 303 302 303 304 304 305 304 303 302 301 299 298 296 296 297 298 298 298 298 297 296 295
321 319 317 315 314 315 315 316 313 314 311 310 310 312 309 304 305 304 302 301 300 299 299 299 299 300 300 300 300 299 298 297 297 297 297 297 297 298 298 298 297 296 295 294
313 321 323 319 313 310 311 317 312 311 311 311 312 317 315 304 301 300 299 298 298 297 297 297 297 298 298 298 298 297 297 297 297 297 297 298 298 298 297 294 293 292 292 291
314 321 319 314 311 310 318 319 311 311 312 313 314 311 308 301 299 298 297 296 296 297 296 296 297 298 298 298 297 297 298 298 298 298 298 298 295 293 292 292 291 291 291 290
314 320 323 311 309 316 318 310 311 311 312 312 306 302 302 300 298 297 297 296 296 296 296 296 297 297 297 297 297 297 297 296 294 293 292 291 291 290 290 290 290 289 289 289
320 322 317 311 315 311 309 312 310 312 310 307 304 302 300 298 297 297 296 296 296 296 295 295 295 296 295 293 293 292 291 290 290 290 289 289 289 289 289 289 289 289 289 289
318 317 315 313 311 311 310 310 309 310 309 306 304 301 299 297 297 296 295 295 295 294 293 292 291 291 291 291 290 290 290 289 289 289 289 288 288 288 287 287 287 287 287 286
316 313 313 314 312 311 308 307 306 305 305 304 301 299 298 297 296 295 294 293 293 292 291 290 289 288 289 290 290 289 288 287 286 285 284 284 283 283 282 283 282 283 282 282
319 316 317 316 314 307 307 307 305 303 301 300 300 298 297 296 294 293 293 292 291 290 288 287 285 285 285 286 286 286 285 283 281 281 281 281 281 280 280 279 279 279 279 279
315 311 307 304 303 304 304 303 301 301 300 299 297 296 295 293 293 291 291 290 289 287 285 284 284 282 282 281 281 281 280 280 280 279 279 279 279 279 279 279 278 277 276 276
305 307 307 304 306 300 300 299 297 297 296 296 295 294 293 292 291 290 289 287 285 284 284 283 281 280 279 279 279 279 279 277 278 278 278 277 277 277 277 277 277 276 276 275
303 303 304 300 298 297 297 297 296 295 294 293 293 292 291 290 289 288 286 284 283 283 282 281 279 278 277 278 278 277 277 276 276 276 276 275 275 275 275 274 274 274 274 274
300 300 300 300 297 296 296 296 295 294 293 292 291 291 289 288 287 286 283 283 283 281 279 277 277 276 276 276 277 276 276 274 273 274 274 273 273 273 273 273 272 272 272 271
300 299 297 297 296 296 295 295 294 293 292 291 289 287 287 286 285 283 282 280 279 278 277 276 276 275 275 275 274 274 274 273 272 272 272 271 271 271 270 270 270 270 269 269
301 299 298 297 296 294 294 293 293 292 290 288 287 286 286 285 284 281 280 278 277 276 275 274 274 274 273 272 272 272 271 270 270 270 270 269 268 268 268 268 267 267 267 267
298 297 296 294 294 293 292 292 290 288 286 286 286 285 284 283 281 280 279 278 277 277 275 274 273 272 272 271 270 270 269 268 268 268 267 266 266 266 266 266 265 265 265 265
295 294 293 292 291 291 289 288 287 286 285 284 283 283 282 280 279 278 278 278 278 276 274 273 272 271 270 270 269 268 267 267 267 266 265 265 264 264 264 264 263 263 264 264
292 291 290 290 289 288 287 287 285 284 284 284 283 282 280 278 278 277 277 277 275 274 273 272 271 270 269 269 268 268 267 266 265 265 264 263 263 263 262 262 262 262 262 262
289 288 287 287 286 286 285 285 283 282 282 281 280 280 278 277 277 277 276 276 274 273 272 271 271 270 269 268 268 267 266 265 265 264 263 262 262 261 261 261 260 260 261 261
288 287 286 285 284 283 282 281 281 281 280 279 279 278 278 277 276 276 276 274 273 273 272 271 270 270 269 268 267 266 266 265 264 264 263 262 261 260 260 259 260 259 259 259
286 285 284 282 282 282 282 280 280 279 279 278 278 278 277 276 275 275 274 273 272 272 271 270 269 269 268 267 266 266 265 265 264 263 263 262 261 261 260 260 260 260 259 259
285 284 284 283 282 281 280 279 279 279 278 278 277 277 276 276 276 274 273 272 271 270 270 269 268 268 267 266 265 265 264 264 263 263 262 261 261 260 260 259 259 259 259 259
281 281 280 281 281 280 279 279 278 276 276 276 275 275 275 275 274 273 272 271 270 269 268 268 267 267 266 265 265 264 264 263 263 262 262 261 260 260 259 259 259 259 259 259
278 278 278 277 276 277 277 277 276 275 275 275 274 274 274 273 272 271 270 270 269 268 267 266 266 266 265 265 264 263 263 262 262 261 261 260 260 259 259 258 259 259 259 259

GFSNGP_925_thetae_048.txt.gz
Theta_e
318 317 317 317 318 320 320 321 322 322 322 321 321 322 321 320 317 319 321 325 327 329 330 330 330 329 328 327 324 322 320 316 313 311 310 309 309 308 305 302 300 299 298 299
320 319 318 318 317 318 319 319 321 321 321 320 321 321 319 318 319 321 322 323 323 323 323 322 322 324 322 320 318 317 316 313 309 308 307 305 302 301 300 299 298 299 298 298
320 320 319 322 320 319 320 321 322 322 321 320 320 320 320 319 319 320 319 319 318 317 316 316 317 318 317 315 314 313 311 308 305 303 301 300 300 300 299 299 299 299 299 300
322 320 330 319 319 320 320 321 321 320 320 319 319 319 317 318 318 316 315 314 314 313 312 312 312 312 312 311 310 309 307 305 302 302 301 300 300 300 299 299 299 299 299 298
331 324 320 318 317 319 321 321 320 320 319 318 316 315 314 315 315 314 313 312 310 309 309 309 309 308 308 307 306 305 304 303 302 301 301 301 300 299 299 299 299 298 298 297
321 325 334 321 319 318 318 323 319 318 318 318 316 320 319 312 310 309 308 308 307 307 306 306 306 306 306 305 304 303 302 302 301 301 301 300 299 298 297 296 296 295 294 294
327 329 324 320 318 316 321 324 319 318 318 317 318 318 316 310 309 307 306 305 305 306 305 305 305 305 304 303 302 301 301 301 300 299 297 296 295 295 295 294 294 294 293 292
326 331 330 317 315 320 322 320 319 319 318 318 317 314 311 309 307 305 305 303 304 304 304 303 304 303 303 302 301 300 298 296 294 294 294 294 293 293 292 292 292 292 292 292
323 325 323 318 320 318 320 320 318 319 317 317 313 312 309 307 306 305 304 303 303 302 302 301 301 301 300 299 298 297 295 294 293 292 292 292 292 292 292 292 291 291 290 289
322 321 321 320 318 317 316 318 316 317 317 315 313 310 308 306 305 304 303 303 302 300 299 298 297 296 295 294 294 293 293 292 292 291 291 290 290 288 287 287 286 285 285 285
322 322 318 319 319 319 315 314 314 314 315 313 312 309 307 305 304 303 302 300 300 298 297 295 293 292 292 292 292 292 291 290 289 287 286 285 284 283 283 283 281 282 282 281
324 322 322 322 321 319 317 315 314 314 313 312 310 308 306 304 302 301 300 298 297 296 294 292 290 290 290 290 290 289 287 285 284 284 284 284 283 283 281 279 278 278 277 277
320 316 316 313 311 316 316 314 312 311 311 309 308 306 304 303 300 299 297 296 295 292 290 288 288 287 286 285 284 284 284 283 283 283 283 282 282 282 282 281 279 278 277 276
313 311 314 310 313 308 309 308 306 308 307 306 305 303 301 300 297 297 296 294 291 289 287 286 285 283 283 282 282 282 280 279 282 281 281 280 280 280 280 279 279 279 277 275
312 309 309 306 305 305 304 304 305 304 303 303 301 299 298 296 296 294 291 288 288 287 286 284 282 281 281 281 281 280 280 279 280 279 278 277 278 278 278 278 278 277 276 276
306 306 305 306 304 302 303 303 303 301 300 298 298 296 295 293 291 289 286 286 285 284 283 280 280 279 280 280 279 279 278 275 276 277 277 277 276 276 276 276 276 275 275 274
308 307 305 304 303 302 301 301 299 298 297 296 294 291 290 287 286 285 283 282 280 279 278 278 278 277 277 277 278 278 277 276 274 276 276 275 274 275 274 274 274 273 273 272
307 307 305 304 302 301 298 298 297 294 293 291 289 288 287 286 285 282 280 279 278 277 277 276 276 275 275 275 275 275 274 274 274 274 274 273 272 272 272 272 272 272 272 271
304 304 302 301 300 298 296 294 292 290 288 288 288 287 285 284 283 280 279 278 278 277 276 275 274 274 273 272 273 273 272 273 272 272 271 270 271 271 271 270 270 270 270 269
297 296 295 294 293 292 290 289 288 288 286 286 285 284 282 281 280 280 280 280 280 277 275 274 273 273 272 270 271 271 271 271 271 270 270 269 270 269 269 268 268 268 268 268
292 291 290 289 289 288 288 287 287 287 286 285 284 283 281 280 279 279 279 278 276 275 274 273 273 272 271 271 271 271 270 270 270 270 269 269 268 268 268 267 267 267 267 267
289 289 289 289 288 287 286 286 285 284 283 282 281 280 279 279 278 278 278 278 275 274 274 274 272 271 270 270 270 270 269 269 269 268 268 268 267 267 266 266 266 265 265 265
289 288 287 286 285 284 283 283 282 282 281 281 281 281 280 279 279 279 278 275 275 274 274 273 271 270 269 270 270 269 269 268 268 267 267 267 266 265 265 265 264 263 264 264
286 285 285 285 284 284 284 282 281 280 280 279 279 279 279 278 277 276 275 274 273 273 273 271 270 269 268 269 268 268 267 268 267 267 266 265 265 265 264 263 263 262 262 262
286 285 284 284 283 282 281 281 280 280 279 279 278 277 277 277 278 276 274 273 272 272 271 269 268 268 268 268 267 267 267 267 266 266 265 265 264 264 263 263 262 261 260 260
282 281 281 282 282 281 281 280 280 279 279 279 278 277 276 275 274 273 272 271 271 270 270 269 268 267 267 267 266 266 266 266 265 265 264 263 263 263 262 261 260 260 259 259
278 279 279 278 278 277 278 278 278 277 277 277 277 275 275 274 272 272 271 271 270 269 268 268 267 267 266 266 266 265 265 265 264 263 262 262 262 261 261 260 259 258 258 257

GFSNGP_925_thetae_051.txt.gz
Theta_e
319 319 320 320 320 320 321 322 324 323 321 322 321 321 321 321 321 320 321 323 326 327 329 330 331 332 332 330 329 326 322 319 316 316 314 312 311 309 307 304 303 302 301 301
320 319 319 318 318 318 318 319 320 320 320 321 320 320 321 322 321 321 322 322 325 328 331 332 332 331 329 326 325 324 321 318 315 314 314 311 309 307 306 304 303 301 300 300
323 320 320 324 319 318 318 318 319 320 320 320 320 320 320 320 320 321 323 324 326 327 327 326 326 324 322 321 319 317 315 313 311 309 307 305 305 304 304 303 303 301 300 300
327 324 329 321 319 319 319 319 319 320 320 320 319 319 320 320 321 322 323 323 322 321 320 320 319 318 317 316 315 313 311 309 307 306 305 305 305 303 303 302 302 302 300 300
329 327 320 319 320 320 320 320 319 319 320 320 319 320 320 319 321 321 320 318 317 316 316 316 315 315 314 313 311 310 308 307 306 305 305 304 303 302 302 301 300 300 300 299
327 327 328 322 320 320 320 324 320 320 320 319 318 322 320 319 319 318 317 315 314 314 314 313 312 312 311 310 309 308 307 306 305 305 304 302 301 299 299 299 299 298 297 296
330 329 323 320 319 320 325 325 321 320 319 319 319 320 320 318 316 315 313 313 312 312 312 311 311 310 309 308 307 306 305 304 303 302 301 299 298 298 298 297 296 296 294 294
329 331 331 321 321 322 323 324 322 321 320 320 319 320 318 316 314 313 312 311 311 311 310 310 310 309 308 307 305 304 302 301 299 298 297 298 297 295 294 294 294 294 294 293
325 325 324 321 323 321 322 322 324 322 321 320 321 318 316 315 313 312 310 310 310 310 309 308 308 307 306 304 302 301 300 299 297 295 294 294 294 294 294 293 293 291 290 289
323 322 322 323 321 321 322 322 322 322 320 320 320 318 315 313 312 311 310 310 309 308 307 306 305 304 303 301 300 298 297 296 295 294 293 292 292 289 289 288 288 287 287 286
320 319 320 321 322 323 321 320 320 318 319 319 319 316 314 312 311 311 309 308 307 306 305 303 301 299 298 297 296 296 294 293 292 290 290 288 287 286 285 283 281 283 283 283
323 317 323 323 322 321 322 321 319 318 318 318 317 315 313 311 310 309 308 306 305 303 301 298 297 296 296 295 294 293 291 290 289 288 287 287 286 285 282 282 280 278 278 277
319 319 321 321 316 315 320 321 320 317 317 317 315 313 312 310 308 307 305 304 302 300 297 295 294 292 291 291 291 289 288 286 285 286 286 285 284 284 285 281 281 280 278 277
318 317 318 316 317 313 316 318 314 315 315 315 313 311 309 308 305 304 303 301 298 295 293 291 289 287 286 286 285 284 284 284 285 285 284 284 283 283 283 282 282 282 279 278
318 315 315 312 311 311 311 311 313 313 313 312 310 309 307 305 303 302 299 295 293 291 288 286 285 284 284 284 284 284 283 283 283 283 281 280 280 281 280 280 280 280 279 279
314 311 311 311 311 309 308 309 309 309 308 308 307 306 303 301 298 295 293 291 289 287 283 282 282 282 282 282 282 280 278 278 280 280 280 279 279 279 279 279 279 278 278 278
313 314 313 311 310 308 308 307 307 306 305 303 301 300 296 292 290 287 284 283 281 281 280 280 280 279 279 280 280 280 280 278 277 278 278 278 277 278 277 277 277 277 276 276
309 310 310 310 310 307 305 304 302 301 299 294 291 289 288 287 285 282 281 280 279 279 279 278 277 277 277 277 278 277 277 277 277 277 276 276 275 275 276 276 275 275 275 274
303 304 304 305 305 303 300 297 294 291 289 288 287 286 284 283 282 280 279 279 278 278 277 276 276 275 275 274 275 276 276 276 275 275 275 273 274 274 274 274 274 273 273 273
293 292 292 292 291 291 290 289 289 288 286 285 284 283 282 281 280 280 281 281 280 277 276 275 275 274 273 272 273 274 274 274 274 274 274 272 274 273 273 272 272 272 272 272
291 290 289 289 289 288 288 288 288 287 286 285 284 283 282 281 280 279 279 278 276 276 275 275 275 274 273 273 273 274 273 273 273 273 273 273 272 272 272 272 271 271 271 270
291 290 289 288 288 287 286 286 285 284 283 282 281 281 281 280 279 280 279 278 276 275 275 275 274 272 272 272 273 273 272 272 272 272 272 272 271 271 271 270 270 269 269 268
288 287 286 286 286 285 284 283 283 283 282 282 282 282 281 281 280 279 278 277 276 276 276 274 271 271 270 272 272 272 272 271 271 271 270 270 270 269 269 268 268 267 267 267
287 287 286 285 284 284 284 282 281 281 280 280 280 280 280 280 278 278 277 276 275 275 275 272 271 270 269 271 271 271 270 270 270 270 270 269 268 268 268 267 267 266 266 265
286 285 285 284 284 283 282 282 281 281 280 280 280 279 279 279 280 278 276 274 273 274 273 270 269 269 270 270 270 270 269 269 269 268 267 268 267 267 267 266 266 265 264 263
282 282 281 282 282 282 282 282 282 282 281 280 279 278 277 277 276 275 274 274 273 272 272 272 271 270 270 270 269 268 268 268 268 268 267 266 266 266 266 265 264 264 263 263
279 280 280 279 279 278 279 279 279 278 278 279 278 277 276 276 274 274 273 273 272 271 271 270 270 269 268 268 267 268 267 267 267 266 265 265 265 265 264 264 263 262 261 260

GFSNGP_925_thetae_054.txt.gz
Theta_e
321 320 322 323 322 322 324 324 330 329 324 322 323 323 324 323 323 322 321 323 325 329 331 332 332 332 333 332 328 325 324 321 319 319 318 316 314 312 311 309 307 306 305 303
324 320 320 321 321 321 320 320 320 322 323 322 321 321 323 322 323 322 320 320 322 326 329 331 332 332 330 327 325 323 320 318 316 315 313 311 308 306 304 303 303 302 301 301
325 322 320 320 321 320 320 321 320 321 322 321 321 320 321 320 321 321 321 321 323 326 329 332 332 330 329 327 325 321 318 317 316 312 310 308 308 305 304 303 303 302 301 300
327 324 325 320 320 320 320 320 319 319 319 319 320 320 320 320 321 322 323 324 326 328 328 328 327 325 323 322 319 316 314 312 310 308 307 306 306 304 303 302 301 301 301 300
327 326 323 320 321 320 321 320 320 319 319 319 319 321 321 321 321 323 324 324 324 323 324 324 321 320 318 316 314 312 310 309 308 307 306 305 304 303 302 301 301 300 300 299
331 327 327 323 321 320 321 322 321 320 321 321 321 323 321 321 321 322 322 320 319 319 319 318 317 316 314 313 311 310 309 308 307 306 305 303 302 301 301 300 300 300 298 296
328 329 326 320 320 319 323 323 323 322 322 322 321 321 322 321 321 320 319 317 317 316 316 315 314 313 312 310 309 308 307 306 305 303 302 301 300 299 300 298 297 296 295 295
327 329 329 322 321 322 322 323 325 324 323 322 322 323 321 320 319 318 317 315 315 314 314 313 312 311 310 309 307 306 305 303 302 301 300 299 299 297 295 295 295 295 294 293
324 325 325 322 322 323 323 325 325 324 324 323 324 322 320 319 317 316 315 313 313 313 312 311 311 310 308 307 306 304 302 300 300 298 298 297 296 295 295 294 292 290 289 289
323 319 318 323 323 322 322 323 323 323 324 323 323 320 319 317 316 314 313 312 312 312 311 310 310 308 306 304 302 302 300 298 296 295 294 294 292 291 290 289 288 287 287 287
321 320 319 318 319 322 322 323 323 321 320 321 322 320 317 316 314 313 312 311 311 310 309 309 307 305 304 302 301 299 297 296 294 293 291 289 287 287 287 283 284 285 284 283
323 320 322 322 321 322 319 320 322 320 320 319 321 320 317 315 313 312 312 310 309 308 307 305 302 301 300 299 297 296 294 292 290 289 288 288 286 283 283 282 281 280 279 278
317 317 319 320 318 317 317 318 321 321 320 319 320 318 316 314 312 311 310 308 307 305 302 300 298 297 296 295 294 290 288 288 288 287 286 286 285 286 282 281 280 281 280 279
319 319 320 319 318 314 313 315 317 318 318 317 318 316 314 312 310 309 308 306 304 300 298 295 291 289 288 287 288 287 286 286 286 285 285 284 284 283 283 283 283 282 280 279
317 318 317 315 313 313 312 313 313 316 315 315 315 313 312 310 308 307 304 300 297 295 291 288 287 286 285 285 284 284 284 284 284 283 282 281 281 281 281 281 281 281 280 280
314 313 313 313 312 312 310 310 311 310 310 311 310 309 307 305 300 297 296 294 292 287 284 283 283 282 283 282 281 281 281 281 281 281 280 280 280 280 280 280 279 279 279 278
312 313 313 313 314 311 309 309 309 309 306 301 297 295 289 286 284 284 283 282 281 281 280 280 280 279 280 281 281 281 279 278 278 279 279 278 278 278 278 278 278 278 277 276
306 307 307 308 310 309 305 303 298 295 293 290 288 286 285 284 283 281 280 280 279 279 279 278 278 278 278 278 278 278 278 278 278 278 277 277 276 276 276 276 276 276 276 275
296 298 297 297 297 295 293 292 290 289 288 286 285 283 282 281 280 280 279 279 278 278 277 276 276 276 275 276 276 276 276 276 276 276 276 275 275 276 275 275 275 274 273 273
291 290 290 290 289 289 288 287 286 285 284 283 283 282 281 280 281 281 280 279 278 277 276 276 275 274 273 274 275 275 275 275 275 275 275 273 274 274 273 274 273 273 273 272
290 289 289 288 288 288 287 286 285 285 284 283 283 282 281 280 279 279 278 277 276 276 275 276 275 274 274 274 274 274 274 274 274 274 274 274 273 273 273 272 272 271 271 271
288 288 287 286 286 285 284 283 283 282 282 282 281 281 281 281 279 279 278 277 275 276 276 274 273 273 272 273 274 274 274 273 273 273 273 273 272 272 271 271 270 270 269 268
287 286 285 284 283 283 282 282 282 282 282 282 282 281 281 281 280 279 278 277 277 277 275 273 272 271 271 273 273 273 273 272 272 272 272 271 271 270 269 269 269 268 268 267
285 285 284 284 283 283 283 282 281 281 281 281 281 281 280 279 278 277 277 276 276 275 273 272 271 270 270 272 272 272 271 271 270 270 270 269 269 269 269 268 268 267 267 266
284 284 284 284 284 283 283 282 282 281 281 280 279 278 278 279 278 276 275 274 274 275 272 271 270 270 271 271 271 270 270 269 269 268 268 268 268 267 267 267 267 266 265 264
282 281 280 280 281 282 281 280 280 281 280 279 278 278 277 276 276 275 274 273 273 272 272 272 270 269 270 269 268 268 268 268 268 268 267 266 266 265 265 265 265 265 264 263
278 279 279 278 278 277 277 277 277 276 277 278 277 276 276 275 274 274 274 273 272 272 271 270 270 269 269 268 268 267 267 267 267 266 265 265 264 264 264 263 263 262 261 261

GFSNGP_925_thetae_057.txt.gz
Theta_e
319 320 322 322 323 321 321 323 326 325 324 323 321 318 318 320 320 319 318 323 325 325 325 327 330 330 326 328 330 330 329 328 323 321 322 321 321 319 316 315 313 311 310 308
319 319 321 322 323 321 320 324 324 324 324 322 320 318 318 319 319 319 317 318 323 327 328 328 330 327 324 321 321 322 321 320 320 318 316 314 313 311 310 308 306 305 304 303
321 319 320 321 320 320 321 319 320 320 318 317 320 318 319 318 319 317 316 315 316 326 329 329 329 326 324 322 321 320 318 317 315 313 311 310 307 305 304 303 302 301 301 300
319 318 324 320 318 318 319 320 318 317 316 316 316 316 315 316 316 316 316 319 327 326 327 330 329 327 324 321 318 318 315 312 311 310 308 307 305 304 302 302 301 300 300 300
322 323 321 321 319 319 319 318 317 317 316 315 315 317 319 317 317 318 319 320 321 325 325 325 324 322 318 316 314 312 310 309 308 307 305 304 303 303 302 301 301 301 300 299
319 323 323 320 319 319 319 319 319 319 317 318 315 316 315 316 319 319 318 319 320 321 320 321 320 317 314 312 311 309 309 307 306 305 304 303 303 302 302 301 301 299 299 298
320 323 321 319 319 319 320 318 319 319 319 319 317 316 315 316 318 316 315 316 318 317 317 317 316 314 311 310 309 309 308 306 306 305 304 303 302 302 300 300 298 295 294 294
319 322 324 320 320 319 317 317 319 319 318 317 318 317 316 317 316 315 314 314 315 314 314 314 313 311 309 308 308 307 306 305 304 303 302 302 300 299 299 297 296 294 293 290
319 318 320 318 322 319 318 319 321 321 320 320 319 318 317 315 314 313 311 311 313 312 312 312 311 310 307 306 305 304 303 302 302 302 301 299 298 296 295 295 294 293 290 287
319 318 315 315 317 318 319 319 319 319 320 321 321 318 316 314 313 311 309 309 311 311 309 309 309 308 306 304 303 303 302 301 300 299 298 295 294 293 291 290 289 288 287 286
318 317 317 317 315 316 317 318 317 318 317 318 321 320 315 313 311 309 310 310 310 309 309 308 307 305 304 303 302 300 299 297 295 293 290 289 289 289 288 286 287 286 285 285
318 317 317 319 319 318 318 316 315 316 317 317 316 315 313 311 309 308 308 309 308 308 305 303 303 302 302 302 300 296 293 292 291 288 287 287 286 283 282 282 281 281 280 279
311 315 315 317 315 314 316 314 315 315 316 317 317 314 312 310 308 308 308 307 305 301 299 295 292 294 296 297 295 292 289 288 287 287 286 284 283 282 281 281 281 281 281 280
313 315 317 313 314 312 311 312 311 312 312 313 314 313 310 310 307 306 304 300 297 291 289 287 287 287 288 291 290 288 287 286 285 284 284 284 283 284 283 282 281 281 280 279
310 311 312 311 311 310 308 308 309 309 309 309 308 308 307 305 303 300 297 291 289 287 285 285 284 283 285 285 286 285 284 284 283 283 283 283 282 282 281 281 281 280 280 279
309 310 310 310 311 308 307 307 306 303 300 298 293 291 290 289 287 286 286 285 284 282 281 281 282 281 283 284 284 284 283 282 282 280 280 280 280 280 280 279 279 279 278 278
307 307 306 307 308 302 301 298 297 294 291 290 288 287 285 284 283 282 281 281 280 280 280 280 281 282 283 284 284 281 280 280 279 279 279 279 278 278 278 278 277 277 276 276
299 299 299 299 299 297 294 292 290 288 287 285 284 284 283 282 281 281 280 280 279 279 279 279 280 280 280 280 279 279 278 278 278 278 278 277 277 276 276 276 276 276 275 274
292 292 292 292 292 291 289 287 286 285 284 283 282 281 281 280 280 279 279 278 277 277 276 277 277 277 277 277 277 277 277 276 276 276 276 275 275 275 275 275 275 274 273 273
289 289 288 287 286 286 286 284 284 283 282 282 281 281 280 279 278 278 278 277 277 276 276 275 275 275 275 275 275 275 275 275 275 275 275 274 274 274 273 273 273 273 272 271
286 286 285 284 284 283 283 283 282 282 281 281 280 280 279 278 278 277 277 277 276 276 275 275 274 274 274 274 274 274 274 274 273 273 273 273 273 273 272 272 271 271 270 270
284 284 284 283 283 283 282 282 281 281 281 281 280 279 279 278 277 277 276 276 276 275 274 273 273 272 273 274 274 273 273 273 272 272 272 272 271 271 271 270 270 269 269 268
284 283 283 282 282 282 281 281 281 281 280 280 280 280 280 279 278 277 277 277 276 275 273 272 272 271 273 273 272 272 271 271 271 270 270 270 269 269 269 269 268 268 268 267
284 283 283 282 282 282 282 281 281 280 279 279 279 279 278 277 276 276 276 275 274 273 272 271 271 271 271 271 271 270 269 269 269 269 268 268 268 267 267 267 267 267 266 266
280 280 282 282 282 282 282 281 280 279 278 277 277 277 276 276 275 274 274 274 272 272 271 271 270 270 270 269 268 268 268 268 268 268 267 266 266 265 265 265 265 264 264 263
279 278 278 277 277 277 278 277 277 278 277 277 276 275 275 274 274 273 273 272 272 271 271 270 270 269 268 268 268 267 267 266 266 266 265 265 264 264 263 263 263 262 262 261
276 276 276 276 275 274 274 274 274 274 275 274 273 273 273 272 272 272 271 271 270 269 269 269 268 267 267 266 266 266 265 265 265 264 264 263 263 262 262 261 261 261 260 260

GFSNGP_925_thetae_060.txt.gz
Theta_e
319 317 318 320 321 320 319 320 321 321 323 322 321 321 319 316 316 315 315 320 321 322 321 325 329 328 328 328 328 327 328 327 327 327 326 325 324 324 325 323 321 321 317 314
320 318 318 319 319 321 321 319 320 321 323 321 319 318 318 317 317 316 314 318 322 323 323 327 327 327 327 327 329 329 328 326 325 322 321 321 321 321 318 316 314 314 311 309
322 317 318 320 319 319 320 320 320 322 320 321 321 320 319 317 317 316 315 314 321 323 324 328 326 326 325 323 325 325 322 317 316 317 315 314 315 313 312 310 309 308 305 305
320 315 324 319 318 318 318 319 318 317 316 318 318 318 315 316 317 315 314 312 315 323 324 328 325 323 322 320 318 318 316 315 313 313 311 309 308 307 305 306 305 303 302 301
321 322 320 320 319 318 319 319 317 317 315 314 313 314 317 314 313 313 313 313 318 323 326 326 323 321 320 319 317 316 314 313 312 311 307 305 303 304 303 302 300 300 300 300
317 320 324 318 317 317 318 319 316 316 317 317 315 314 313 314 317 317 318 320 321 322 322 322 321 318 317 315 313 312 311 309 308 306 304 303 303 302 301 301 301 300 300 299
318 321 319 318 319 317 321 319 317 318 318 317 316 314 313 315 318 317 318 318 320 321 320 316 316 315 312 310 310 309 308 307 306 305 305 304 303 302 301 301 300 299 298 297
317 321 320 319 321 321 317 318 320 320 317 316 315 315 314 317 316 315 315 315 317 316 314 314 315 314 309 308 308 307 305 305 304 304 303 303 302 301 301 299 297 294 292 289
315 316 316 317 319 320 317 318 319 318 318 319 316 316 315 316 315 314 314 312 314 312 310 311 312 312 306 305 306 305 304 303 302 303 302 302 301 299 296 294 292 289 288 285
318 316 317 315 316 318 317 317 318 316 317 316 318 316 316 313 312 311 310 310 310 309 307 306 308 307 307 305 305 304 302 301 301 301 299 298 298 297 294 292 290 288 286 284
316 315 315 315 316 315 314 317 317 315 315 315 315 316 315 313 311 309 308 309 309 307 306 304 305 304 303 304 304 301 300 299 297 295 294 291 291 291 290 289 290 288 286 285
315 314 313 314 313 316 314 314 315 315 315 314 315 315 315 312 310 309 308 307 306 303 302 301 301 301 301 301 302 300 294 291 291 290 287 285 284 282 282 284 285 285 284 284
312 311 312 313 311 311 314 313 314 314 314 314 315 315 312 309 308 306 306 304 301 294 292 293 294 295 297 299 298 293 288 286 285 285 284 283 282 282 281 281 282 281 281 280
307 311 314 310 311 309 309 309 309 309 308 307 310 312 308 306 305 302 297 292 290 289 287 287 287 287 288 290 290 287 286 285 285 284 283 283 283 283 283 282 282 281 281 279
305 307 308 308 308 307 306 306 304 299 297 295 296 303 303 299 294 291 288 287 286 285 284 284 284 284 285 285 285 284 284 283 284 284 284 284 283 282 282 282 281 281 280 279
305 304 305 305 302 300 301 300 297 294 292 290 289 287 286 286 285 284 283 284 284 283 283 282 282 283 285 286 285 285 284 284 284 283 281 281 281 280 280 280 279 279 279 278
303 303 302 303 298 296 294 292 291 289 288 287 286 285 284 283 282 281 281 281 281 281 281 282 282 284 284 285 284 282 281 281 281 280 279 279 278 278 278 278 277 277 276 276
295 295 296 296 296 293 290 288 287 286 285 283 283 282 282 281 281 280 279 278 278 278 278 279 280 280 280 280 280 280 279 279 278 278 277 277 276 276 276 276 276 275 274 274
290 289 289 288 288 287 286 285 284 283 282 281 281 280 280 279 279 278 278 277 277 276 276 277 278 278 277 278 278 277 277 277 276 276 275 275 275 275 274 274 274 273 273 272
285 285 284 284 284 284 284 283 282 281 281 280 280 279 278 278 278 277 277 276 276 275 275 275 275 275 275 275 275 275 275 275 275 274 274 274 274 273 273 273 272 272 271 271
284 283 283 282 282 282 282 281 281 281 280 279 279 278 278 277 277 277 277 276 274 274 274 274 274 274 274 274 274 274 273 273 272 272 272 272 272 271 271 270 270 270 269 269
283 283 282 282 282 282 281 281 281 280 280 279 278 278 277 277 276 276 276 274 273 273 273 273 273 273 273 273 272 272 271 271 271 271 270 270 269 269 269 268 268 268 267 267
283 282 282 282 281 281 280 279 279 279 279 278 278 278 278 277 277 277 274 273 272 272 271 271 272 272 271 271 270 270 269 269 269 268 268 268 267 267 266 266 266 266 266 266
282 282 282 282 281 280 280 279 278 278 277 277 277 276 276 275 274 273 273 272 271 271 270 270 270 270 269 269 268 268 268 268 267 267 267 266 266 265 265 265 264 264 264 263
278 278 278 278 278 278 279 278 277 277 276 275 275 274 274 274 273 272 272 271 271 270 270 269 269 268 267 267 267 267 266 266 266 265 265 265 264 264 263 263 263 262 262 261
277 276 275 275 275 275 275 276 276 275 274 273 272 272 273 272 272 272 271 270 270 269 269 268 267 267 267 266 266 265 265 265 264 264 263 263 263 262 262 261 261 260 260 259
273 274 274 273 272 272 272 272 272 272 271 270 269 270 271 271 270 270 269 268 268 268 267 266 265 265 264 264 264 264 264 263 263 262 262 262 261 261 260 260 260 259 258 258

GFSNGP_925_thetae_063.txt.gz
Theta_e
319 320 320 319 319 317 318 318 320 319 320 319 319 319 317 316 316 315 313 316 317 318 317 319 323 323 323 323 324 324 324 324 325 325 325 325 325 325 325 325 325 323 321 322
318 319 318 320 317 317 317 317 317 318 318 317 318 317 317 317 316 315 314 313 317 319 319 321 324 324 323 324 323 324 325 325 325 325 325 325 324 322 323 322 321 321 320 319
318 318 317 319 319 318 316 318 318 319 318 318 319 318 318 317 316 315 314 312 315 318 320 322 327 327 325 325 324 324 324 325 325 324 322 321 321 321 320 317 315 313 312 311
315 316 320 319 314 316 317 317 317 317 317 317 317 317 317 315 315 315 315 313 313 316 319 323 326 325 324 325 326 325 325 324 322 320 316 316 316 314 310 310 310 310 308 308
315 317 316 313 316 317 318 318 316 317 316 316 314 312 311 311 310 312 313 313 311 315 320 323 323 323 321 322 322 321 319 318 317 316 314 312 309 308 307 307 306 305 304 303
317 318 316 311 313 312 317 319 315 316 317 317 315 313 312 311 312 311 309 312 315 320 323 322 321 321 318 318 319 317 315 315 314 312 310 307 307 305 305 305 303 301 300 299
316 316 315 314 316 318 324 320 319 319 318 315 315 315 313 311 314 316 316 318 319 321 321 320 319 319 315 314 314 313 313 312 310 308 307 307 305 303 301 299 299 298 297 296
312 315 317 316 315 317 316 316 319 318 318 317 316 313 312 312 314 316 317 317 318 316 314 316 317 317 311 309 309 311 310 308 307 306 305 303 301 299 299 299 297 294 293 291
312 314 313 313 313 313 314 318 316 317 317 315 315 315 314 313 314 314 316 314 315 312 310 312 313 313 309 306 309 307 305 303 303 302 301 301 301 299 297 297 293 289 288 285
313 312 312 312 314 315 318 318 316 315 315 315 315 314 314 313 313 312 310 310 310 310 308 306 310 309 308 306 306 305 302 300 299 300 299 298 297 298 296 292 289 287 285 283
309 312 312 314 313 313 314 315 316 316 315 315 315 314 315 314 312 310 309 309 310 308 305 303 306 306 305 304 304 301 298 296 295 296 296 293 291 290 291 290 291 289 286 285
310 312 311 313 312 312 315 314 314 314 313 313 315 315 314 313 310 308 307 306 304 303 302 301 301 301 302 302 302 298 293 292 291 290 288 287 286 284 287 288 289 289 287 286
310 307 307 310 309 308 311 310 310 309 306 308 307 311 313 308 305 304 302 299 296 294 294 294 294 295 297 298 298 295 292 289 287 285 284 283 283 282 281 281 281 281 281 281
305 306 311 310 309 306 306 304 301 298 295 294 298 304 304 303 297 294 291 290 289 288 288 288 288 287 289 291 292 289 287 285 284 284 283 283 283 283 283 282 281 280 281 280
301 305 305 304 301 299 299 298 296 293 291 289 288 289 290 289 287 286 286 285 285 285 285 285 285 284 285 285 285 284 284 284 284 284 284 284 284 284 283 282 282 281 279 279
299 303 303 300 298 296 294 294 291 289 288 286 285 284 284 284 283 283 283 284 284 283 283 283 283 283 285 286 285 285 284 284 284 283 283 282 282 281 281 280 280 280 279 278
299 300 299 301 296 292 291 289 288 287 286 285 284 283 282 281 281 280 280 280 280 280 280 280 280 283 284 284 283 282 281 281 281 280 279 279 279 278 278 278 277 277 277 276
292 291 291 291 291 289 287 286 285 284 284 283 282 281 280 280 280 279 278 278 278 277 278 278 279 280 281 281 280 279 279 278 278 277 277 276 276 276 276 276 275 275 274 274
286 286 286 286 285 284 284 283 282 281 281 280 279 279 278 278 277 277 277 276 276 276 276 277 277 277 277 278 278 277 276 276 275 275 275 275 274 274 274 274 273 273 272 272
284 283 283 283 282 282 282 281 280 280 279 279 278 278 277 276 276 275 275 274 274 274 275 275 275 275 275 275 275 275 274 274 273 273 273 273 272 272 272 271 271 271 270 269
282 282 282 281 281 281 280 280 279 278 278 278 277 277 277 276 276 275 274 274 273 274 274 274 274 274 273 273 273 272 272 272 271 271 271 270 270 269 269 269 269 268 268 267
282 281 281 280 280 280 279 279 279 279 278 278 277 277 276 275 274 273 273 272 272 273 272 272 272 272 272 271 270 270 270 270 269 269 268 268 268 267 267 267 266 266 266 266
282 281 281 280 279 279 278 278 278 277 277 276 276 275 275 275 274 273 272 271 271 271 271 270 270 270 269 269 269 269 268 268 268 267 267 266 266 265 265 265 264 264 264 264
280 280 280 280 279 278 278 277 277 276 276 275 274 274 274 272 272 271 270 270 270 269 269 268 268 268 267 267 267 267 266 266 266 265 265 265 264 264 263 263 263 262 262 262
277 277 277 277 277 277 277 276 275 274 273 273 272 272 272 271 271 270 270 269 269 269 268 268 267 267 266 266 266 265 265 265 264 264 264 263 263 262 262 261 261 260 260 260
275 274 273 273 274 274 274 273 272 271 271 270 270 271 271 270 270 270 269 268 268 267 266 266 265 265 265 265 264 264 264 263 263 262 262 262 261 261 260 260 260 259 259 258
272 272 272 271 271 271 271 270 269 268 270 270 269 269 269 268 268 268 267 267 266 265 265 264 264 263 263 263 263 263 262 262 262 261 261 260 260 260 259 259 258 258 258 257

GFSNGP_925_thetae_066.txt.gz
Theta_e
322 319 319 319 317 317 320 315 318 318 317 316 316 317 316 315 315 314 313 311 312 314 318 320 321 322 321 320 319 318 318 319 318 318 318 318 318 319 320 320 322 323 322 322
317 317 317 317 315 317 318 316 316 315 316 315 315 315 315 315 315 314 314 313 312 314 314 316 320 321 322 322 321 320 320 320 321 321 321 321 321 322 322 322 322 322 322 322
315 315 315 314 317 313 313 315 316 317 316 315 316 316 315 315 314 315 314 314 312 313 316 316 317 320 321 321 321 321 321 321 322 322 322 322 323 323 323 321 321 321 320 317
312 312 317 310 316 313 316 313 311 312 314 315 315 315 315 314 314 314 313 313 313 311 314 318 319 320 321 321 321 321 322 322 323 323 323 322 322 322 319 318 317 313 312 311
311 314 312 311 309 313 314 312 311 315 315 314 314 312 310 310 311 313 313 313 312 312 313 317 321 323 324 324 322 321 321 322 323 322 321 319 316 315 314 311 309 308 307 306
313 314 311 308 314 317 318 315 317 318 319 317 315 316 316 312 310 309 308 307 307 309 315 319 321 322 323 323 324 323 322 320 319 320 318 316 313 309 308 307 304 303 302 302
316 317 313 310 314 317 323 312 313 316 316 316 316 313 312 310 310 310 314 315 316 316 317 319 318 320 321 320 320 319 318 317 316 314 313 310 308 306 303 301 299 298 297 296
313 316 314 313 313 316 315 311 311 313 315 315 315 313 313 311 312 313 315 317 317 316 315 316 318 318 317 315 312 313 314 313 311 310 307 305 304 300 299 297 293 292 292 290
310 310 309 311 310 312 311 311 312 315 314 313 313 313 311 313 311 312 314 313 312 311 310 313 315 314 309 307 311 311 309 305 303 303 301 300 299 296 294 293 291 289 287 285
310 309 309 308 308 310 311 312 313 315 313 315 314 313 312 312 311 310 311 310 311 310 307 306 310 310 308 309 309 306 302 300 300 298 297 296 296 296 294 292 290 288 286 284
308 307 309 308 310 310 310 312 315 316 314 313 313 313 313 313 311 309 308 307 308 306 303 303 305 304 304 305 305 301 298 296 295 295 294 293 293 293 294 294 296 293 289 287
308 309 308 309 308 308 309 310 309 311 313 307 304 305 309 310 309 307 305 303 301 300 300 300 301 301 301 303 304 300 294 293 293 293 292 291 290 287 288 289 289 288 286 285
308 306 305 305 306 303 305 303 300 298 296 297 297 297 304 300 296 295 294 292 291 290 290 290 290 292 295 296 297 295 291 289 288 287 286 285 284 283 282 281 283 284 284 284
303 302 306 305 304 298 298 298 295 292 291 289 290 289 289 288 288 287 288 288 288 287 286 286 286 286 288 290 291 288 286 285 285 284 283 283 282 282 282 282 281 280 280 280
299 299 303 301 298 296 294 293 291 289 288 286 285 285 285 285 285 285 285 285 284 284 285 285 285 284 285 286 285 285 284 284 284 284 284 284 284 283 282 282 280 280 279 279
295 297 300 298 295 293 291 290 290 288 287 285 284 283 282 282 282 281 281 281 282 281 281 281 281 282 283 284 283 283 282 283 283 282 282 282 282 281 281 281 280 279 278 277
295 297 294 295 292 289 288 287 287 286 285 284 283 282 281 281 280 279 279 278 278 278 278 279 279 281 281 281 281 280 280 280 280 279 279 279 278 278 278 278 277 276 275 275
290 288 288 289 288 287 285 284 284 283 282 280 279 279 278 278 278 277 277 277 277 276 277 277 278 279 279 279 279 278 278 277 277 276 276 276 276 276 276 275 275 274 273 273
285 285 285 284 284 283 282 282 281 280 279 278 277 277 276 276 276 275 275 275 275 276 275 276 277 277 276 277 277 276 276 275 275 274 274 274 273 273 273 273 272 272 271 271
283 282 282 281 281 280 280 279 279 278 278 277 276 276 275 275 274 274 274 273 274 274 274 274 274 274 274 275 275 274 273 273 273 272 272 271 271 271 270 270 270 269 269 268
281 280 280 280 280 279 278 278 278 277 277 276 275 274 274 274 274 273 273 273 272 273 273 273 272 272 272 272 272 272 271 271 271 270 270 269 269 268 268 268 267 267 267 267
281 280 280 279 279 278 278 277 277 277 276 276 275 274 274 273 272 272 272 272 271 271 271 270 270 270 270 270 270 269 269 268 268 268 267 267 266 266 265 265 265 264 265 265
280 280 279 278 278 277 276 276 275 275 275 274 273 273 273 273 272 272 271 270 269 269 268 268 268 268 268 268 268 267 267 267 266 266 265 265 264 264 263 263 263 263 262 262
279 279 279 278 277 277 276 275 275 274 274 273 272 272 271 271 270 269 269 268 268 268 267 267 267 267 266 266 266 265 265 265 264 264 264 263 263 262 262 261 261 261 261 260
276 276 276 276 276 276 275 274 272 272 272 271 270 270 269 269 269 268 268 268 267 267 266 266 265 265 265 265 264 264 264 263 263 263 262 262 262 261 261 260 260 259 259 259
274 273 272 272 272 272 271 271 270 270 270 268 268 269 269 269 268 268 267 267 266 265 265 264 264 263 263 263 263 263 263 262 262 261 261 261 260 260 259 259 259 259 259 258
270 271 271 270 269 270 270 269 269 267 269 268 267 267 267 267 267 266 266 265 264 264 263 263 263 262 262 262 262 262 261 261 261 260 260 260 259 259 259 259 259 258 258 258

GFSNGP_925_thetae_069.txt.gz
Theta_e
318 318 320 318 318 316 315 318 322 320 318 317 317 318 319 319 319 317 317 317 315 317 319 322 323 322 322 320 318 318 317 317 317 317 316 316 316 315 315 315 316 317 317 319
319 318 318 318 317 316 315 317 317 316 318 316 317 316 316 317 317 317 318 317 317 315 316 319 322 323 322 321 319 318 318 318 318 317 317 316 316 316 316 316 318 320 321 321
317 316 316 315 315 315 317 315 317 317 315 312 314 315 317 318 319 318 318 317 318 317 317 317 318 321 322 322 321 319 319 319 319 318 318 318 317 317 317 318 319 321 321 321
316 314 316 310 311 313 315 315 315 313 314 318 318 317 316 316 317 318 317 317 317 317 316 316 317 318 321 322 322 321 321 320 320 320 320 320 320 320 320 321 321 320 321 321
317 316 313 311 310 311 314 314 316 319 319 318 317 316 316 315 314 315 315 316 316 315 315 314 316 317 319 321 322 322 322 321 321 321 322 322 322 321 321 320 320 318 316 314
316 316 315 310 312 317 315 315 316 316 316 318 317 321 319 317 315 314 313 311 311 311 311 312 314 318 320 321 321 322 322 322 322 322 322 320 319 318 317 316 313 310 307 306
315 315 315 312 312 318 317 316 315 314 314 316 317 316 316 315 315 314 314 315 318 317 314 316 318 320 323 323 322 321 319 319 319 319 318 317 316 314 311 307 304 301 300 297
313 315 314 311 314 316 312 314 313 314 314 316 315 315 315 314 315 314 315 317 317 317 316 315 318 321 321 318 315 317 317 316 315 315 314 311 310 305 303 301 296 293 292 292
314 314 311 312 314 311 311 313 313 313 314 314 315 315 314 314 314 313 313 315 313 314 312 312 314 316 310 309 313 312 311 309 308 307 305 304 302 297 294 293 291 288 287 285
310 309 309 309 309 311 310 311 312 313 313 314 316 314 314 313 314 312 312 312 311 310 309 307 308 310 310 310 309 307 302 300 300 299 298 297 296 295 293 292 290 288 287 284
309 308 309 309 309 308 308 309 307 305 307 310 308 309 309 310 308 308 307 306 305 304 303 301 302 303 305 306 306 302 298 296 295 294 294 292 292 292 292 292 294 291 288 286
310 308 307 307 308 305 304 304 301 299 299 298 297 299 305 298 297 296 297 297 298 296 294 292 292 293 296 300 301 297 294 292 292 291 290 288 287 286 288 290 291 290 289 289
307 304 305 306 306 299 300 300 297 295 293 293 292 292 293 292 290 290 290 290 290 290 290 289 288 288 291 293 295 293 290 288 288 287 286 285 285 284 283 283 283 284 284 283
300 301 306 305 304 298 296 295 293 291 289 288 288 288 288 288 288 287 286 286 286 286 286 287 287 286 287 288 288 286 285 285 285 284 284 283 283 282 282 282 281 281 280 280
295 296 298 300 297 294 293 293 291 289 288 286 285 285 285 285 284 283 284 283 283 283 283 283 283 283 284 285 285 285 285 284 284 284 284 283 283 282 282 281 281 280 279 279
293 295 296 296 292 290 290 289 289 287 286 285 284 283 282 281 280 280 280 280 280 280 280 280 280 280 281 282 281 281 281 281 282 282 282 282 282 282 282 281 280 279 278 277
291 292 291 292 290 288 287 286 286 284 283 282 282 281 280 279 278 278 278 277 277 277 277 277 278 279 280 280 280 279 279 279 279 279 279 279 279 279 279 279 278 277 276 275
287 287 286 287 287 285 284 283 282 281 280 279 278 278 277 277 277 277 277 277 276 276 276 276 277 278 278 278 278 278 277 277 277 276 276 276 276 276 276 276 276 275 273 272
284 284 283 283 282 282 281 280 279 278 277 276 276 275 275 275 275 275 275 275 275 275 274 274 275 276 275 276 276 276 275 275 274 274 274 273 273 273 273 272 272 272 271 271
282 281 280 280 279 279 279 278 277 277 276 276 275 275 275 274 274 274 273 273 272 272 272 273 273 273 273 274 274 273 273 273 272 271 271 271 271 271 270 269 269 269 269 268
280 280 279 279 278 278 278 277 276 275 274 274 274 273 273 272 273 273 273 272 271 271 271 271 271 271 271 271 271 271 270 270 269 269 269 268 268 268 267 267 266 266 266 265
279 279 278 278 277 277 276 276 275 275 275 274 274 273 273 273 271 270 270 270 269 269 269 269 269 269 269 269 268 268 268 267 267 267 266 266 265 265 264 264 264 263 263 262
279 278 278 277 277 276 275 274 274 274 273 272 272 271 271 271 271 271 269 268 268 267 267 267 267 267 267 267 266 266 266 265 264 264 264 263 263 263 262 262 261 261 261 261
278 278 277 277 276 275 275 274 274 273 272 271 270 270 270 269 268 268 267 267 267 266 266 266 266 265 265 265 265 264 264 264 263 263 263 262 262 261 261 260 260 260 260 260
276 276 275 275 275 274 274 273 272 271 271 270 269 268 268 268 268 266 266 266 265 265 264 264 264 264 264 264 264 263 263 262 262 262 262 261 261 260 260 260 259 259 259 259
274 273 272 272 272 272 271 271 271 270 270 268 267 266 267 267 267 266 265 265 264 264 263 263 263 263 263 263 262 262 262 261 261 261 261 260 260 259 259 259 259 259 258 258
271 271 271 270 269 269 269 269 268 267 266 266 266 265 266 266 265 265 264 264 263 263 262 262 262 262 262 262 262 261 261 261 261 260 260 260 259 259 259 258 258 258 258 258

GFSNGP_925_thetae_075.txt.gz
Theta_e
320 319 316 319 320 320 321 321 323 323 323 321 321 321 320 320 320 320 320 321 321 323 323 324 328 329 329 329 329 329 328 327 326 326 326 325 325 324 324 324 324 324 324 324
318 316 315 315 317 317 317 318 318 318 319 320 319 319 317 317 319 321 321 321 321 321 322 323 323 327 328 329 329 329 329 329 327 327 326 326 325 325 324 324 323 323 323 323
316 312 315 317 315 315 316 317 317 319 321 318 318 317 318 319 320 321 321 321 321 321 321 322 322 322 324 327 328 329 329 329 328 328 327 327 326 325 324 324 323 323 323 322
316 316 317 313 313 313 315 316 316 316 316 317 317 317 318 319 321 321 320 321 321 321 322 321 320 319 320 322 326 328 329 328 328 328 328 327 327 326 325 324 324 324 324 324
316 315 313 312 311 311 312 313 315 315 316 317 316 317 318 320 319 319 319 320 320 319 321 322 321 319 318 319 322 326 329 328 327 327 327 327 327 327 326 325 325 324 324 323
314 314 312 311 314 315 314 315 315 315 315 315 315 318 318 318 318 318 318 319 319 320 322 322 323 323 323 320 320 323 327 328 327 327 327 326 326 327 326 325 325 324 321 321
314 314 313 313 313 314 316 317 314 314 314 315 316 316 316 315 317 317 317 317 318 319 317 314 312 316 322 323 322 321 322 325 327 326 327 326 326 326 326 321 319 317 315 311
314 316 315 311 313 315 318 316 315 315 315 315 315 315 316 316 317 317 317 316 314 314 309 305 302 305 315 321 319 323 323 324 326 326 325 326 325 319 313 314 308 299 296 293
311 312 313 315 315 314 314 314 314 314 313 313 314 314 316 317 317 315 313 311 310 307 302 299 297 298 300 302 306 311 317 312 309 311 310 311 309 309 305 301 297 292 291 289
315 314 314 314 311 314 313 313 313 312 311 311 311 312 313 313 315 311 308 306 304 302 297 295 293 293 294 297 299 300 299 298 298 298 298 299 298 297 297 295 293 290 288 286
310 310 310 310 312 312 311 311 311 309 309 308 308 308 308 310 307 305 303 299 297 296 292 291 291 290 291 293 296 294 293 292 291 290 290 290 290 291 292 292 291 289 287 286
310 313 313 312 310 309 309 308 307 306 305 304 304 303 304 304 300 298 297 294 292 290 290 289 289 287 288 290 291 294 290 289 289 288 287 286 285 284 285 287 287 287 286 284
310 307 308 308 307 303 303 302 303 304 301 299 298 295 294 295 290 292 290 290 287 287 286 285 284 285 285 288 288 288 288 287 286 286 286 285 285 284 284 283 283 283 283 283
303 303 307 304 303 299 299 298 297 297 295 292 290 289 288 286 285 284 284 283 283 283 282 282 282 282 283 284 285 286 285 285 284 284 283 283 283 283 282 282 282 282 282 282
299 299 300 298 295 294 293 294 294 292 289 288 285 284 283 282 281 280 281 281 281 281 281 281 282 282 282 283 283 284 284 284 284 284 283 283 283 282 282 282 281 281 280 280
295 298 297 296 295 293 292 292 291 289 287 285 284 282 281 281 280 279 279 279 279 280 280 279 280 281 283 284 284 283 283 283 284 284 284 284 283 282 282 282 281 281 280 280
293 295 293 294 293 290 288 287 287 285 284 282 281 281 281 280 279 279 279 278 278 278 278 279 279 280 280 281 282 282 282 282 282 281 281 281 281 280 279 279 278 277 277 277
290 288 288 289 289 288 286 285 283 282 281 280 279 279 279 278 279 278 278 278 278 277 277 277 278 278 279 280 280 279 279 279 279 279 279 280 280 279 278 277 277 276 275 275
287 287 286 286 285 284 283 282 281 280 279 279 278 277 277 276 276 276 275 276 276 275 275 276 277 277 277 278 279 278 279 278 278 277 277 276 276 276 276 276 275 275 274 274
284 283 283 282 282 281 280 279 279 278 278 278 277 277 277 277 277 276 275 273 273 273 272 273 274 274 275 276 277 277 277 277 276 275 275 275 275 275 274 274 274 273 273 272
281 280 280 280 279 279 278 278 278 277 276 276 275 274 274 273 272 275 275 274 271 272 271 271 271 273 273 273 274 274 274 274 274 274 274 273 273 272 272 272 272 272 271 270
281 280 280 279 278 278 277 277 276 276 276 276 276 277 276 275 273 272 271 272 270 270 270 269 269 269 271 272 272 271 271 271 271 271 271 271 271 271 270 270 270 269 269 269
280 280 279 278 278 277 276 275 275 275 275 274 274 274 273 273 272 272 271 269 268 268 268 267 267 269 270 270 270 270 270 270 269 269 269 269 269 269 268 268 268 267 267 267
280 279 279 278 278 277 277 276 275 274 274 273 272 273 274 274 272 271 269 268 268 267 266 266 267 268 269 269 269 268 269 269 269 268 268 268 267 267 267 266 266 266 265 265
279 279 279 279 278 277 277 276 275 275 274 273 272 272 271 270 270 269 269 268 266 268 267 266 266 267 268 267 267 268 267 266 266 267 267 267 266 266 266 265 265 264 264 264
278 277 277 277 277 277 277 277 276 275 274 273 272 271 270 270 269 269 268 267 267 267 267 267 266 267 267 267 267 266 267 266 266 265 266 266 265 265 264 263 263 263 262 262
277 277 277 276 275 274 275 275 275 274 273 272 271 271 270 270 269 269 268 268 268 268 268 267 267 265 265 266 266 266 266 266 264 263 264 264 264 264 263 262 262 261 261 260

GFSNGP_925_thetae_078.txt.gz
Theta_e
315 320 320 322 323 322 325 325 326 324 325 324 323 322 322 320 320 320 321 322 322 322 322 322 324 330 330 331 331 330 329 328 327 327 327 327 326 326 326 327 327 326 325 324
314 314 319 317 316 317 320 321 319 321 324 322 321 320 318 319 319 322 322 321 321 321 322 322 322 322 326 330 331 331 330 330 328 327 326 327 327 326 326 326 326 326 326 325
314 313 315 318 316 316 316 317 317 318 318 320 319 319 318 318 321 321 320 320 321 320 321 322 323 324 322 320 326 330 331 330 330 329 327 327 327 327 326 326 325 325 325 325
317 315 318 315 314 314 315 315 316 317 318 318 317 317 317 318 320 319 318 319 320 320 322 323 323 320 321 323 321 322 330 330 330 330 329 328 328 327 327 326 325 325 325 325
317 315 313 312 312 311 312 313 314 315 316 316 315 316 318 317 318 318 318 318 320 320 319 316 313 312 315 319 323 324 320 329 330 330 329 329 329 328 327 327 326 325 325 324
316 315 314 312 311 314 314 314 316 316 316 315 315 319 318 316 316 317 318 317 317 316 313 308 305 306 310 316 316 314 316 323 326 329 329 329 328 328 328 327 326 326 325 325
315 315 313 311 315 315 317 319 315 315 316 316 317 316 315 315 316 317 316 314 313 312 308 302 300 302 304 305 304 306 310 318 317 323 328 328 328 328 328 328 327 325 320 315
314 314 315 312 313 316 319 317 315 315 314 315 314 314 314 315 317 315 312 311 309 308 304 298 297 298 299 299 299 301 303 305 305 307 312 323 327 326 325 322 313 307 304 303
312 312 312 315 317 315 314 315 314 313 312 312 312 312 312 312 314 311 309 305 303 303 300 296 295 294 295 295 297 297 297 295 294 298 298 302 308 311 310 311 306 298 296 293
315 312 314 315 314 313 312 312 311 310 310 309 309 309 309 310 307 305 303 300 298 297 295 294 292 292 291 291 294 294 293 292 291 289 289 291 293 296 298 297 294 292 290 287
314 313 313 312 311 310 310 309 308 307 306 305 304 303 303 304 300 298 296 294 293 291 290 289 288 288 288 289 291 292 290 290 289 287 287 286 285 287 289 291 293 289 287 286
316 311 313 310 307 306 306 305 305 305 303 301 299 298 296 294 291 290 289 288 287 286 286 285 285 285 286 287 289 290 289 287 287 286 286 285 285 284 284 285 286 286 285 286
307 305 308 306 302 301 302 301 301 300 298 296 293 291 290 288 286 285 284 283 283 283 283 283 284 284 284 286 286 285 286 285 285 284 284 284 284 284 284 283 283 283 283 283
301 303 307 301 300 297 297 298 297 294 292 289 288 286 285 283 282 282 282 282 282 281 282 282 283 284 284 284 285 284 284 284 284 283 283 282 282 282 282 282 281 281 281 282
297 300 299 298 297 296 295 295 295 291 289 287 285 284 283 282 281 281 281 281 281 280 281 281 282 282 284 284 284 284 284 284 284 283 283 283 282 282 281 281 280 280 280 280
295 297 297 296 294 292 291 290 289 287 286 285 283 282 282 281 280 279 279 279 279 279 279 279 279 281 281 282 283 283 282 282 282 282 281 280 280 279 279 278 278 279 280 279
293 293 292 293 292 289 287 286 286 284 283 282 282 281 281 280 279 279 278 277 277 277 278 278 278 279 280 281 280 280 280 280 281 281 280 279 278 278 277 277 276 276 276 275
290 289 289 289 289 287 286 284 283 282 281 280 279 278 277 277 277 276 276 275 275 274 275 276 277 277 278 279 279 279 278 278 278 278 278 278 278 277 277 277 276 275 274 273
286 286 285 285 285 284 283 281 281 280 279 278 278 277 277 276 275 274 274 274 273 273 272 274 275 275 276 277 278 278 277 277 277 277 276 276 276 275 275 275 274 273 273 272
284 282 282 281 281 280 280 279 278 278 277 276 276 275 274 275 276 274 273 272 272 272 271 272 274 273 274 275 275 275 275 276 275 275 274 274 274 274 274 274 273 273 272 271
281 280 280 280 279 279 278 278 277 277 276 275 275 274 273 272 272 273 274 272 271 271 270 271 271 272 272 273 273 273 273 273 273 273 273 273 272 272 272 271 271 271 270 270
281 280 279 279 278 277 277 276 276 275 275 275 275 276 275 274 272 270 269 270 269 269 269 269 270 270 271 272 271 271 271 271 271 271 271 271 270 270 270 269 269 269 269 268
280 279 279 278 277 276 276 275 275 275 275 275 275 274 273 272 272 271 270 269 268 268 268 268 268 270 270 270 270 270 270 270 269 269 269 269 269 268 267 268 268 267 266 267
280 280 279 279 278 278 277 276 275 274 274 273 272 272 274 273 271 270 269 268 269 268 266 267 268 268 268 269 269 268 267 268 269 268 268 268 268 268 267 266 266 265 265 265
280 280 279 279 278 277 277 276 276 275 274 274 273 272 271 270 269 269 269 268 268 269 268 267 268 268 268 268 267 268 268 267 266 267 267 267 266 266 265 265 264 264 264 264
279 279 278 278 278 278 278 278 277 276 275 273 272 272 271 270 270 270 269 269 268 269 268 268 266 267 267 267 267 267 267 266 265 265 266 266 265 265 264 263 263 263 262 262
279 278 278 277 276 275 275 276 276 275 274 273 272 272 271 271 270 270 269 269 269 268 268 268 268 267 266 266 266 266 266 266 265 264 264 265 264 264 263 262 261 261 261 260

GFSNGP_925_thetae_081.txt.gz
Theta_e
315 315 316 322 321 322 324 323 326 325 327 325 325 325 324 321 320 320 320 320 319 319 320 321 322 323 323 324 329 328 326 326 326 326 326 326 325 324 324 325 324 324 323 322
314 313 313 316 319 320 319 322 322 322 323 322 320 320 321 321 320 320 319 319 319 321 322 321 318 317 318 320 321 328 328 327 326 326 326 326 326 325 325 325 325 325 324 323
313 313 317 317 315 316 318 322 321 322 320 320 320 321 317 319 318 317 317 319 321 319 317 315 312 311 312 315 320 322 324 328 328 327 326 326 326 326 325 325 325 326 325 325
312 313 317 317 315 315 316 316 315 315 318 318 317 316 315 315 316 317 319 319 317 314 311 308 307 307 308 313 311 313 314 316 320 327 327 326 325 326 326 326 325 324 325 325
312 313 314 312 313 312 312 313 315 313 317 315 315 314 314 314 314 316 316 315 312 308 305 303 302 302 306 307 307 307 308 310 315 313 316 324 326 325 326 326 325 324 324 324
309 316 313 312 313 314 314 316 316 316 316 315 315 316 315 315 314 312 311 310 308 304 301 299 298 299 301 302 302 303 305 306 307 305 306 310 318 327 326 326 325 325 324 324
310 313 314 312 315 315 316 319 315 314 314 313 314 313 313 313 310 307 305 304 304 301 298 297 296 296 297 297 296 298 299 300 300 300 299 301 307 316 326 326 326 325 324 322
310 310 312 312 314 317 316 314 313 312 312 312 311 310 310 308 305 302 300 298 298 296 296 294 293 293 294 294 293 295 295 294 294 295 298 295 297 303 307 319 325 318 312 306
310 310 313 314 316 314 313 313 312 310 309 309 308 307 306 303 301 298 295 294 293 294 293 290 289 289 290 290 291 293 292 291 290 289 291 295 291 291 295 298 300 297 296 292
312 314 313 312 310 309 309 308 308 306 305 305 303 302 300 297 296 294 291 291 290 289 288 287 286 287 287 288 290 291 290 289 287 286 286 286 288 287 287 289 292 291 290 288
313 312 311 308 307 306 306 305 305 303 301 300 299 297 295 292 291 290 288 287 286 286 285 285 285 285 285 287 288 289 287 287 286 285 285 285 284 285 285 285 287 288 287 287
311 306 308 305 304 303 303 302 299 299 295 293 293 292 291 289 287 286 285 284 284 284 284 285 284 284 284 285 285 286 285 285 284 284 284 284 284 283 284 284 284 285 284 284
301 303 301 299 298 298 299 297 294 292 291 289 287 287 286 285 284 284 283 282 282 282 283 283 283 284 284 285 285 284 284 283 283 283 283 283 282 282 282 282 283 283 283 284
297 302 301 297 296 295 295 293 291 288 287 286 284 282 282 281 281 281 281 281 281 280 280 281 282 282 284 283 283 284 283 283 283 282 282 281 281 281 281 281 280 280 280 281
296 298 297 294 292 291 290 290 288 287 285 284 283 282 281 280 279 279 279 279 279 279 279 279 280 281 282 282 281 281 282 281 281 280 280 280 280 280 280 280 279 279 278 278
293 292 293 292 289 288 288 287 286 285 284 282 281 280 279 278 277 276 275 276 276 277 277 277 278 279 280 280 280 279 280 280 280 279 278 278 277 277 277 276 276 275 275 274
290 290 290 291 288 286 285 284 283 282 280 279 279 279 278 276 276 275 274 274 273 274 275 276 277 278 279 279 278 278 278 278 278 278 278 277 277 276 275 275 274 274 273 273
287 287 287 287 286 284 283 282 281 279 278 277 276 276 275 274 274 274 273 272 272 273 274 275 275 276 277 277 277 277 277 276 276 276 276 275 275 274 274 273 273 273 272 272
284 283 283 282 282 281 280 279 279 278 277 277 276 275 274 273 272 272 272 272 271 271 272 273 274 274 275 275 276 275 275 275 274 274 274 274 274 273 273 272 272 271 271 270
281 280 280 279 279 278 277 277 276 276 275 275 274 274 273 273 273 271 270 270 270 271 271 272 272 272 273 273 273 273 273 273 273 272 272 272 271 271 271 271 270 270 269 269
278 278 278 278 277 277 276 276 276 275 275 274 273 272 271 271 271 272 270 269 269 269 270 270 271 271 271 271 271 271 271 271 271 271 270 270 270 270 269 269 269 268 268 267
279 278 277 277 276 276 276 275 275 275 274 274 274 273 272 271 270 269 268 268 268 268 269 269 270 270 270 270 270 269 269 269 269 269 269 268 268 268 268 267 267 267 266 266
279 278 277 276 276 275 275 274 274 274 273 273 273 272 271 270 270 269 269 268 267 267 268 268 269 269 268 268 269 269 269 268 268 268 268 267 267 267 266 266 265 265 265 265
279 278 277 276 276 276 275 274 274 273 273 272 272 272 272 270 269 268 268 268 268 267 268 268 268 268 268 268 268 267 267 267 267 267 267 267 266 266 265 265 264 264 264 264
279 278 278 278 277 277 276 275 275 274 274 273 272 271 270 269 269 268 268 268 269 268 267 267 267 267 267 267 267 267 266 266 266 266 266 266 265 265 264 264 263 263 263 263
279 278 278 278 277 277 277 277 275 274 273 272 271 270 270 270 269 269 269 269 269 268 268 267 267 266 266 266 266 266 266 265 265 265 264 264 264 264 263 263 262 262 261 261
278 278 277 276 275 275 275 274 273 272 273 272 271 271 270 270 270 269 269 269 268 268 268 268 267 267 266 266 265 266 265 265 264 264 264 264 264 263 263 262 261 260 260 260

GFSNGP_925_thetae_084.txt.gz
Theta_e
314 315 315 316 318 320 321 323 326 323 324 324 324 323 323 322 321 319 322 322 322 319 316 314 314 314 315 317 322 325 323 324 323 323 323 322 322 322 323 323 323 323 322 322
311 312 312 315 313 321 320 320 321 322 321 321 323 322 322 322 322 321 322 320 317 314 312 310 310 309 312 313 315 318 322 325 324 324 323 323 323 322 322 322 322 322 322 322
313 312 312 315 315 317 320 319 319 323 320 322 323 321 321 321 320 321 319 316 312 310 307 305 304 305 308 308 309 310 311 313 318 317 322 324 324 323 323 323 322 323 322 322
312 311 313 312 309 311 317 317 319 319 320 321 318 316 315 317 319 317 313 310 307 305 302 300 300 301 303 303 304 304 305 308 309 309 310 313 316 324 324 324 323 323 323 323
309 311 310 306 308 313 312 317 316 318 319 318 316 315 313 312 312 311 309 306 302 300 299 297 297 298 299 298 298 299 299 300 301 302 304 306 306 310 316 324 324 323 324 324
306 312 311 310 311 313 314 319 314 315 316 314 315 318 313 307 304 303 303 301 298 296 295 294 294 296 297 297 296 296 296 296 295 296 296 299 299 304 306 311 322 324 324 323
307 307 310 310 314 314 317 317 313 312 312 313 313 311 306 303 300 298 297 297 296 294 292 291 291 293 294 294 294 294 293 292 291 290 291 292 293 295 300 304 310 321 323 321
307 309 310 313 314 315 314 310 310 310 310 309 307 305 301 299 296 295 294 293 293 293 290 289 289 290 291 291 291 293 291 289 288 287 287 288 289 290 293 297 299 299 299 294
308 307 311 311 313 311 310 310 309 308 307 306 304 301 299 296 293 291 290 289 289 289 288 287 287 287 288 288 289 291 289 287 286 286 285 286 286 287 288 291 292 291 291 289
312 311 310 309 307 307 306 306 304 304 303 301 301 297 294 293 290 289 288 287 286 286 286 285 285 286 286 287 288 288 287 286 285 285 284 285 285 286 285 286 288 289 289 287
311 309 308 306 304 303 301 302 298 296 296 296 295 292 291 289 288 286 285 285 284 284 284 285 285 284 285 285 286 286 286 285 285 284 284 283 284 284 285 285 285 285 285 285
307 302 305 302 301 300 298 295 294 293 290 289 290 289 288 286 285 284 283 283 283 283 283 283 283 284 283 284 284 284 284 283 283 283 283 282 283 283 282 282 284 284 284 284
303 298 297 296 294 296 294 291 290 289 287 286 285 284 283 283 282 282 282 281 281 281 281 281 281 281 282 283 283 282 283 282 282 281 281 281 281 280 280 280 279 279 281 282
299 301 297 295 293 293 291 289 287 285 284 283 282 281 281 280 279 279 279 279 279 278 278 279 280 280 280 281 281 281 280 280 280 280 280 279 279 280 279 278 278 277 276 277
294 294 293 291 290 289 289 288 286 285 284 282 281 280 279 277 277 276 276 277 277 277 277 277 278 279 280 280 280 279 279 279 279 278 278 278 277 277 276 276 275 275 276 276
292 291 291 289 287 286 286 286 285 284 282 281 279 279 277 276 275 274 274 274 274 274 275 276 277 278 278 279 279 278 278 278 278 277 277 276 276 275 275 274 274 273 272 272
289 289 290 288 286 284 284 282 281 279 278 278 277 276 275 275 274 273 273 273 273 273 274 275 276 277 277 277 277 277 277 276 276 276 275 275 274 273 273 273 272 271 271 271
285 284 284 285 284 283 282 280 279 278 277 276 275 274 273 273 273 272 272 272 273 273 273 273 274 275 276 276 276 276 275 275 275 274 274 273 273 272 272 271 271 270 269 269
282 282 282 281 281 280 279 278 277 276 275 275 274 273 272 271 271 271 271 271 271 271 271 272 273 273 274 274 274 274 274 273 273 272 272 272 271 271 270 270 269 269 268 268
279 279 279 278 278 277 276 275 275 275 274 274 273 272 272 271 270 270 269 269 269 269 271 271 271 271 272 273 273 272 272 271 271 271 271 270 270 270 269 269 268 268 267 267
275 275 275 275 275 275 275 275 275 274 274 273 272 271 270 270 271 270 269 269 269 270 270 270 270 270 270 270 271 271 271 270 270 269 269 269 268 268 268 268 267 267 267 266
276 275 275 275 275 275 275 275 274 274 274 273 272 271 270 269 268 268 268 268 268 269 269 269 269 269 269 269 269 269 268 268 268 268 268 268 267 267 266 266 266 266 265 265
277 276 276 275 275 274 274 274 274 273 273 272 272 271 270 269 269 269 268 267 268 268 268 268 268 268 268 268 268 268 268 267 267 267 267 266 266 266 265 265 265 264 264 264
277 276 276 275 275 275 274 274 273 272 272 272 272 271 270 269 268 268 268 268 267 268 268 267 267 267 267 267 266 266 266 266 266 266 266 266 265 265 264 264 263 263 263 263
278 278 277 277 277 276 275 275 274 273 273 272 271 270 269 269 268 268 268 268 268 267 267 267 267 267 266 266 266 266 265 265 265 265 265 264 264 264 263 263 263 262 262 261
278 277 277 276 276 276 276 276 275 273 271 271 270 270 269 269 269 269 269 268 268 267 267 267 266 266 266 265 265 265 265 264 264 264 264 264 263 263 263 262 262 261 261 261
278 277 276 275 274 275 275 274 273 272 272 271 270 269 269 269 269 269 268 268 267 267 267 267 267 266 266 265 265 265 265 265 264 264 263 263 263 262 262 262 261 261 260 260

GFSNGP_925_thetae_090.txt.gz
Theta_e
310 310 312 312 312 314 318 317 318 315 319 318 318 321 320 320 316 313 310 308 306 305 306 307 307 308 308 309 314 322 322 322 321 322 322 322 322 322 321 320 320 321 321 321
310 309 308 309 309 309 310 312 316 317 318 318 319 320 321 320 316 312 309 306 304 302 302 302 301 302 302 302 303 307 309 309 311 314 320 320 322 321 321 321 321 321 321 321
309 309 307 308 308 306 305 316 317 319 318 319 319 320 320 316 313 310 308 304 302 300 299 299 299 298 298 299 298 299 300 300 302 304 305 307 310 315 315 316 321 322 322 321
310 309 307 306 304 305 310 311 316 316 315 319 315 311 311 311 308 305 303 300 299 297 296 295 297 297 297 296 296 295 294 294 294 297 298 300 302 302 304 307 310 311 314 318
307 309 306 305 307 311 310 309 312 313 315 317 311 308 306 303 302 300 299 297 294 293 292 292 292 296 296 296 294 292 291 290 290 291 292 294 295 296 298 300 302 303 303 305
305 309 305 304 307 310 310 305 311 312 315 315 315 317 307 301 299 298 296 294 292 290 289 289 289 292 294 294 293 290 289 288 288 289 289 289 289 291 293 295 296 296 295 294
307 307 307 306 310 310 310 308 309 308 312 311 307 306 300 297 294 292 291 290 290 288 287 287 287 290 290 291 291 289 287 287 287 287 287 287 287 287 289 291 291 291 289 289
307 308 308 308 310 310 310 308 307 305 303 301 298 296 294 292 291 289 288 287 287 286 286 286 286 287 288 288 289 288 286 285 285 285 286 286 286 286 287 288 288 287 286 285
308 307 308 305 305 303 304 303 304 303 301 298 297 295 293 291 288 287 286 285 286 286 286 285 285 285 285 285 287 286 285 284 283 282 283 284 284 285 285 285 285 285 284 283
307 305 305 304 302 299 297 297 297 297 296 297 295 293 290 288 287 285 285 284 284 284 284 284 283 283 283 285 285 285 284 283 283 282 281 281 282 282 283 284 284 284 283 283
307 303 303 300 298 298 296 294 291 290 290 291 290 288 287 286 285 283 283 283 283 282 282 281 281 281 281 282 284 283 283 283 282 281 281 280 280 280 281 281 282 282 282 282
303 298 300 296 294 293 291 290 290 289 287 286 286 286 284 283 282 282 281 281 281 281 280 279 279 279 280 281 282 282 282 280 280 280 279 279 279 278 278 279 280 280 281 280
300 297 295 293 291 290 289 287 285 284 284 284 283 283 282 281 280 280 279 279 278 278 278 278 278 278 279 279 280 280 279 279 279 279 278 277 277 276 275 275 276 277 278 278
293 295 296 291 290 288 287 285 284 283 282 281 280 279 279 278 277 277 277 277 276 276 276 276 276 277 278 279 279 278 278 278 277 277 276 276 275 274 274 273 272 272 273 274
291 291 290 289 287 286 286 285 283 282 281 280 278 277 276 275 274 274 274 275 275 274 275 275 275 276 277 278 278 278 277 276 276 276 275 275 274 274 273 272 271 270 272 273
289 290 287 286 285 283 283 283 282 281 279 278 276 275 274 273 273 272 272 273 272 271 273 273 274 275 276 277 277 276 275 275 275 275 274 274 273 272 271 270 270 269 269 269
288 289 286 286 284 282 281 280 279 277 276 275 275 274 273 272 272 271 271 272 272 272 272 272 273 274 275 276 276 275 275 275 274 274 273 272 271 270 269 268 267 267 267 268
283 283 283 284 283 281 280 279 278 276 275 274 273 272 272 271 270 270 270 271 271 271 271 271 272 273 274 274 275 274 274 274 273 272 271 271 270 269 269 268 267 266 266 266
281 281 281 281 280 278 277 276 275 274 273 272 272 270 270 270 270 269 270 270 269 269 270 270 271 272 272 272 273 273 272 272 271 271 270 270 269 268 267 267 266 266 266 265
279 278 277 276 276 275 274 273 273 272 272 272 271 270 270 269 269 269 269 268 268 269 269 270 270 270 270 271 271 271 271 271 270 269 269 268 268 267 267 266 266 265 265 265
272 273 273 273 273 274 274 274 273 272 272 272 271 270 269 269 269 269 269 268 268 269 269 269 269 269 269 269 270 269 269 269 269 268 268 267 267 266 266 266 266 265 265 264
273 273 273 274 273 273 274 274 273 273 272 272 271 269 269 268 268 268 268 268 268 268 268 268 268 268 268 268 268 268 268 267 267 267 266 266 266 265 265 265 264 264 264 263
274 274 274 274 273 273 273 273 273 273 272 272 271 270 270 269 269 268 267 268 268 267 267 267 267 267 267 267 267 267 267 266 266 266 265 265 264 264 264 264 263 263 263 262
275 274 274 274 274 273 273 273 273 272 272 271 270 270 269 269 268 268 267 267 267 267 267 267 266 266 266 266 265 265 265 265 265 265 265 264 264 263 263 262 262 262 262 261
275 275 275 275 275 274 274 273 273 272 271 271 270 270 269 268 268 268 268 267 267 266 266 266 266 265 265 265 265 264 264 264 264 264 264 263 263 263 262 262 262 261 261 260
276 276 276 276 276 276 275 274 274 273 272 270 270 269 269 268 268 268 268 268 267 267 266 266 266 265 265 265 265 265 264 264 264 263 263 263 263 262 262 262 261 261 260 260
276 276 275 275 275 275 275 274 274 273 272 271 270 269 269 268 268 268 268 267 267 267 266 266 266 266 265 265 265 264 264 264 264 263 263 263 262 262 262 261 261 261 260 260

GFSNGP_925_thetae_093.txt.gz
Theta_e
310 311 313 312 311 311 314 315 316 313 313 314 316 320 320 317 313 311 308 305 304 303 302 302 302 302 303 305 310 320 320 320 321 321 321 322 322 322 321 320 321 321 321 320
308 309 308 309 308 309 310 311 312 313 316 316 318 316 319 315 312 309 306 304 301 299 300 300 299 299 299 299 299 301 303 305 308 314 316 316 318 321 321 321 321 320 320 321
308 309 307 305 307 305 306 307 314 315 316 317 315 312 314 312 308 305 302 300 298 297 296 296 298 298 297 296 296 295 294 296 299 301 303 304 307 310 312 314 316 317 318 320
308 309 306 305 306 306 308 309 313 315 316 318 313 307 304 305 304 302 299 297 295 294 293 293 296 297 296 294 293 292 292 292 293 294 296 297 298 299 301 303 305 305 306 307
308 307 306 305 310 309 309 308 312 313 315 316 309 306 301 300 299 298 296 294 292 291 290 291 293 294 295 294 291 290 290 290 291 291 292 293 294 294 295 298 298 295 295 296
308 306 306 306 308 310 311 306 309 310 317 316 313 316 303 296 294 293 292 291 290 289 288 289 290 292 292 292 290 289 288 289 289 289 289 290 290 291 293 294 293 290 288 288
306 306 306 308 309 309 308 309 307 306 305 307 303 302 296 292 291 289 289 289 288 288 287 287 288 289 290 290 289 288 287 287 287 288 288 288 288 288 290 290 290 288 286 285
307 308 308 307 309 311 309 306 305 303 300 298 297 295 292 290 289 288 287 287 287 287 286 285 285 287 287 288 287 286 286 284 284 285 285 286 286 287 287 287 287 286 286 286
309 310 304 303 302 300 301 301 301 300 298 297 294 292 290 289 287 286 286 286 285 285 284 284 284 284 285 286 286 285 285 283 283 283 283 284 284 285 285 285 285 285 285 284
307 304 300 300 299 297 295 293 294 295 295 294 292 290 288 287 286 285 284 284 284 284 283 282 282 282 283 284 285 284 284 284 283 282 282 282 282 282 283 283 283 284 284 284
305 301 301 296 296 295 293 292 291 289 290 290 289 287 287 286 284 283 283 282 282 282 281 281 280 280 280 282 284 283 283 282 282 281 281 280 280 280 281 281 281 282 282 282
302 297 297 294 292 291 290 288 287 288 287 286 286 285 284 283 281 281 281 281 281 280 280 279 279 278 278 279 281 283 282 281 280 280 280 280 279 278 278 278 279 279 279 280
299 296 293 291 290 289 288 286 285 284 284 283 282 282 281 281 280 280 279 278 278 278 278 278 277 277 277 278 279 278 279 279 279 279 278 278 277 278 277 275 274 275 276 277
292 294 293 290 289 287 286 284 283 282 281 280 280 279 278 278 277 277 277 277 276 276 276 276 276 275 277 278 278 278 277 277 276 276 276 275 275 275 275 275 275 273 272 273
291 290 290 288 286 285 285 284 283 282 281 279 278 277 277 276 275 274 275 275 275 274 274 274 274 274 276 277 278 278 277 276 276 275 275 274 274 273 273 273 273 272 273 272
289 288 287 286 284 283 283 283 282 280 279 277 276 275 274 274 273 273 272 272 273 272 272 273 272 274 275 276 276 275 275 275 275 274 274 274 273 273 272 272 271 270 270 269
289 288 286 285 283 282 281 280 279 277 276 275 275 274 274 273 272 272 271 271 271 270 271 271 272 274 275 275 275 274 274 273 274 273 273 272 272 271 271 270 269 268 267 266
283 283 283 283 283 281 280 279 277 276 275 274 273 272 272 271 271 270 270 271 271 271 271 271 272 273 273 274 274 273 273 273 272 272 271 271 270 270 269 268 268 267 267 266
281 281 280 280 279 278 277 276 275 274 273 272 272 270 270 270 269 269 270 270 270 271 269 270 271 271 272 272 272 272 272 271 271 270 269 269 269 268 267 267 266 266 266 265
278 277 277 276 276 275 273 273 273 272 272 272 271 270 270 269 269 269 269 269 268 269 269 269 270 270 270 270 271 271 270 270 269 268 268 267 267 267 266 266 265 265 264 264
273 273 272 272 272 273 273 273 273 272 271 271 271 270 269 269 269 269 269 270 268 268 268 269 269 268 268 269 269 269 268 268 267 267 267 266 266 266 265 265 264 264 263 263
273 273 273 273 273 272 273 273 272 272 271 270 269 268 268 268 268 268 268 269 268 268 267 267 267 268 268 268 267 267 267 267 266 266 266 265 265 264 264 264 263 263 263 262
273 273 273 273 273 273 273 273 273 272 272 271 270 270 270 269 269 269 269 267 267 267 267 267 266 266 266 266 266 266 266 266 265 265 265 264 264 263 263 263 263 262 262 261
274 274 274 274 273 273 273 273 273 272 272 271 270 270 269 269 268 267 267 267 267 267 266 266 266 266 265 265 265 265 265 265 265 264 264 264 263 263 262 262 262 261 261 261
274 274 274 274 274 275 274 273 273 272 272 271 270 270 269 268 268 268 267 267 267 266 266 266 265 265 265 265 264 264 264 264 264 263 263 263 263 262 262 262 261 261 261 260
275 276 275 275 276 276 275 274 274 274 272 271 270 269 269 268 268 268 268 267 267 267 266 266 266 265 265 265 265 264 264 264 264 263 263 263 263 262 262 262 261 261 261 260
276 275 275 274 274 273 273 273 274 273 272 271 270 269 269 268 268 268 268 267 267 267 266 266 266 266 265 265 264 264 264 264 263 263 263 263 262 262 262 262 262 261 261 260

GFSNGP_925_thetae_096.txt.gz
Theta_e
313 312 312 311 310 311 312 313 315 313 313 316 320 320 320 313 309 307 306 303 299 298 298 301 300 301 301 302 305 315 317 317 320 321 322 322 324 324 322 320 321 322 322 322
311 309 308 308 307 307 309 310 311 313 315 318 318 314 310 309 307 305 301 300 299 296 295 299 298 298 298 297 298 299 301 300 302 306 315 316 320 322 323 322 322 322 322 322
311 308 306 307 308 307 309 311 311 313 314 316 317 311 308 306 304 302 300 298 295 294 293 296 297 295 295 295 295 295 296 296 297 298 299 302 305 309 310 310 313 315 315 316
308 306 305 308 308 309 310 312 312 314 317 318 312 305 302 302 301 299 297 295 293 292 292 292 294 295 293 293 292 293 293 293 294 295 295 297 297 299 301 302 301 300 299 298
307 306 306 310 310 310 310 311 311 313 315 312 307 305 300 297 295 295 293 293 292 291 290 291 292 293 293 292 291 291 291 291 293 292 293 294 295 296 297 296 293 291 291 291
308 305 307 311 310 310 310 311 307 308 311 314 309 317 302 293 292 292 291 291 291 291 290 290 291 292 292 291 290 290 289 290 291 290 292 292 293 295 294 292 291 289 288 287
308 308 308 309 310 309 311 313 307 305 302 300 299 297 294 292 290 290 291 291 291 290 290 288 289 290 290 290 288 287 287 288 288 288 289 290 290 291 292 292 291 290 289 288
309 309 310 303 308 310 305 304 303 301 299 296 294 293 291 289 289 290 290 289 289 288 287 287 287 288 289 288 288 287 286 286 286 286 287 288 288 289 290 290 290 289 289 288
308 307 302 299 300 297 298 298 300 300 298 296 294 292 291 289 288 287 287 288 288 287 286 285 285 286 287 286 287 287 286 286 286 285 285 286 286 287 287 287 287 287 287 287
308 302 299 299 297 296 295 294 293 295 295 294 293 291 289 289 288 287 286 287 287 287 286 285 284 284 284 286 286 286 285 285 284 283 284 284 284 284 285 286 286 286 286 286
305 302 300 297 295 295 294 293 292 292 292 293 292 291 290 289 288 286 286 285 285 285 284 283 283 283 283 284 286 285 285 284 284 283 282 281 280 281 281 280 282 284 283 283
303 299 299 295 293 292 291 290 290 291 290 289 289 288 287 286 285 284 284 284 284 283 283 282 282 281 281 282 284 285 285 284 284 284 283 282 281 279 277 278 279 279 280 281
298 296 294 292 291 290 290 289 288 288 288 287 286 286 285 284 283 282 282 282 282 281 281 281 280 279 279 280 280 282 283 283 283 283 283 282 282 283 280 277 275 275 277 277
295 295 294 293 292 290 288 287 285 285 284 284 283 282 282 281 281 280 280 279 279 279 279 279 278 278 278 278 279 280 280 280 281 281 281 281 280 280 280 281 279 277 273 274
293 293 292 290 289 288 287 287 287 285 284 282 281 281 280 279 278 278 278 278 278 277 277 277 277 276 276 278 278 279 280 280 280 279 278 279 279 279 279 279 278 278 278 276
291 290 290 289 287 286 286 286 285 283 282 280 279 278 278 277 276 276 275 275 276 275 275 274 274 273 274 276 279 279 278 277 279 279 279 279 279 278 278 277 277 276 274 273
291 290 289 287 286 284 283 282 281 280 279 278 277 277 276 276 275 274 273 273 273 273 274 274 273 272 273 274 278 278 278 277 277 278 278 277 277 277 276 275 275 273 270 268
286 285 285 285 285 284 282 281 280 279 278 276 275 274 273 274 274 273 273 272 272 272 272 272 272 273 273 273 276 277 277 277 277 276 276 275 275 274 274 273 273 272 271 269
284 283 282 282 282 281 280 279 278 276 274 274 273 273 272 272 272 272 272 272 273 274 271 271 272 272 272 272 274 275 275 275 275 274 273 273 273 273 272 272 271 271 270 270
281 280 280 279 278 278 276 275 275 274 273 273 272 273 272 270 270 271 271 271 270 271 271 270 271 272 272 271 272 273 274 274 273 272 272 272 272 271 270 269 270 270 269 269
277 277 276 275 274 274 274 274 274 273 272 272 272 270 270 270 270 270 273 274 271 269 270 270 270 271 270 271 272 272 272 272 272 271 271 271 271 270 270 269 269 269 268 268
276 276 275 275 275 274 274 274 273 272 271 270 270 269 270 271 270 270 269 271 271 268 270 270 269 267 268 269 270 270 270 270 270 270 270 269 269 269 268 268 268 267 267 266
276 276 275 275 276 275 274 274 273 273 272 270 271 272 272 272 272 273 273 270 270 268 269 268 266 266 267 269 269 269 269 268 268 268 268 267 267 267 267 267 266 266 266 265
277 277 276 276 275 276 277 275 275 273 272 272 271 270 272 273 272 270 269 268 267 268 268 267 266 266 266 267 267 267 268 267 267 267 266 265 266 266 266 265 265 265 264 264
277 276 276 276 277 278 276 276 275 275 274 274 273 272 271 271 271 271 270 268 267 268 268 266 266 266 267 267 267 266 266 267 266 266 266 266 266 265 265 265 264 264 264 263
278 279 278 277 277 277 277 276 276 276 276 275 274 272 271 270 270 270 269 268 268 268 268 268 267 267 267 267 266 266 266 266 266 266 265 265 265 265 264 264 264 263 263 263
278 277 277 277 276 276 275 275 275 276 275 275 274 272 271 270 270 269 269 269 269 268 268 267 267 267 267 266 266 266 265 265 265 265 265 265 265 264 264 263 263 263 263 262

GFSNGP_925_thetae_099.txt.gz
Theta_e
316 314 315 316 317 317 318 315 316 315 315 322 319 316 311 308 306 304 302 301 300 299 297 296 296 296 297 298 301 307 309 313 319 323 323 323 323 326 325 325 325 325 325 325
312 313 312 311 310 309 310 311 312 313 320 320 317 313 309 306 304 303 301 298 297 296 296 295 295 295 294 296 297 298 299 300 303 310 313 315 318 321 322 322 323 322 323 322
311 308 308 311 309 309 311 312 313 317 319 319 314 308 306 305 302 300 298 297 295 294 292 293 292 293 292 293 294 295 296 296 297 299 301 303 306 310 310 312 313 311 311 311
309 308 310 310 311 310 313 313 312 313 313 316 308 300 299 298 297 297 296 296 295 292 291 291 292 292 292 292 292 292 292 293 294 295 296 298 299 299 299 299 299 298 297 296
308 310 310 311 311 311 312 313 310 310 312 310 303 301 297 294 295 295 294 295 294 293 291 291 291 291 292 291 290 290 291 290 291 292 293 295 295 294 293 293 291 291 291 291
309 307 311 314 310 310 311 315 309 309 308 307 306 315 299 293 293 294 293 294 293 292 291 291 291 291 291 290 289 289 289 289 290 291 292 292 292 292 291 292 290 290 289 289
309 309 313 306 307 309 313 311 306 305 302 300 298 297 294 292 292 291 293 293 292 291 290 289 290 290 290 290 288 287 288 288 289 289 290 291 291 292 292 292 291 290 289 288
312 310 313 301 308 309 303 302 302 301 300 298 296 294 293 291 290 290 291 292 292 291 289 288 288 289 288 288 289 288 288 287 288 288 289 290 290 289 291 291 290 290 289 288
308 307 301 299 299 297 298 298 299 300 299 298 295 293 292 291 289 290 291 291 291 291 289 287 287 287 288 287 288 288 287 285 285 287 285 286 287 288 288 289 289 288 288 287
307 302 300 299 298 297 297 296 297 296 297 297 295 293 292 292 291 291 290 290 290 289 288 287 286 286 286 288 287 286 286 286 284 283 283 283 283 282 283 286 286 286 286 285
303 301 300 297 296 296 296 296 296 295 295 295 295 294 294 292 291 290 289 289 288 288 287 286 285 284 285 286 287 288 287 286 285 284 282 280 279 281 281 280 282 283 282 282
304 300 300 296 294 293 293 292 293 294 294 292 292 292 291 290 288 288 287 286 286 286 285 284 283 282 282 283 285 287 286 286 285 286 285 284 281 278 278 279 279 279 280 280
300 297 295 294 293 293 293 292 292 291 291 291 289 289 288 287 285 285 285 284 284 283 283 282 281 281 281 281 282 283 284 285 284 284 284 284 284 284 281 277 276 277 277 277
298 297 297 295 295 293 292 290 289 288 288 287 286 285 284 283 283 282 282 281 281 281 280 280 280 279 279 280 281 282 282 282 283 283 283 282 282 282 282 282 281 279 276 276
295 295 294 293 292 292 291 290 290 288 287 286 284 284 283 282 281 280 280 281 281 279 279 278 277 277 278 280 280 280 281 282 282 281 281 281 282 281 281 281 280 280 279 278
293 293 292 291 290 289 289 288 288 286 284 283 282 281 280 280 279 278 277 276 278 277 276 276 276 275 276 278 281 281 280 279 281 281 281 281 281 281 280 280 279 277 275 275
293 292 291 290 288 287 286 285 284 283 281 280 280 279 279 278 278 277 276 275 274 274 275 275 274 274 275 276 279 280 280 280 280 280 280 280 280 279 279 278 278 275 272 271
289 288 288 288 287 286 284 283 282 281 280 278 277 276 276 276 276 275 275 275 275 274 273 273 273 275 274 275 277 279 279 279 279 278 278 277 278 277 277 276 276 275 274 272
287 286 285 284 284 284 283 281 279 278 276 276 276 275 275 274 274 274 274 274 276 276 274 273 273 274 274 273 275 278 278 278 277 277 276 276 276 276 276 275 275 274 273 273
284 283 282 281 281 280 279 277 277 276 275 275 274 275 274 272 272 273 274 273 272 272 272 272 273 274 273 273 274 276 276 276 275 275 274 275 275 275 273 272 273 273 273 272
280 279 278 277 277 276 276 276 276 275 274 274 274 272 272 272 272 272 276 278 273 271 272 272 271 271 272 272 274 275 275 275 274 274 274 274 274 273 273 272 272 272 272 271
279 278 277 277 277 276 276 276 275 274 273 272 271 271 272 275 273 273 271 273 274 270 272 272 270 268 269 271 273 273 273 273 273 273 273 272 272 272 272 271 271 270 270 270
279 278 278 277 278 277 276 276 275 274 273 272 272 274 275 274 274 275 276 272 272 270 272 270 267 267 269 271 271 271 271 271 271 271 271 270 270 270 270 270 269 269 269 268
279 279 278 278 278 278 279 277 277 276 274 274 272 271 273 275 276 274 272 270 269 269 269 268 267 267 268 270 270 270 270 270 270 270 269 268 269 269 269 268 268 268 267 267
279 279 279 279 280 281 279 278 278 277 277 277 276 275 273 274 273 273 272 271 269 269 271 268 267 267 269 269 269 269 269 269 268 268 269 269 268 268 268 268 267 267 266 266
280 281 280 279 279 279 279 279 279 278 278 278 278 276 275 273 273 271 272 270 270 270 270 270 270 269 269 269 268 268 268 268 268 268 267 267 268 267 267 267 266 266 266 266
280 279 279 279 278 278 277 277 276 277 277 276 276 276 274 273 273 271 271 271 271 271 270 270 270 269 269 268 268 268 268 268 268 267 267 267 267 267 267 266 266 265 265 265

GFSNGP_925_thetae_105.txt.gz
Theta_e
317 317 316 318 318 318 319 321 323 319 318 314 310 308 305 303 301 300 299 297 296 295 294 293 293 293 294 294 294 295 296 297 300 307 320 325 326 326 326 326 325 323 322 320
319 313 315 316 313 313 315 319 319 317 316 309 306 304 302 300 299 299 299 296 294 293 293 292 292 291 291 292 293 293 294 295 296 298 304 308 313 320 319 322 323 323 319 317
317 313 315 317 313 312 311 311 313 315 313 306 302 299 298 298 297 297 296 296 293 292 292 291 290 290 290 290 291 293 292 292 294 295 295 296 298 303 300 300 303 305 304 304
311 313 319 310 309 310 308 307 308 309 305 302 298 296 295 295 296 297 296 295 292 291 291 291 290 289 289 289 289 290 292 291 290 293 293 293 293 292 294 292 292 292 294 295
315 316 315 310 305 306 311 307 305 305 305 300 298 297 294 293 294 295 294 293 291 290 289 290 289 290 289 288 288 288 288 289 290 290 291 292 291 291 290 291 289 288 289 291
314 315 315 306 302 302 306 305 304 301 300 300 302 302 295 293 292 294 293 292 290 289 288 289 289 289 288 287 287 287 287 287 288 289 289 290 290 289 289 289 288 288 287 288
311 313 307 301 301 302 309 304 303 300 297 295 295 294 292 291 292 292 292 291 289 288 287 287 288 288 288 287 286 285 285 285 286 287 288 288 289 289 289 288 288 287 286 286
307 308 306 299 301 302 302 300 301 300 297 295 294 292 291 291 291 291 291 290 289 287 286 286 286 288 287 287 286 284 283 283 284 284 285 286 287 287 287 287 286 285 285 285
304 303 300 298 299 299 299 299 299 299 296 295 294 292 289 290 291 290 289 288 287 286 285 284 284 284 285 287 286 284 283 282 281 282 282 283 284 284 284 284 284 283 283 283
303 301 299 298 298 297 298 297 296 296 297 296 295 294 293 292 288 288 287 286 285 284 284 283 283 283 284 285 287 286 284 282 281 280 280 280 281 281 282 282 282 282 282 282
302 300 297 296 295 296 295 296 296 294 293 294 293 292 290 289 287 286 286 285 284 283 282 282 281 282 283 284 285 286 285 285 282 280 279 279 279 280 280 280 280 281 281 282
300 300 298 296 295 294 294 294 293 292 290 288 289 289 286 285 284 283 283 283 282 281 280 280 280 280 281 283 283 284 284 284 284 283 281 279 279 279 279 280 280 280 281 281
297 296 294 293 294 294 292 291 290 289 288 286 285 285 284 283 283 282 281 281 280 279 278 278 278 278 280 281 282 282 282 282 282 283 283 283 280 278 278 278 279 279 280 280
297 296 296 296 295 294 292 291 289 287 286 285 284 282 281 280 279 278 278 280 278 277 277 276 276 277 279 280 280 282 282 281 282 282 282 282 282 281 279 278 278 278 278 279
296 295 295 294 291 290 288 289 286 285 283 282 281 281 280 278 277 277 276 277 277 276 275 275 275 275 278 280 280 280 281 282 281 281 281 281 281 280 278 277 276 276 277 277
295 294 291 291 288 286 286 285 283 282 281 280 280 280 279 277 276 276 275 275 275 274 274 274 275 275 276 279 280 281 280 280 280 280 280 280 280 279 277 275 273 274 275 275
294 293 292 288 286 284 283 282 282 280 278 277 276 276 277 277 276 276 275 275 274 274 273 274 274 275 275 277 278 279 280 279 279 279 279 279 278 278 276 275 273 274 274 274
287 286 286 287 286 284 283 281 279 278 277 276 276 276 275 274 274 274 274 275 274 273 273 274 274 274 274 275 277 278 278 278 278 277 277 277 277 276 276 275 274 273 273 273
284 283 283 283 282 281 279 278 277 276 276 276 275 274 273 273 273 273 274 274 273 273 273 272 273 273 273 274 276 276 277 276 276 276 277 276 275 275 275 274 274 273 272 272
281 280 279 279 279 278 277 277 276 276 275 275 275 274 274 273 272 272 274 274 273 272 273 272 272 272 272 273 275 275 275 275 275 275 274 274 275 274 273 273 273 272 272 271
277 277 277 276 276 276 276 276 276 274 273 274 273 272 272 274 274 274 274 274 272 272 272 271 272 271 270 273 273 273 273 274 274 274 274 274 273 273 273 272 272 271 271 270
277 277 277 277 277 277 277 276 275 274 273 273 273 274 275 275 276 275 273 272 273 272 271 272 271 269 269 271 272 272 272 272 272 272 272 272 271 271 271 271 270 270 270 269
278 278 278 278 278 277 277 276 275 275 275 274 274 274 274 274 276 275 274 273 272 271 270 271 270 268 270 271 270 270 271 271 271 271 270 270 270 269 269 269 269 269 268 268
279 279 278 279 278 278 277 277 277 277 277 275 275 275 274 274 275 274 274 273 272 271 270 270 270 268 269 270 270 269 270 270 270 270 270 270 269 269 269 268 268 268 267 267
280 279 279 279 279 279 279 280 279 279 278 277 277 276 275 274 274 274 273 272 271 271 270 270 270 269 269 269 270 269 269 269 269 268 268 269 269 269 268 268 267 267 266 266
280 280 280 280 280 279 279 278 277 277 276 276 276 276 276 275 274 274 273 272 272 271 271 270 270 270 269 269 269 269 269 269 269 269 268 268 268 268 268 268 267 266 266 266
281 280 280 280 280 279 278 277 277 276 275 275 275 274 273 274 275 274 273 272 272 272 272 271 271 271 270 269 269 268 268 268 268 268 268 267 267 266 267 267 266 266 266 265

GFSNGP_925_thetae_108.txt.gz
Theta_e
316 315 316 315 316 318 321 317 317 315 312 309 306 304 302 301 299 299 297 295 294 294 293 292 292 291 291 292 292 293 294 294 295 297 301 308 318 326 325 324 324 323 323 322
316 314 313 313 311 313 315 314 314 311 307 304 302 300 299 298 298 297 295 293 292 293 292 292 291 290 290 290 290 291 293 293 293 294 295 296 298 303 318 321 321 322 320 318
316 314 314 310 309 309 308 309 311 312 307 302 299 297 297 297 297 296 294 292 291 291 291 290 290 290 289 289 290 290 289 291 292 292 292 292 293 293 296 301 307 307 307 307
314 315 310 308 305 306 305 304 305 306 303 298 296 295 294 294 295 295 292 291 289 289 290 289 289 289 288 287 288 288 288 288 289 291 291 291 292 290 291 290 290 294 296 299
316 315 311 307 303 303 307 305 302 303 302 298 296 295 293 293 293 293 291 289 288 288 288 289 288 288 286 286 286 286 286 287 287 288 290 291 289 289 290 290 289 288 289 291
314 311 312 305 300 301 302 304 301 298 298 297 300 299 294 292 292 292 289 288 287 287 287 287 288 287 287 285 284 284 284 284 287 287 287 288 288 289 288 287 287 289 286 288
309 309 306 299 299 301 308 303 301 297 295 294 294 293 292 291 290 290 289 287 286 285 285 285 285 286 287 285 283 283 283 284 285 286 286 287 287 287 287 286 286 286 285 286
306 305 304 299 300 301 301 300 300 297 295 294 292 292 290 291 287 288 287 286 285 284 283 283 284 284 286 286 284 282 282 282 282 283 284 285 285 285 285 285 284 284 285 285
303 302 299 299 299 299 299 299 299 297 295 294 293 292 289 286 285 286 285 284 283 283 283 282 282 283 284 286 285 284 282 281 281 281 281 282 282 282 283 283 283 283 284 284
300 300 298 298 297 297 296 296 294 295 296 296 294 292 288 286 285 285 284 283 282 282 282 281 281 281 282 284 285 285 283 281 281 280 280 280 281 281 281 281 282 282 283 283
300 298 297 295 295 294 294 294 291 289 289 291 288 287 285 285 284 283 282 282 281 280 280 280 280 281 282 282 284 284 283 283 281 280 279 280 280 280 281 281 281 281 282 283
299 299 298 296 294 294 291 290 290 288 287 286 286 285 283 283 282 281 281 280 279 278 278 278 278 279 281 282 282 282 282 282 282 281 280 279 279 279 280 280 281 281 282 282
296 295 290 290 291 293 290 289 288 286 285 284 284 282 281 280 279 280 279 278 278 277 276 276 277 278 279 280 282 281 281 282 282 282 282 279 278 278 278 279 279 278 280 280
294 295 295 294 290 290 289 286 285 284 284 283 281 280 279 278 277 277 277 278 276 275 275 275 275 276 278 280 280 281 282 281 281 281 281 281 280 279 278 277 277 277 278 278
297 293 291 289 288 286 285 284 283 282 281 281 280 279 278 277 276 275 275 276 275 274 274 274 275 275 276 278 280 280 280 280 281 281 281 280 279 278 277 276 276 276 276 276
293 291 289 287 286 285 284 283 282 281 279 278 278 278 277 276 276 275 275 274 274 273 273 274 274 274 275 277 279 280 280 280 279 279 279 279 279 277 275 274 274 275 274 274
292 291 287 285 284 283 282 281 280 278 276 276 276 277 276 275 275 274 274 274 274 273 273 273 274 274 274 276 278 278 279 278 277 277 278 278 278 276 274 274 274 273 273 272
285 284 286 284 283 282 281 280 278 277 276 276 275 275 274 274 273 274 274 275 274 273 272 273 273 273 273 275 276 277 277 277 277 276 277 276 276 276 274 273 273 273 272 272
283 282 282 282 281 280 279 277 276 276 276 275 274 273 272 272 272 273 274 274 273 272 272 272 272 272 272 274 275 275 276 275 275 276 275 274 275 274 274 273 273 272 271 271
280 279 279 278 278 277 276 276 275 275 275 275 274 274 273 273 273 272 273 273 272 271 272 272 272 272 270 273 273 274 274 275 274 274 274 274 273 273 273 273 272 271 271 270
276 276 276 276 276 277 276 276 275 275 274 274 273 273 274 275 275 274 273 273 272 272 272 272 271 270 269 272 272 272 272 273 273 273 273 273 273 273 272 272 271 271 270 270
276 275 276 276 276 276 276 276 275 274 273 273 273 274 274 275 275 275 274 273 272 271 271 271 270 269 269 270 271 271 271 271 271 271 271 271 271 271 271 270 270 270 269 269
277 277 277 277 277 277 276 276 275 275 275 274 275 274 274 274 275 274 274 273 272 271 271 270 270 269 269 270 270 270 270 270 270 270 269 269 269 269 269 269 269 268 268 268
277 277 277 278 278 277 276 277 277 276 276 276 276 276 275 274 274 274 274 273 272 271 271 270 270 269 269 269 269 269 269 269 269 268 268 269 269 269 268 268 268 267 267 267
279 278 278 279 278 278 279 279 279 278 278 277 276 276 277 276 274 274 273 273 272 271 271 270 270 270 269 269 268 269 269 268 268 268 268 268 268 268 268 268 267 267 266 266
279 279 279 279 279 279 279 279 277 276 276 275 275 274 274 273 275 274 274 273 272 272 271 271 271 270 270 269 269 269 268 268 268 268 268 268 267 267 267 268 267 267 266 266
279 280 281 280 280 278 277 277 277 276 275 274 274 274 273 273 274 274 273 273 272 272 272 271 271 271 270 270 269 269 268 268 268 268 267 267 267 267 266 266 266 266 266 265

GFSNGP_925_thetae_111.txt.gz
Theta_e
312 312 310 311 314 319 318 314 313 310 307 304 302 301 301 298 297 295 293 292 293 292 292 291 291 290 290 290 290 291 291 292 293 294 295 298 301 306 313 322 324 324 324 322
313 309 308 308 308 308 313 311 309 306 304 300 300 298 298 297 296 293 292 290 291 291 290 290 290 289 288 288 289 289 290 290 291 292 292 295 294 296 298 299 307 316 321 320
314 313 311 307 306 306 306 305 309 308 303 299 297 296 296 295 294 292 290 289 289 290 290 289 289 287 287 286 287 287 287 289 289 290 291 291 293 294 294 293 293 294 297 303
314 314 310 306 303 306 303 302 304 302 299 297 295 294 294 294 294 291 289 288 288 288 288 288 287 287 285 285 285 285 285 286 287 288 289 289 289 290 292 293 292 291 291 291
316 311 309 306 302 302 305 303 300 302 299 297 295 296 292 293 292 289 288 287 286 286 286 286 286 287 284 283 283 283 284 284 284 286 287 288 288 288 288 289 290 290 291 290
313 311 310 303 299 300 301 304 299 298 297 297 298 297 292 292 291 289 287 285 284 284 285 284 285 286 284 283 282 282 282 282 284 284 285 286 287 286 286 286 286 287 288 289
309 308 305 299 300 301 307 303 299 296 294 292 293 292 292 288 286 286 285 284 283 283 283 283 283 285 285 284 282 282 282 282 283 283 283 284 285 286 286 286 286 285 285 286
305 303 303 297 300 301 300 299 297 295 293 292 292 290 287 285 283 284 284 283 283 282 282 281 281 283 284 285 284 282 282 281 281 282 282 283 283 284 284 284 285 285 285 284
302 300 299 299 298 298 297 296 299 295 293 293 290 287 283 282 282 283 282 281 281 281 281 281 281 280 282 283 284 283 282 281 281 281 281 281 282 282 282 283 283 284 284 284
298 299 297 297 294 295 296 292 291 295 295 293 288 286 284 284 283 282 281 280 280 280 279 279 279 280 280 281 283 283 283 281 280 280 280 280 281 281 282 282 282 282 283 284
298 297 295 294 293 293 292 290 288 288 288 287 286 285 284 283 282 281 280 279 278 278 278 278 278 279 280 281 282 282 282 282 281 280 279 279 280 280 281 281 282 282 283 283
296 297 296 293 293 291 290 289 288 286 285 284 284 283 282 281 281 279 279 278 277 276 276 276 277 278 279 281 281 281 281 281 281 280 279 279 279 279 279 279 280 281 282 282
297 293 290 291 291 289 288 287 285 285 284 283 281 280 280 279 279 279 277 276 275 275 275 275 276 277 278 279 280 281 280 281 281 281 280 279 278 278 278 278 278 277 279 280
293 294 293 289 289 287 286 285 284 283 282 281 279 278 278 277 276 276 276 276 275 274 274 274 275 275 277 279 280 280 280 280 281 280 280 280 279 278 277 277 277 277 277 277
293 291 289 286 286 285 284 283 282 282 281 280 279 278 277 275 274 274 274 274 273 273 273 274 274 274 275 278 279 280 280 279 280 280 279 279 278 277 275 275 275 275 275 275
291 290 288 287 285 284 283 282 281 280 279 278 278 277 276 275 274 274 274 274 273 272 272 273 273 273 274 277 278 279 279 278 277 278 278 278 277 275 274 274 274 273 273 272
289 288 286 285 284 283 281 280 279 277 275 275 275 276 275 275 274 274 274 274 273 272 272 272 272 273 273 275 276 277 278 278 277 277 277 277 277 275 274 274 273 272 272 271
285 286 286 284 283 282 280 279 277 276 275 274 274 275 274 273 272 273 274 274 273 273 273 272 272 272 272 274 275 276 276 276 276 276 276 276 276 274 273 273 273 272 271 271
283 283 283 282 281 280 278 277 276 275 275 274 273 273 272 272 271 272 273 274 272 272 272 272 272 272 271 272 273 274 275 275 275 275 274 274 275 274 273 273 272 271 271 270
280 280 279 279 278 277 275 275 275 275 275 275 274 273 273 274 273 273 274 274 273 273 272 272 271 270 269 271 272 272 273 273 274 274 274 273 273 273 273 272 272 271 270 270
276 277 276 276 276 276 276 275 275 275 275 274 273 273 274 275 275 275 274 274 273 273 272 271 270 270 269 270 271 271 271 272 272 272 272 272 272 272 272 271 271 270 270 269
275 275 275 276 276 276 276 276 275 275 274 273 273 273 274 274 274 274 274 273 273 272 271 270 270 269 268 269 270 270 270 270 270 270 270 270 270 271 271 270 270 270 269 269
276 276 276 276 276 276 276 276 276 275 275 275 275 275 274 274 274 274 274 274 273 272 271 270 270 269 268 269 269 269 269 269 269 269 269 269 269 269 269 269 269 268 268 268
277 277 277 277 277 277 277 277 277 277 277 277 277 276 276 276 276 275 274 274 273 272 271 271 270 270 269 269 268 269 269 268 268 268 268 268 269 268 268 268 268 267 267 267
277 277 277 277 278 277 278 279 278 278 277 278 277 276 275 274 274 274 274 274 273 272 272 271 271 270 270 270 269 268 269 268 268 268 268 268 268 268 267 267 267 267 267 266
278 278 278 278 278 279 279 279 279 277 276 276 275 274 274 273 273 273 274 273 273 273 272 271 271 271 271 270 270 269 269 268 268 268 268 267 268 267 267 266 267 267 266 266
279 279 279 280 280 280 279 277 277 276 276 274 274 274 274 273 272 273 273 273 273 273 273 272 272 272 271 271 270 270 269 269 268 268 267 267 267 267 266 266 266 266 266 265

GFSNGP_925_thetae_114.txt.gz
Theta_e
310 308 307 306 311 311 310 309 308 306 303 301 299 298 297 295 293 292 291 291 291 291 290 290 288 288 288 288 288 289 289 290 291 291 292 293 294 297 302 308 311 315 321 323
313 312 311 305 305 305 308 308 305 303 301 299 297 296 296 294 292 291 290 290 290 290 289 288 288 286 286 286 286 287 288 288 289 290 290 290 291 292 294 298 301 301 303 308
315 310 309 305 304 303 303 304 307 304 301 298 295 294 294 293 291 289 289 288 288 288 287 287 287 284 284 284 285 285 286 286 287 288 289 289 289 289 290 291 294 296 296 297
315 312 309 304 302 303 301 300 302 299 297 295 294 293 292 291 290 288 287 287 286 286 286 285 286 284 283 283 283 283 283 284 284 286 287 287 287 287 288 288 289 290 291 292
315 311 308 305 301 301 303 301 299 301 299 297 295 294 291 291 288 287 285 284 284 284 284 283 284 285 283 282 281 281 281 282 282 283 284 286 286 286 286 287 287 287 287 288
311 310 308 301 298 300 301 303 297 296 295 296 298 295 290 287 285 285 284 283 283 282 282 282 283 285 284 282 281 280 280 281 282 282 283 284 285 286 285 286 286 285 286 286
308 307 304 298 299 301 306 301 296 294 292 291 292 290 287 285 283 283 283 282 282 281 281 281 281 283 284 284 282 281 281 281 282 282 282 283 284 285 285 285 285 285 285 284
306 305 305 298 300 301 300 297 295 293 292 292 288 286 284 282 281 282 281 280 280 280 280 279 280 281 282 282 283 282 281 281 281 281 282 282 283 283 284 284 284 284 284 284
301 300 298 297 297 296 295 298 295 294 292 289 287 283 281 280 280 281 280 279 279 279 279 278 278 278 279 280 282 283 281 280 280 280 280 280 281 282 282 282 282 283 283 284
299 298 297 295 294 294 292 291 293 294 291 287 286 284 282 282 281 280 279 278 278 278 278 277 278 278 278 279 281 282 282 281 280 280 279 280 280 280 281 282 282 282 282 282
298 296 295 294 292 291 290 288 287 286 286 286 285 283 282 281 280 279 278 277 277 277 277 276 277 278 279 279 280 281 281 281 280 279 279 279 279 279 279 280 281 281 281 281
299 297 295 294 292 291 289 287 286 285 284 283 283 282 281 281 279 278 277 276 275 275 275 275 276 276 278 279 279 279 280 280 280 280 279 278 278 278 278 278 279 279 280 280
297 293 291 291 289 288 286 285 284 283 282 281 280 280 279 278 278 278 277 275 274 274 274 274 274 275 277 278 279 280 279 279 280 280 279 278 278 277 277 278 277 276 276 278
293 292 291 289 288 286 285 284 283 281 280 279 278 278 277 276 275 275 275 274 274 273 273 273 273 274 276 278 279 279 279 279 279 279 279 278 277 275 275 275 275 274 274 275
292 291 288 286 285 284 283 282 282 281 280 279 278 277 276 275 274 274 274 273 273 273 273 273 273 273 274 276 277 278 278 277 277 278 278 277 276 275 275 274 274 273 273 273
289 288 287 286 284 284 283 282 281 280 278 278 277 276 275 274 274 273 274 273 272 272 272 272 271 271 272 275 276 277 277 277 276 277 277 277 275 275 274 273 273 272 271 271
288 287 286 285 284 282 281 280 279 276 275 275 274 275 274 273 274 274 273 273 273 272 272 272 271 272 272 273 274 275 276 276 276 276 276 276 275 274 273 273 272 271 271 270
287 287 287 285 283 281 280 278 277 276 275 274 274 274 273 272 272 273 273 273 273 273 272 272 271 271 271 271 273 274 274 274 275 275 275 274 274 274 273 273 272 271 270 269
284 283 283 282 281 279 278 277 276 275 274 274 273 272 272 272 272 272 273 274 273 273 272 271 271 270 270 270 271 272 273 273 273 274 273 273 274 273 273 272 272 271 270 269
281 280 280 279 279 278 276 275 275 275 275 274 273 273 273 274 274 274 274 274 274 273 272 271 270 270 269 269 270 271 271 271 272 272 272 272 272 272 272 272 271 271 270 269
276 277 276 276 275 276 276 275 275 275 274 274 273 273 274 274 274 274 274 274 274 273 272 271 270 270 269 269 269 270 270 270 270 270 270 270 271 271 271 271 270 270 270 269
275 274 274 275 275 275 275 275 275 274 274 274 274 274 274 274 274 273 274 274 274 273 272 271 270 269 269 269 269 269 269 269 269 269 269 269 269 269 269 270 269 269 269 268
275 275 275 276 276 276 276 276 276 276 276 276 276 276 275 275 275 274 273 275 274 273 272 271 271 270 269 269 269 268 269 268 268 268 268 268 268 268 268 268 268 268 268 267
275 276 276 276 277 277 277 277 277 277 278 277 277 277 276 275 274 274 273 274 274 273 272 272 271 270 270 270 269 269 268 268 268 268 268 268 268 267 268 268 267 267 267 267
277 277 277 277 278 278 278 278 278 278 278 277 276 276 275 273 272 273 272 273 273 273 273 272 272 271 271 270 270 270 270 269 268 268 268 267 267 267 267 267 267 267 267 266
277 277 278 278 278 278 279 278 279 278 277 276 275 274 274 274 273 273 272 273 273 273 273 273 272 272 272 271 271 271 270 270 269 269 268 267 267 267 267 267 266 266 266 266
278 279 279 279 280 280 279 278 277 276 275 274 274 274 274 273 273 273 273 272 272 272 272 272 271 271 271 270 270 270 271 270 270 269 269 268 267 267 267 267 266 266 266 266

GFSNGP_925_thetae_117.txt.gz
Theta_e
311 309 307 306 305 307 308 308 306 304 301 299 298 297 294 293 292 291 290 290 289 288 288 287 286 286 286 286 287 288 288 289 289 290 290 291 291 292 293 295 298 302 306 308
312 312 311 306 304 304 307 305 303 302 300 297 296 294 293 291 290 289 289 288 288 288 287 287 286 285 284 285 286 286 287 287 288 289 289 289 289 289 290 291 292 295 295 297
313 312 309 308 304 303 303 303 305 304 300 296 294 293 291 290 289 288 287 287 287 286 285 286 286 284 284 284 285 285 285 285 286 287 287 288 288 288 288 288 289 289 290 290
314 312 312 306 302 302 300 300 301 299 297 295 293 292 290 288 288 287 286 286 285 284 284 284 286 284 283 283 283 283 283 283 283 285 287 287 287 287 287 287 286 286 287 287
314 311 308 305 301 302 303 300 298 299 299 295 293 294 289 287 286 285 285 284 284 283 283 283 284 285 284 282 282 282 282 281 282 283 284 285 285 286 286 286 286 285 285 285
311 313 312 302 299 300 301 302 296 295 295 294 298 297 291 286 284 284 283 283 283 282 282 282 282 284 284 284 282 281 281 281 281 282 282 283 283 284 285 286 285 286 285 284
307 308 303 298 300 301 306 302 295 293 293 293 292 290 287 285 283 282 282 282 282 282 281 280 281 282 283 283 283 281 281 281 281 281 282 282 283 283 284 285 285 285 285 284
305 307 306 298 301 303 299 296 294 294 292 290 288 287 285 283 282 281 281 281 281 281 280 280 280 281 281 282 283 283 281 281 281 281 281 281 282 283 283 283 284 284 284 284
301 300 297 298 297 296 298 296 294 293 290 289 287 285 283 282 281 280 280 280 280 280 280 279 279 279 280 280 282 282 282 281 281 281 281 281 281 282 283 283 283 283 283 283
300 298 297 295 295 292 292 293 294 291 289 288 287 285 284 283 281 280 279 278 278 279 279 278 278 278 278 279 281 282 282 282 281 280 280 280 281 281 281 282 282 282 282 282
298 296 295 294 293 291 290 289 288 287 287 286 285 284 283 281 280 279 278 277 277 277 277 277 277 277 277 278 280 281 281 281 281 280 280 279 279 279 280 279 280 280 280 280
300 297 296 294 292 291 289 288 287 286 284 283 283 282 282 281 279 278 277 276 276 276 275 275 275 275 276 277 278 279 280 280 279 280 279 279 278 278 277 277 277 277 278 278
298 294 293 291 289 288 287 286 284 283 282 282 280 280 280 279 278 277 276 275 275 274 274 273 273 273 276 277 277 277 278 278 278 278 278 277 276 276 276 277 275 275 274 276
293 293 292 290 289 286 285 284 282 281 280 279 279 278 277 276 276 275 275 275 274 273 273 272 272 272 274 276 277 277 277 277 277 277 276 276 275 274 274 274 274 273 273 273
293 292 291 287 286 285 283 283 283 282 280 279 278 277 277 275 275 274 274 274 273 272 272 272 272 272 272 274 275 276 276 276 276 276 276 276 275 274 274 273 273 272 272 272
288 288 287 287 285 284 284 283 283 281 280 278 277 276 275 274 273 273 274 273 273 272 272 272 271 271 271 272 273 274 275 275 275 275 275 275 274 274 274 273 272 272 271 270
289 288 287 286 285 284 283 281 280 279 276 276 274 274 274 273 273 273 273 272 272 272 272 271 271 270 270 270 272 272 273 274 274 275 275 274 274 274 273 273 272 271 270 269
289 289 288 287 285 282 280 279 278 276 275 274 274 273 272 272 272 272 273 273 273 272 272 271 271 270 270 270 270 271 272 273 273 273 273 273 273 273 272 272 272 271 270 269
286 285 285 284 282 281 279 277 276 275 274 273 272 272 272 272 273 273 273 274 273 273 272 272 271 270 269 269 269 270 271 271 272 272 272 272 272 271 272 272 271 270 269 269
282 281 281 280 279 278 276 275 275 274 274 273 273 272 273 274 274 274 274 274 274 273 272 271 270 270 269 269 269 270 270 270 270 270 270 270 271 271 270 271 270 270 269 268
278 278 277 276 275 275 276 275 275 274 274 273 273 274 274 274 274 273 273 274 275 274 273 272 271 270 269 269 269 269 269 269 269 269 269 269 269 269 269 269 269 269 269 268
275 274 274 274 275 274 275 274 274 274 274 274 274 274 274 275 275 274 274 274 274 274 273 272 271 270 270 269 269 269 268 268 268 268 268 268 268 268 268 268 268 268 268 267
275 275 275 275 275 275 275 275 275 275 276 276 276 275 275 275 274 273 274 273 272 273 273 272 271 271 270 270 270 269 269 269 268 268 268 267 267 267 266 267 267 267 267 266
274 275 275 275 276 276 276 277 277 277 277 277 277 276 276 274 273 273 272 272 273 272 272 273 272 272 271 270 270 270 270 270 269 269 268 268 267 267 267 267 267 267 267 267
275 275 276 276 276 277 278 278 278 278 278 276 276 275 274 273 273 273 273 272 272 273 272 272 272 272 272 271 271 271 270 270 270 270 269 269 268 267 267 267 267 267 266 266
276 277 277 277 278 278 278 278 278 277 276 276 275 274 273 273 273 273 272 272 272 272 272 272 271 271 271 270 270 269 269 269 269 269 269 269 269 268 267 267 267 266 266 266
277 277 277 278 279 279 279 278 276 276 275 274 273 273 273 272 271 271 270 270 270 270 269 269 269 269 268 268 268 268 268 267 267 268 268 268 268 269 268 267 267 266 266 265

GFSNGP_925_thetae_123.txt.gz
Theta_e
313 312 312 310 309 310 309 313 315 310 306 301 299 298 296 295 295 293 292 291 290 290 289 288 289 289 289 289 290 291 291 292 293 294 292 292 291 290 290 291 291 291 292 292
314 313 312 314 308 309 309 308 307 306 304 299 298 297 295 295 294 293 292 290 289 288 287 288 288 288 288 288 288 289 289 290 292 292 292 291 290 290 289 289 289 289 289 289
315 314 313 316 309 309 307 306 309 311 304 300 299 297 294 293 293 292 291 290 289 288 287 287 287 288 287 288 287 287 287 288 289 290 290 291 291 290 289 288 288 287 287 287
313 315 316 309 307 307 307 305 304 303 301 300 298 295 293 292 291 291 290 290 290 288 287 287 287 287 287 286 287 286 286 286 287 288 288 289 289 289 289 288 288 287 287 286
314 314 311 308 306 306 307 306 303 303 301 299 297 296 293 290 290 290 290 289 289 289 288 288 288 287 287 286 286 286 285 285 285 286 287 287 287 287 288 287 287 287 286 286
312 313 316 310 304 304 305 308 302 302 301 300 299 302 297 290 288 289 290 289 289 288 288 288 288 287 287 287 287 286 286 286 285 285 285 286 286 286 287 287 287 287 286 285
312 312 309 302 302 303 309 308 301 301 301 302 300 295 291 289 288 288 289 288 289 288 287 287 287 287 287 288 288 288 287 286 286 285 286 285 286 286 286 287 286 286 287 286
310 310 311 300 303 307 303 301 300 299 298 296 293 290 288 287 287 288 289 288 288 288 287 286 286 286 286 286 287 287 288 287 287 287 286 286 286 285 285 286 286 286 286 286
307 306 300 299 302 301 300 299 299 297 296 294 292 289 287 287 287 287 288 288 287 287 286 285 284 284 285 285 286 286 286 286 287 285 286 286 285 285 283 283 284 284 284 284
304 300 299 299 300 299 298 297 296 296 295 293 291 290 289 289 288 288 286 286 285 285 284 283 283 282 282 283 284 285 285 285 285 285 285 285 284 283 282 280 281 281 281 281
302 300 299 298 298 297 296 295 294 294 294 293 292 291 290 289 287 286 285 284 283 283 282 281 281 280 280 281 282 283 283 284 283 284 284 284 283 282 281 278 277 277 277 279
309 301 301 297 296 295 294 293 292 291 291 290 290 289 288 287 286 285 284 283 282 281 281 280 279 278 278 278 280 280 282 282 282 283 283 283 282 283 280 279 277 276 275 275
301 299 297 295 294 293 292 292 291 290 289 289 288 288 287 285 283 282 282 282 281 280 280 279 278 276 275 276 277 278 280 281 281 282 281 281 281 281 281 281 280 278 276 276
298 296 295 294 293 293 291 290 289 288 287 287 286 285 284 283 282 281 280 280 279 279 278 277 276 274 273 274 275 277 278 280 279 280 280 280 280 280 280 280 280 280 279 276
297 298 295 294 292 291 289 289 288 287 286 285 284 284 283 282 281 280 279 279 279 278 277 275 275 274 272 273 274 277 278 279 278 279 279 279 279 279 279 279 279 279 279 277
297 296 293 293 292 291 290 289 288 287 286 284 283 282 281 280 279 279 277 277 278 277 275 274 274 272 271 272 273 277 278 278 277 277 278 279 278 278 278 278 278 278 278 276
297 295 294 293 291 291 290 289 287 285 284 283 281 279 279 278 278 277 276 275 275 274 275 276 274 272 272 272 273 276 277 277 276 277 277 277 277 277 277 277 277 277 276 274
296 295 294 293 292 290 288 286 285 283 282 281 278 276 276 278 278 277 276 275 274 275 275 275 273 273 273 272 272 274 276 276 276 276 276 276 275 275 276 276 276 276 276 275
295 295 294 292 290 288 286 284 283 282 279 276 275 276 276 276 277 276 275 275 275 277 278 275 274 273 274 273 272 274 275 275 275 275 275 274 274 275 274 275 275 274 275 275
294 293 291 290 287 285 284 281 278 277 275 276 275 276 277 276 275 275 275 276 278 278 277 276 275 275 275 274 272 273 274 274 274 274 274 273 274 273 273 273 273 273 274 274
289 287 285 283 282 280 279 278 276 276 275 275 277 277 277 277 276 275 276 279 278 276 275 275 275 275 275 274 273 274 274 274 274 273 273 273 273 273 273 273 273 273 273 273
285 282 280 279 279 278 278 278 277 276 275 275 275 275 276 277 278 278 277 277 277 276 275 275 276 276 275 273 273 273 274 274 274 274 273 273 273 273 272 272 272 272 272 272
282 280 279 279 279 279 278 278 276 276 276 276 276 277 278 279 278 278 279 277 276 275 274 275 275 274 273 272 273 274 274 274 274 274 274 273 273 273 273 272 271 271 271 271
282 281 280 280 279 279 279 278 278 277 277 278 278 276 277 278 278 278 277 276 275 274 274 275 274 273 272 272 273 273 274 273 273 273 273 272 272 272 273 273 272 271 271 270
281 281 281 280 281 281 282 280 280 281 280 280 279 278 277 277 276 276 275 275 274 273 273 273 272 271 271 271 272 271 271 271 272 271 271 271 271 271 271 271 271 272 271 270
282 282 282 282 283 283 283 282 283 282 281 281 280 279 277 276 275 274 274 273 273 272 272 271 271 270 270 269 268 268 269 269 269 269 269 269 269 269 269 269 270 270 271 271
283 283 282 283 283 283 283 282 282 281 279 279 278 277 276 275 274 273 272 272 271 270 270 269 269 268 267 267 266 266 266 266 266 266 265 265 266 266 267 267 267 268 268 268

GFSNGP_925_thetae_126.txt.gz
Theta_e
313 313 314 312 311 310 310 311 316 311 307 301 299 298 296 296 296 294 293 292 290 289 288 288 289 288 289 288 288 289 290 291 291 291 292 291 291 290 289 290 290 289 289 290
313 312 313 315 311 310 310 308 308 307 304 300 298 297 296 295 294 293 292 291 290 289 289 288 288 288 288 288 287 287 288 289 290 290 290 290 290 290 289 288 288 288 287 287
313 314 313 316 314 311 310 309 309 311 306 301 300 297 294 294 293 292 291 291 290 289 289 289 288 288 288 288 287 286 287 287 288 288 289 289 289 289 289 288 287 287 287 287
313 316 318 310 309 308 308 307 305 304 302 301 298 295 293 292 292 291 291 291 291 290 289 289 288 288 288 288 287 287 286 286 287 287 288 288 288 288 288 288 287 286 286 286
312 314 311 309 308 309 308 308 305 304 302 300 297 295 293 291 291 291 291 291 290 289 289 289 288 288 289 288 288 287 287 286 287 286 287 287 287 288 287 287 287 287 285 285
312 312 311 310 307 306 307 311 304 304 302 300 299 302 295 290 289 291 291 290 290 289 288 288 288 288 288 289 289 288 288 287 287 287 286 286 286 286 287 287 286 286 286 285
312 310 309 304 304 304 309 309 303 303 303 301 300 296 291 290 289 290 290 290 289 288 287 286 287 287 287 287 288 287 288 287 286 287 286 286 285 284 284 285 285 285 285 285
312 311 312 302 303 307 305 303 301 300 298 295 293 291 289 288 288 290 290 289 288 287 286 285 285 285 285 285 286 287 286 287 286 286 286 285 284 282 281 282 283 282 282 282
307 306 300 300 303 302 301 301 299 297 295 293 292 290 289 288 288 289 289 288 287 286 285 284 283 283 283 283 284 285 285 285 286 285 285 284 284 282 280 279 279 280 280 280
305 301 300 301 300 300 299 299 297 296 294 292 290 289 289 289 289 288 287 286 285 284 283 282 281 281 281 281 282 284 284 284 284 284 284 284 283 282 280 279 279 278 277 277
303 300 298 299 299 298 297 297 296 295 294 292 291 292 291 289 288 287 286 285 284 283 282 281 280 278 278 279 280 281 283 282 282 283 283 283 282 281 281 279 278 277 276 276
309 302 301 298 297 296 295 294 293 292 292 292 291 290 289 287 286 285 284 283 282 282 281 280 278 276 276 276 278 279 281 281 281 282 282 281 281 282 281 280 279 278 277 276
302 300 296 295 295 294 293 293 292 291 290 290 289 289 287 285 284 283 282 282 281 280 279 278 277 275 274 274 276 277 279 280 280 280 281 281 280 281 281 281 280 280 278 276
298 296 295 294 294 293 292 291 290 289 289 288 287 286 284 283 282 281 280 280 280 279 277 277 275 274 273 273 275 277 279 279 278 279 280 280 280 280 280 280 280 280 279 277
297 298 296 295 294 292 291 289 289 288 287 286 285 284 283 282 281 280 280 280 280 278 277 275 275 273 273 273 274 277 278 278 278 278 278 279 279 279 279 279 279 279 278 277
298 297 296 294 292 291 291 290 289 287 286 285 284 283 282 281 280 279 277 276 277 276 275 275 275 273 273 273 273 276 277 278 277 277 278 278 278 278 277 277 278 278 278 275
297 296 295 293 292 292 291 290 288 287 285 283 281 280 279 278 278 277 277 276 276 275 275 276 275 273 274 273 273 274 276 277 276 276 277 277 276 275 276 277 276 276 277 276
297 296 295 293 292 292 290 288 287 285 283 281 279 278 278 279 278 277 276 276 275 276 277 276 276 275 275 274 274 273 275 276 276 276 276 275 275 275 275 275 275 275 275 275
296 296 294 293 292 290 288 287 285 283 281 278 276 276 277 277 277 277 276 276 277 278 277 277 276 275 275 275 274 274 274 275 275 275 275 275 274 274 274 274 274 274 274 274
295 294 293 292 290 288 285 282 281 279 277 276 277 276 277 276 276 276 276 277 278 279 277 276 276 275 276 276 274 274 274 275 275 275 275 274 274 274 274 274 273 273 273 273
290 287 284 283 282 282 281 280 278 276 276 276 277 277 279 278 277 276 278 280 278 277 276 276 276 276 276 275 274 274 274 274 275 275 275 274 274 274 274 273 273 273 272 272
285 283 281 280 280 279 278 278 277 276 276 277 277 276 277 278 278 278 279 278 278 276 275 275 276 275 275 274 273 273 274 274 274 274 274 274 274 274 274 274 273 273 272 271
284 281 280 280 279 279 279 278 276 276 276 276 276 277 279 279 279 279 279 278 277 275 274 275 275 274 273 272 272 273 273 274 274 273 273 273 273 272 272 272 272 272 272 271
282 281 280 281 280 279 279 277 277 277 278 277 278 277 278 279 279 279 277 276 275 274 274 273 273 272 271 271 271 271 270 270 270 270 270 270 270 270 271 271 270 270 271 270
282 281 282 280 281 281 280 279 280 280 280 280 280 278 278 278 277 276 275 275 274 273 272 272 271 270 270 270 269 268 267 268 268 268 268 267 267 267 267 268 268 268 269 269
282 283 282 282 283 283 283 281 283 282 282 282 281 280 278 277 276 275 274 273 273 271 271 270 269 269 268 267 266 266 266 265 266 265 264 264 264 265 264 264 264 264 265 266
284 284 283 284 284 284 284 283 284 282 281 280 280 278 277 276 275 274 272 272 270 270 269 268 267 266 266 265 265 264 264 264 263 262 262 262 263 262 262 261 262 263 263 264

GFSNGP_925_thetae_132.txt.gz
Theta_e
310 311 311 311 311 313 313 310 310 302 307 302 300 298 296 294 291 291 289 289 287 286 287 287 288 288 288 287 286 286 287 287 287 288 287 288 287 287 286 286 286 287 287 288
306 309 310 309 308 309 312 309 306 307 306 300 298 296 295 293 292 291 290 289 288 288 288 287 287 288 288 287 287 286 286 285 286 286 287 287 287 285 285 285 284 285 285 286
308 308 310 311 309 310 308 308 307 307 304 298 298 296 294 292 291 291 290 289 288 287 288 287 286 287 287 287 286 286 285 284 283 284 284 285 285 286 284 283 283 282 283 284
309 309 307 304 309 309 310 309 303 301 299 298 297 294 292 291 290 290 290 288 287 285 286 285 285 285 286 285 285 285 284 284 282 281 281 282 282 283 283 282 280 280 280 281
310 310 306 309 307 308 310 308 302 300 297 294 293 292 291 290 290 290 289 287 285 284 284 284 283 284 284 285 284 284 284 283 282 280 279 279 280 279 280 280 279 278 277 278
309 310 308 306 304 304 307 308 302 298 296 294 292 297 294 290 289 289 287 286 284 283 282 282 282 282 282 282 283 283 283 283 283 281 280 279 278 278 277 278 277 277 276 277
308 309 307 304 303 303 309 305 301 298 296 294 294 293 291 290 289 288 286 284 283 281 280 280 280 281 280 281 282 283 282 282 282 282 280 279 279 278 277 277 276 276 276 276
307 308 307 302 301 305 300 296 295 295 296 294 291 290 290 289 287 287 285 283 281 280 279 278 278 279 279 279 281 282 282 281 281 281 281 280 279 279 278 277 276 276 276 276
306 304 300 301 301 299 297 295 293 292 291 291 290 290 289 288 287 285 283 282 280 279 277 276 276 277 277 279 280 280 281 281 280 280 280 280 279 279 278 277 276 276 276 275
301 299 300 301 299 298 297 295 293 292 291 290 289 289 288 288 285 283 282 281 280 278 276 275 275 275 277 278 280 279 279 279 280 279 279 280 280 279 278 277 276 275 275 275
300 299 298 299 299 298 295 293 292 291 290 289 289 289 289 286 284 282 281 280 279 278 276 274 274 275 277 278 279 279 278 278 278 279 279 279 279 279 279 278 277 277 277 276
300 298 296 298 297 296 296 294 292 292 291 290 290 289 286 284 283 282 280 279 278 277 275 274 273 274 276 277 278 278 277 277 277 278 278 278 278 277 277 278 278 278 277 276
298 297 293 296 294 294 293 292 292 292 291 289 287 286 284 282 282 281 279 278 278 277 275 274 274 273 275 276 277 277 277 276 277 277 277 277 275 275 276 276 276 277 276 276
295 295 295 294 294 292 292 292 292 290 289 287 285 283 282 281 280 280 279 278 276 276 275 274 274 274 273 275 276 277 276 276 276 276 276 275 274 275 275 275 275 275 275 275
295 294 294 294 293 292 291 291 287 285 285 284 283 282 281 280 279 279 279 278 276 276 275 275 274 274 274 274 275 276 276 275 275 275 275 274 274 274 274 273 274 274 273 273
295 293 293 293 293 291 288 287 285 285 284 283 282 281 280 279 278 277 277 277 276 275 276 276 275 275 275 274 274 275 275 275 274 274 274 274 274 273 274 273 273 273 273 273
293 294 293 292 291 288 287 286 285 285 283 281 281 280 279 277 276 275 275 275 276 276 277 276 276 275 275 275 274 274 274 274 275 274 274 274 274 274 273 273 273 273 273 272
294 292 292 291 288 287 286 286 284 283 281 280 280 279 278 277 276 276 276 276 278 277 276 275 275 275 275 275 275 274 274 274 274 273 273 274 274 274 274 273 273 273 273 272
293 291 289 288 288 286 285 284 283 281 280 280 279 278 279 277 276 276 276 278 277 277 275 275 275 275 275 275 274 273 273 272 273 273 273 273 274 273 273 273 273 272 272 272
290 290 289 287 287 285 282 282 282 280 279 279 278 277 277 277 276 276 277 277 277 276 275 275 275 275 274 273 273 272 272 272 271 272 271 271 271 271 271 271 270 270 270 270
289 288 285 284 282 283 283 282 281 278 278 277 277 276 276 276 276 277 278 278 276 275 275 275 274 273 272 272 271 271 270 269 269 269 268 268 268 268 268 268 267 267 267 268
282 281 280 280 280 279 280 281 280 277 277 276 276 278 277 277 278 277 277 277 275 274 274 273 272 271 271 270 269 269 268 267 267 266 266 265 265 264 265 265 265 265 264 264
280 280 279 279 279 278 279 279 278 277 277 277 278 277 278 278 279 278 275 275 274 274 273 272 271 270 269 269 268 267 266 265 265 264 263 263 263 263 263 262 262 261 262 263
279 279 279 279 279 277 275 276 276 277 277 277 277 278 278 277 276 276 275 274 273 272 271 270 269 268 267 266 266 265 264 263 263 262 262 261 261 261 260 260 260 260 261 262
280 279 278 278 278 277 276 276 276 276 276 276 277 278 277 277 277 275 274 273 271 271 270 268 267 266 265 265 264 263 262 262 261 261 260 260 259 259 259 258 259 259 260 259
280 279 279 279 279 278 277 277 277 277 277 278 278 277 276 276 275 274 273 271 270 269 268 266 265 265 264 263 262 261 261 260 260 259 259 258 258 258 257 257 257 257 257 257
281 280 280 280 280 279 278 278 278 278 278 278 277 276 276 275 273 272 271 269 268 267 266 265 264 263 262 261 261 260 260 259 258 258 257 257 257 256 256 256 255 256 255 255

GFSNGP_925_thetae_135.txt.gz
Theta_e
309 310 309 309 309 309 310 310 310 306 308 304 301 297 295 291 290 290 289 288 286 285 286 286 286 286 286 286 285 284 283 282 283 284 284 284 284 282 282 282 284 286 287 287
301 305 305 306 306 307 307 308 310 310 308 300 297 295 293 292 291 290 290 288 288 287 286 285 285 285 285 285 284 283 283 281 281 281 281 281 282 281 280 280 281 283 284 285
306 305 305 307 306 306 308 308 309 309 307 298 296 295 293 292 291 290 289 287 285 284 284 284 283 284 284 284 284 283 282 281 280 280 279 279 279 279 279 278 279 280 282 284
307 307 309 303 307 307 309 309 306 302 299 298 296 293 292 290 290 290 288 286 285 283 283 283 283 283 283 283 283 283 283 281 280 280 279 278 278 278 278 277 277 277 279 281
308 308 305 305 307 308 309 309 304 301 297 294 291 291 289 290 289 288 286 285 283 282 282 282 282 282 282 282 282 282 282 281 280 279 279 278 277 277 276 276 276 276 277 279
309 311 310 304 304 303 305 308 301 297 295 293 292 295 291 289 288 288 285 283 282 281 280 280 280 281 281 281 281 281 281 281 280 279 278 278 277 277 276 276 276 276 276 277
309 309 307 304 303 302 308 304 300 297 295 293 294 292 289 288 288 286 284 282 280 279 278 278 279 280 280 280 280 281 280 280 280 280 279 278 277 277 276 276 276 276 276 277
306 308 307 302 301 305 300 295 296 296 295 293 291 290 289 287 287 285 283 281 279 277 276 276 277 279 279 279 279 280 280 279 279 279 279 279 278 277 276 276 276 276 276 276
305 304 300 301 300 298 296 295 293 293 293 291 291 289 287 286 285 284 282 280 279 277 276 275 276 277 278 279 279 279 279 279 279 279 279 279 278 277 276 276 276 276 275 275
305 301 300 301 298 296 295 293 291 292 291 290 290 288 285 284 283 282 281 280 278 276 275 275 275 277 277 278 278 278 278 278 278 278 278 277 278 278 278 278 277 276 275 275
302 299 299 300 299 294 293 292 292 291 290 290 289 287 285 285 284 282 281 279 277 276 275 274 275 276 277 278 277 277 277 277 277 277 277 276 276 277 277 278 278 277 276 275
302 298 297 297 298 294 293 292 291 290 289 289 288 288 285 284 283 281 279 278 277 276 275 274 274 276 277 277 277 276 277 276 277 276 275 275 275 275 276 277 277 276 276 275
298 296 293 296 296 295 293 291 290 289 289 289 288 286 285 284 282 280 279 278 277 276 275 274 273 275 276 276 276 276 275 276 276 275 274 274 274 274 273 274 274 275 274 274
295 295 296 295 294 293 293 292 291 290 289 287 286 284 283 282 281 279 278 277 276 275 275 274 274 273 274 275 276 275 275 275 275 274 274 274 273 273 273 273 273 273 272 273
295 294 294 294 293 292 291 291 289 287 286 285 284 283 281 280 280 278 277 277 276 275 275 275 274 274 274 274 275 275 275 274 274 274 274 274 273 273 273 272 272 272 272 272
293 293 292 292 293 292 291 286 285 285 284 283 282 281 280 279 278 278 278 276 276 276 276 276 275 275 275 275 274 274 274 274 274 274 274 274 274 273 273 273 273 273 273 272
293 293 293 293 292 291 288 285 285 284 283 282 280 279 278 277 276 276 277 276 276 277 276 276 275 275 275 275 275 273 273 274 273 273 273 273 274 274 273 273 273 272 273 273
293 292 292 292 291 287 285 285 284 283 281 280 279 278 276 276 275 275 275 276 277 276 275 275 275 275 275 275 274 273 273 272 272 272 272 272 272 272 272 271 271 270 270 271
293 291 291 290 287 286 285 284 283 282 281 280 279 277 277 276 276 276 276 277 276 275 275 275 275 275 275 274 273 272 272 271 271 270 270 270 270 270 269 269 268 268 268 268
289 289 289 287 287 286 283 283 282 281 280 280 279 277 276 276 276 276 277 277 277 275 275 275 275 274 273 272 271 271 270 270 269 268 268 268 268 267 267 266 266 266 266 265
285 286 285 284 283 284 283 282 281 279 279 279 278 277 276 276 275 276 276 276 275 275 275 274 273 272 271 271 270 269 268 268 267 266 266 265 265 264 264 264 264 263 263 263
284 282 281 281 281 279 281 281 281 279 278 278 278 276 276 275 276 277 277 276 275 274 274 273 272 271 270 269 268 267 266 266 265 264 264 263 263 263 262 262 261 261 261 261
282 281 280 280 279 279 279 279 279 278 277 277 276 276 277 277 277 276 274 274 274 274 273 271 270 269 268 267 266 265 264 264 263 262 261 261 261 260 260 259 259 259 260 260
279 280 279 280 279 278 276 276 277 277 277 276 277 277 278 278 276 276 276 274 273 272 271 269 268 267 266 265 264 263 263 262 261 260 260 260 259 259 258 258 258 258 258 258
280 279 278 278 278 278 277 276 276 276 276 276 276 278 278 277 277 275 274 273 272 271 269 267 266 265 264 264 263 262 261 260 260 259 259 258 258 257 257 257 257 257 256 256
280 279 279 279 278 277 276 276 276 276 276 276 277 277 277 276 275 274 272 271 270 269 267 266 265 264 263 262 261 261 260 259 259 258 257 257 257 256 256 255 255 255 255 255
280 280 280 279 278 277 277 277 276 276 276 277 276 276 275 274 273 272 271 269 268 267 265 264 263 262 261 260 260 259 259 258 258 257 256 256 255 255 255 254 254 254 254 254

GFSNGP_925_thetae_138.txt.gz
Theta_e
308 308 309 309 307 307 307 308 310 307 307 306 303 298 296 291 289 290 288 288 285 281 283 284 284 284 284 283 283 281 281 280 280 279 279 279 279 279 280 280 281 283 284 284
300 305 305 305 302 303 304 305 306 306 307 303 298 295 293 292 291 290 289 287 286 285 284 283 283 283 283 283 283 281 280 280 280 279 278 278 278 278 278 279 280 281 283 283
306 304 304 305 299 303 304 306 307 308 307 298 297 296 293 292 291 290 288 286 284 283 282 282 282 282 282 282 282 281 281 280 279 279 278 277 277 277 277 278 278 279 281 282
307 305 305 300 304 305 306 308 306 303 300 299 297 293 292 290 290 290 287 285 283 281 281 281 282 282 282 281 281 281 280 280 279 279 278 278 277 276 277 277 277 278 279 280
308 307 304 303 303 308 308 308 306 303 296 293 291 290 289 290 288 288 285 283 282 281 280 281 281 281 281 281 281 280 280 280 279 278 278 277 277 276 276 276 277 277 277 278
304 308 307 304 304 303 304 307 301 298 295 293 292 296 291 289 287 285 283 282 280 279 279 280 280 280 280 280 280 280 280 279 279 279 277 277 276 276 276 276 276 276 276 276
304 307 307 304 303 302 307 303 299 296 294 292 294 291 288 287 285 283 281 280 279 278 277 278 279 279 279 279 279 279 279 279 279 279 278 277 276 276 276 275 275 276 276 275
307 308 307 302 301 305 301 295 296 295 293 293 290 289 288 286 284 283 281 279 277 276 276 277 279 279 278 278 279 279 279 278 278 278 278 278 277 277 276 276 275 275 275 276
305 304 300 301 300 298 296 296 294 294 292 291 290 289 287 284 284 282 280 278 277 276 276 276 277 278 278 278 278 278 278 278 278 277 277 277 277 277 278 276 275 275 275 275
305 302 300 301 298 297 295 294 292 292 291 290 288 288 286 285 283 280 279 277 276 276 276 276 276 277 277 277 277 278 278 277 277 276 275 275 276 277 278 277 276 275 274 275
303 301 298 299 299 295 293 291 291 291 291 289 288 286 285 284 283 281 279 277 276 276 275 275 276 277 277 277 277 277 277 276 276 275 274 274 274 275 275 276 276 275 275 275
304 301 300 297 297 293 292 291 290 290 290 288 286 285 284 284 283 280 278 277 276 275 274 274 276 276 276 276 276 276 276 276 275 274 274 274 273 273 273 274 274 274 274 274
301 296 293 294 293 293 291 291 290 289 289 287 285 285 284 283 281 280 278 277 276 275 274 274 275 275 276 276 275 275 275 275 274 274 273 273 273 273 272 272 272 272 273 273
294 295 296 295 296 293 291 290 289 288 288 286 285 285 284 281 280 279 278 276 276 275 274 274 274 274 275 275 275 274 274 274 274 274 274 273 273 273 273 272 272 272 272 272
294 294 294 293 294 293 291 290 289 287 286 284 284 283 282 280 279 278 277 276 275 275 274 274 274 274 274 275 275 275 274 274 274 274 274 274 274 273 273 273 273 273 273 272
293 292 293 293 293 292 291 290 287 287 285 284 283 282 281 280 278 277 277 276 276 276 275 274 275 275 275 274 274 274 274 274 273 273 273 273 274 273 273 273 272 272 271 271
294 294 293 293 292 291 289 287 286 285 283 283 282 280 279 279 278 277 276 276 276 276 276 275 275 275 275 275 275 273 274 273 272 272 272 272 272 271 271 271 270 270 270 269
293 292 292 292 292 290 287 285 285 283 282 281 280 279 278 277 276 276 276 276 276 276 275 275 275 275 275 274 274 273 272 272 271 271 270 270 269 269 268 268 267 267 267 267
292 291 291 291 290 288 285 284 283 283 281 280 279 277 277 277 276 275 275 277 276 275 275 275 275 275 274 274 273 272 271 270 270 269 268 268 267 267 266 265 265 265 264 264
289 290 289 287 287 285 283 283 283 281 280 279 278 276 275 275 275 275 276 276 275 275 275 275 274 273 272 271 271 270 269 268 268 267 266 265 265 264 264 264 263 262 262 262
286 287 285 284 283 285 285 283 282 279 279 279 278 276 275 275 275 276 276 275 275 275 275 274 273 272 271 270 269 268 267 267 266 265 264 263 263 262 262 261 261 260 260 260
284 282 281 282 281 280 281 281 281 279 278 278 277 276 275 274 275 276 276 276 275 274 274 273 272 271 270 269 267 266 266 265 264 263 262 262 261 261 260 259 259 259 259 259
283 282 281 280 279 278 278 279 279 279 278 278 277 276 275 275 276 275 274 275 274 274 273 272 270 269 268 267 266 265 264 263 262 261 261 260 259 259 258 258 258 257 257 257
280 280 279 279 279 277 276 276 278 278 278 277 277 276 276 276 276 276 276 274 274 273 272 270 268 267 266 265 264 263 262 261 261 260 259 259 258 258 257 257 256 256 256 256
280 279 279 279 279 278 277 276 276 276 275 275 276 277 277 277 277 275 275 274 272 271 270 267 266 265 264 263 263 262 261 260 259 259 258 257 257 256 256 255 255 255 255 255
280 279 279 280 280 279 277 276 275 275 276 275 276 276 276 276 276 275 273 272 271 269 268 266 265 264 263 262 261 260 260 259 258 258 257 256 256 255 255 255 254 254 254 254
280 280 279 279 279 278 277 276 276 276 276 276 276 275 276 275 274 273 272 270 269 267 266 264 263 263 262 261 260 259 259 258 257 257 256 255 255 254 254 254 253 253 253 253

GFSNGP_925_thetae_141.txt.gz
Theta_e
309 309 309 309 309 308 308 309 310 308 308 308 307 307 302 297 292 291 290 289 287 286 284 284 284 284 283 283 282 282 281 281 280 279 279 278 279 279 279 279 281 282 283 283
305 306 306 307 305 305 306 307 307 306 307 306 303 299 298 296 293 292 290 289 287 285 285 284 284 283 283 282 282 281 281 281 280 280 279 278 278 278 278 279 279 280 282 282
306 305 306 306 305 304 304 304 305 307 307 304 302 300 298 295 294 292 290 288 286 284 284 283 283 283 282 282 281 281 281 280 280 280 279 279 278 278 278 278 278 279 279 281
307 306 306 306 302 305 306 306 307 307 306 303 301 297 295 294 293 291 288 286 284 283 282 282 282 282 282 281 281 281 280 280 279 279 279 278 278 278 278 278 277 276 277 278
309 307 306 305 304 306 309 308 307 308 301 296 294 294 293 292 292 290 288 285 283 282 281 281 281 281 281 280 281 280 280 279 279 278 278 278 277 277 277 277 278 276 275 276
307 306 305 304 304 304 306 308 303 302 300 296 296 303 300 291 290 287 285 283 281 280 280 281 281 281 280 280 280 280 280 279 279 278 278 277 277 277 277 277 277 277 276 275
306 306 305 305 304 304 307 307 301 299 299 296 299 298 293 290 287 285 283 281 279 279 279 279 280 280 280 280 280 280 279 279 279 279 278 278 278 277 276 276 276 276 276 275
305 306 306 303 303 307 304 300 298 298 296 296 293 291 290 287 285 283 281 279 278 278 278 279 279 279 279 279 279 279 279 278 278 277 278 278 278 278 277 276 276 276 276 276
306 306 303 303 304 301 299 300 298 297 295 294 292 290 287 285 284 282 280 278 277 278 278 278 278 279 279 278 279 278 278 277 276 276 276 277 278 278 277 277 276 276 276 276
305 305 304 302 301 299 298 298 296 295 294 292 291 289 286 285 283 281 279 278 277 278 278 278 278 278 278 278 278 278 277 277 276 275 276 275 276 276 276 276 276 275 275 275
306 304 302 302 301 299 295 294 293 293 292 291 290 288 287 285 284 281 279 278 277 277 278 277 277 277 277 277 277 277 277 276 275 275 274 274 274 275 275 275 275 275 275 274
306 305 305 304 300 295 294 293 293 292 290 290 289 287 286 285 283 281 279 277 277 276 277 276 276 276 276 276 276 277 276 275 275 274 274 274 274 273 273 273 273 274 274 274
305 300 298 296 295 294 293 292 291 291 289 288 286 286 286 285 283 280 278 277 277 276 275 276 275 275 275 275 275 275 275 275 274 274 274 274 273 273 273 273 273 273 273 273
297 297 298 296 297 294 293 291 290 290 287 286 286 286 285 283 281 280 278 277 276 276 275 275 274 275 275 274 274 274 274 274 274 274 273 273 273 273 273 273 273 273 272 272
297 295 297 296 294 293 291 289 289 288 286 286 286 285 283 282 280 279 277 277 276 275 274 274 274 274 274 274 274 274 274 274 273 273 273 273 273 273 273 273 273 272 272 271
295 295 295 296 294 292 291 290 289 288 287 286 285 284 282 281 279 278 277 276 276 276 275 274 274 274 274 274 274 274 274 274 273 272 272 272 272 272 272 271 271 271 270 268
295 295 295 294 293 292 291 290 289 287 285 284 282 281 280 279 277 277 276 276 276 276 275 275 275 275 275 275 275 274 273 272 272 272 271 271 271 270 270 269 269 269 268 266
295 296 295 295 293 292 291 289 287 286 284 282 281 280 278 277 278 276 276 276 276 275 275 275 275 275 275 274 274 273 272 271 271 270 270 268 268 268 267 267 267 266 265 265
294 294 293 293 292 291 288 287 286 284 282 282 280 278 278 277 277 276 275 276 276 275 275 275 275 274 274 273 272 271 270 269 269 268 267 266 266 265 265 265 264 263 262 262
292 291 292 291 290 287 285 284 284 283 282 281 279 277 276 276 276 275 275 275 276 275 275 275 274 273 272 271 270 269 268 268 267 266 265 264 263 263 262 262 261 261 260 260
289 288 287 287 285 285 286 284 283 280 279 280 278 276 275 275 275 275 275 275 275 275 275 274 273 272 271 270 269 268 267 266 264 263 263 262 261 261 260 259 259 259 259 258
286 285 283 283 282 280 282 282 282 280 278 278 277 276 275 274 274 275 276 276 274 274 274 273 272 271 270 269 268 266 265 264 263 262 261 260 259 259 258 258 257 257 257 257
284 283 281 281 280 279 279 280 280 280 278 278 277 275 275 274 275 276 276 275 274 274 273 272 271 269 268 267 266 265 264 262 262 261 260 259 258 257 257 256 256 255 255 255
281 281 279 279 279 278 278 277 278 278 278 277 277 276 276 275 275 275 276 275 274 273 272 271 269 268 266 265 264 263 262 261 260 260 259 258 258 257 256 256 255 254 254 254
280 279 278 279 280 280 278 277 276 276 276 276 275 275 275 276 277 275 275 274 273 272 271 268 267 266 265 264 263 262 261 260 259 259 258 257 257 256 255 255 254 254 254 253
281 281 281 281 281 279 278 278 277 276 276 275 275 275 276 276 276 275 274 273 272 271 269 267 266 265 264 262 261 260 260 259 258 258 257 257 256 255 255 254 254 253 253 253
281 281 281 280 279 278 278 278 277 276 276 276 275 275 276 275 274 274 273 271 270 269 267 266 264 263 262 261 260 260 259 258 258 257 257 256 256 255 255 254 253 253 253 253